[[{"header":{"parameterUnit":"m.s-1","parameterCategory":1,"la1":30.6,"la2":29.2853,"lo1":-89.7004,"lo2":-87.6739,"dy":0.0162,"dx":0.0183,"nx":112,"ny":82,"refTime":"2023-06-26T06:00:00:Z","depth":0,"parameterNumber":2,"parameterNumberName":"U-component_of_WINDS"},"data":[0.0,0.0,0.0,0.0,0.0,0.0,0.0,0.0,0.0,0.0,0.0,0.0,0.0,0.0,0.0,0.0,0.0,0.0,0.0,0.0,0.0,0.0,0.0,0.0,0.0,0.0,0.0,0.0,0.0,0.0,0.0,0.0,0.0,0.0,0.0,0.0,0.0,0.0,0.0,0.0,0.0,0.0,0.0,0.0,0.0,0.0,0.0,0.0,0.0,0.0,0.0,0.0,0.0,0.0,0.0,0.0,0.0,0.0,0.0,0.0,0.0,0.0,0.0,0.0,0.0,0.0,0.0,0.0,0.0,0.0,0.0,0.0,0.0,0.0,0.0,0.0,0.0,0.0,0.0,0.0,0.0,0.0,0.0,0.0,0.0,0.0,0.0,0.0,0.0,0.0,-1.3004,-1.4106,-1.5596,-1.6585,-1.6811,-1.6872,-1.6367,-1.5029,0.0,0.0,0.0,0.0,0.0,0.0,0.0,0.0,0.0,0.0,0.0,0.0,0.0,0.0,0.0,0.0,0.0,0.0,0.0,0.0,0.0,0.0,0.0,0.0,0.0,0.0,0.0,0.0,0.0,0.0,0.0,0.0,0.0,0.0,0.0,0.0,0.0,0.0,0.0,0.0,0.0,0.0,0.0,0.0,0.0,0.0,0.0,0.0,0.0,0.0,0.0,0.0,0.0,0.0,0.0,0.0,0.0,0.0,0.0,0.0,0.0,0.0,0.0,0.0,0.0,0.0,0.0,0.0,0.0,0.0,0.0,0.0,0.0,0.0,0.0,0.0,0.0,0.0,0.0,0.0,0.0,0.0,0.0,0.0,0.0,0.0,0.0,0.0,0.0,0.0,0.0,0.0,0.0,0.0,0.0,0.0,0.0,0.0,0.0,0.0,0.0,0.0,0.0,0.0,-1.4386,-1.6,-1.6922,-1.7569,-1.7794,-1.7226,-1.6793,-1.6585,0.0,0.0,0.0,0.0,0.0,0.0,0.0,0.0,0.0,0.0,0.0,0.0,0.0,0.0,0.0,0.0,0.0,0.0,0.0,0.0,0.0,0.0,0.0,0.0,0.0,0.0,0.0,0.0,0.0,0.0,0.0,0.0,0.0,0.0,0.0,0.0,0.0,0.0,0.0,0.0,0.0,0.0,0.0,0.0,0.0,0.0,0.0,0.0,0.0,0.0,0.0,0.0,0.0,0.0,0.0,0.0,0.0,0.0,0.0,0.0,0.0,0.0,0.0,0.0,0.0,0.0,0.0,0.0,0.0,0.0,0.0,0.0,0.0,0.0,0.0,0.0,0.0,0.0,0.0,0.0,0.0,0.0,0.0,0.0,0.0,0.0,0.0,0.0,0.0,0.0,0.0,0.0,0.0,0.0,0.0,0.0,0.0,0.0,0.0,0.0,0.0,0.0,0.0,-1.453,-1.5737,-1.707,-1.7491,-1.7784,-1.8008,-1.7725,-1.7157,-1.6306,-1.5596,0.0,0.0,0.0,0.0,0.0,0.0,0.0,0.0,0.0,0.0,0.0,0.0,0.0,0.0,0.0,0.0,0.0,0.0,0.0,0.0,0.0,0.0,0.0,0.0,0.0,0.0,0.0,0.0,0.0,0.0,0.0,0.0,0.0,0.0,0.0,0.0,0.0,0.0,0.0,0.0,0.0,0.0,0.0,0.0,0.0,0.0,0.0,0.0,0.0,0.0,0.0,0.0,0.0,0.0,0.0,0.0,0.0,0.0,0.0,0.0,0.0,0.0,0.0,0.0,0.0,0.0,0.0,0.0,0.0,0.0,0.0,0.0,0.0,0.0,0.0,0.0,0.0,0.0,0.0,0.0,0.0,0.0,0.0,0.0,0.0,0.0,0.0,0.0,0.0,0.0,0.0,0.0,0.0,0.0,0.0,0.0,0.0,0.0,0.0,0.0,0.0,0.0,-1.5886,-1.6655,-1.7647,-1.7784,-1.7862,-1.8008,-1.8008,-1.751,-1.6306,-1.6097,0.0,0.0,0.0,0.0,0.0,0.0,0.0,0.0,0.0,0.0,0.0,0.0,0.0,0.0,0.0,0.0,0.0,0.0,0.0,0.0,0.0,0.0,0.0,0.0,0.0,0.0,0.0,0.0,0.0,0.0,0.0,0.0,0.0,0.0,0.0,0.0,0.0,0.0,0.0,0.0,0.0,0.0,0.0,0.0,0.0,0.0,0.0,0.0,0.0,0.0,0.0,0.0,0.0,0.0,0.0,0.0,0.0,0.0,0.0,0.0,0.0,0.0,0.0,0.0,0.0,0.0,0.0,0.0,0.0,0.0,0.0,0.0,0.0,0.0,0.0,0.0,0.0,0.0,0.0,0.0,0.0,0.0,0.0,0.0,0.0,0.0,0.0,0.0,0.0,0.0,0.0,0.0,0.0,0.0,0.0,0.0,0.0,0.0,0.0,0.0,0.0,0.0,-1.6026,-1.6733,-1.7862,-1.8008,-1.8008,-1.8008,-1.8008,-1.794,-1.7872,-1.7217,0.0,0.0,0.0,0.0,0.0,0.0,0.0,0.0,0.0,0.0,0.0,0.0,0.0,0.0,0.0,0.0,0.0,0.0,0.0,0.0,0.0,0.0,0.0,0.0,0.0,0.0,0.0,0.0,0.0,0.0,0.0,0.0,0.0,0.0,0.0,0.0,0.0,0.0,0.0,0.0,0.0,0.0,0.0,0.0,0.0,0.0,0.0,0.0,0.0,0.0,0.0,0.0,0.0,0.0,0.0,0.0,0.0,0.0,0.0,0.0,0.0,0.0,0.0,0.0,0.0,0.0,0.0,0.0,0.0,0.0,0.0,0.0,0.0,0.0,0.0,0.0,0.0,0.0,0.0,0.0,0.0,0.0,0.0,0.0,0.0,0.0,0.0,0.0,0.0,0.0,0.0,0.0,0.0,0.0,0.0,0.0,0.0,0.0,0.0,0.0,0.0,0.0,-1.701,-1.751,-1.794,-1.8008,-1.8008,-1.8008,-1.8008,-1.7794,-1.7364,0.0,0.0,0.0,0.0,0.0,0.0,0.0,0.0,0.0,0.0,0.0,0.0,0.0,0.0,0.0,0.0,0.0,0.0,0.0,0.0,0.0,0.0,0.0,0.0,0.0,0.0,0.0,0.0,0.0,0.0,0.0,0.0,0.0,0.0,0.0,0.0,0.0,0.0,0.0,0.0,0.0,0.0,0.0,0.0,0.0,0.0,0.0,0.0,0.0,0.0,0.0,0.0,0.0,0.0,0.0,0.0,0.0,0.0,0.0,0.0,0.0,0.0,0.0,0.0,0.0,0.0,0.0,0.0,0.0,0.0,0.0,0.0,0.0,0.0,0.0,0.0,0.0,0.0,0.0,0.0,0.0,0.0,0.0,0.0,0.0,0.0,0.0,0.0,0.0,0.0,0.0,0.0,0.0,0.0,0.0,0.0,0.0,0.0,0.0,0.0,0.0,0.0,-1.6793,-1.751,-1.793,-1.8008,-1.8008,-1.8008,-1.8008,-1.8008,-1.7725,-1.6941,0.0,0.0,0.0,0.0,0.0,0.0,0.0,0.0,0.0,0.0,0.0,0.0,0.0,0.0,0.0,0.0,0.0,0.0,0.0,0.0,0.0,0.0,0.0,0.0,0.0,0.0,0.0,0.0,0.0,0.0,0.0,0.0,0.0,0.0,0.0,0.0,0.0,0.0,0.0,0.0,0.0,0.0,0.0,0.0,0.0,0.0,0.0,0.0,0.0,0.0,0.0,0.0,0.0,0.0,0.0,0.0,0.0,0.0,0.0,0.0,0.0,0.0,0.0,0.0,0.0,0.0,0.0,0.0,0.0,0.0,0.0,0.0,0.0,0.0,0.0,0.0,0.0,0.0,0.0,0.0,0.0,0.0,0.0,0.0,0.0,0.0,0.0,0.0,0.0,0.0,0.0,0.0,0.0,0.0,0.0,0.0,0.0,0.0,0.0,0.0,0.0,0.0,-1.6793,-1.7354,-1.7784,-1.8008,-1.8008,-1.8008,-1.8008,-1.8018,-1.7657,0.0,0.0,0.0,0.0,0.0,0.0,0.0,0.0,0.0,0.0,0.0,0.0,0.0,0.0,0.0,0.0,0.0,0.0,0.0,0.0,0.0,0.0,0.0,0.0,0.0,0.0,0.0,0.0,0.0,0.0,0.0,0.0,0.0,0.0,0.0,0.0,0.0,0.0,0.0,0.0,0.0,0.0,0.0,0.0,0.0,0.0,0.0,0.0,0.0,0.0,0.0,0.0,0.0,0.0,0.0,0.0,0.0,0.0,0.0,0.0,0.0,0.0,0.0,0.0,0.0,0.0,0.0,0.0,0.0,0.0,0.0,0.0,0.0,0.0,0.0,0.0,0.0,0.0,0.0,0.0,0.0,0.0,0.0,0.0,0.0,0.0,0.0,0.0,0.0,0.0,0.0,0.0,0.0,0.0,0.0,0.0,0.0,0.0,0.0,0.0,0.0,0.0,0.0,-1.751,-1.7794,-1.793,-1.8008,-1.8008,-1.8008,-1.8008,-1.7716,-1.7385,-1.695,0.0,0.0,0.0,0.0,0.0,0.0,0.0,0.0,0.0,0.0,0.0,0.0,0.0,0.0,0.0,0.0,0.0,0.0,0.0,0.0,0.0,0.0,0.0,0.0,0.0,0.0,0.0,0.0,0.0,0.0,0.0,0.0,0.0,0.0,0.0,0.0,0.0,0.0,0.0,0.0,0.0,0.0,0.0,0.0,0.0,0.0,0.0,0.0,0.0,0.0,0.0,0.0,0.0,0.0,0.0,0.0,0.0,0.0,0.0,0.0,0.0,0.0,0.0,0.0,0.0,0.0,0.0,0.0,0.0,0.0,0.0,0.0,0.0,0.0,0.0,0.0,0.0,0.0,0.0,0.0,0.0,0.0,0.0,0.0,0.0,0.0,0.0,0.0,0.0,0.0,0.0,0.0,0.0,0.0,0.0,0.0,0.0,0.0,0.0,0.0,0.0,0.0,-1.8305,-1.8525,-1.8525,-1.8525,-1.8525,-1.8525,-1.8525,-1.8009,-1.7461,-1.6938,0.0,0.0,0.0,0.0,0.0,0.0,0.0,0.0,0.0,0.0,0.0,0.0,0.0,0.0,0.0,0.0,0.0,0.0,0.0,0.0,0.0,0.0,0.0,0.0,0.0,0.0,0.0,0.0,0.0,0.0,0.0,0.0,0.0,0.0,0.0,0.0,0.0,0.0,0.0,0.0,0.0,0.0,0.0,0.0,0.0,0.0,0.0,0.0,0.0,0.0,0.0,0.0,0.0,0.0,0.0,0.0,0.0,0.0,0.0,0.0,0.0,0.0,0.0,0.0,0.0,0.0,0.0,0.0,0.0,0.0,0.0,0.0,0.0,0.0,0.0,0.0,0.0,0.0,0.0,0.0,0.0,0.0,0.0,0.0,0.0,0.0,0.0,0.0,0.0,0.0,0.0,0.0,0.0,0.0,0.0,0.0,0.0,0.0,0.0,0.0,0.0,0.0,-1.9058,-1.9287,-1.9287,-1.9287,-1.9287,-1.9287,-1.9204,-1.8406,-1.7587,-1.68,0.0,0.0,0.0,0.0,0.0,0.0,0.0,0.0,0.0,0.0,0.0,0.0,0.0,0.0,0.0,0.0,0.0,0.0,0.0,0.0,0.0,0.0,0.0,0.0,0.0,0.0,0.0,0.0,0.0,0.0,0.0,0.0,0.0,0.0,0.0,0.0,0.0,0.0,0.0,0.0,0.0,0.0,0.0,0.0,0.0,0.0,0.0,0.0,0.0,0.0,0.0,0.0,0.0,0.0,0.0,0.0,0.0,0.0,0.0,0.0,-1.8761,-1.81,0.0,0.0,0.0,0.0,0.0,0.0,0.0,0.0,0.0,0.0,0.0,0.0,0.0,0.0,0.0,0.0,0.0,0.0,0.0,0.0,0.0,0.0,0.0,0.0,0.0,0.0,0.0,0.0,0.0,0.0,0.0,0.0,0.0,0.0,0.0,0.0,0.0,0.0,0.0,0.0,-1.9058,-1.9287,-1.9287,-1.9287,-1.9287,-1.9058,-1.8369,-1.7837,-1.7038,-1.598,-1.564,0.0,0.0,0.0,0.0,0.0,0.0,0.0,0.0,0.0,0.0,0.0,0.0,0.0,0.0,0.0,0.0,0.0,0.0,0.0,0.0,0.0,0.0,0.0,0.0,0.0,0.0,0.0,0.0,0.0,0.0,0.0,0.0,0.0,0.0,0.0,0.0,0.0,0.0,0.0,0.0,0.0,0.0,0.0,0.0,0.0,0.0,0.0,0.0,0.0,0.0,0.0,0.0,0.0,0.0,0.0,0.0,0.0,0.0,0.0,-1.9621,-1.9136,0.0,0.0,0.0,0.0,0.0,0.0,0.0,0.0,0.0,0.0,0.0,0.0,0.0,0.0,0.0,0.0,0.0,0.0,0.0,0.0,0.0,0.0,0.0,0.0,0.0,0.0,0.0,0.0,0.0,0.0,0.0,0.0,0.0,0.0,0.0,0.0,0.0,0.0,0.0,0.0,-1.9051,-1.8898,-1.866,-1.866,-1.866,-1.8497,-1.8027,-1.7437,-1.6836,-1.6174,-1.5636,0.0,0.0,0.0,0.0,0.0,0.0,0.0,0.0,0.0,0.0,0.0,0.0,0.0,0.0,0.0,0.0,0.0,0.0,0.0,0.0,0.0,0.0,0.0,0.0,0.0,0.0,0.0,0.0,0.0,0.0,0.0,0.0,0.0,0.0,0.0,0.0,0.0,0.0,0.0,0.0,0.0,0.0,0.0,0.0,0.0,0.0,0.0,0.0,0.0,0.0,0.0,0.0,0.0,-2.0381,-2.0195,-1.9912,-1.9912,-1.9951,-2.0049,-2.041,-2.0167,-1.9539,-1.9381,0.0,0.0,0.0,0.0,0.0,0.0,0.0,0.0,0.0,0.0,0.0,0.0,0.0,0.0,0.0,0.0,0.0,0.0,0.0,0.0,0.0,0.0,0.0,0.0,-1.4741,-1.4482,-1.5257,0.0,0.0,0.0,0.0,0.0,0.0,0.0,0.0,0.0,0.0,0.0,-1.8895,-1.8487,-1.7997,-1.7997,-1.7997,-1.7917,-1.7755,-1.7107,-1.6617,-1.646,-1.5831,-1.5431,0.0,0.0,0.0,0.0,0.0,0.0,0.0,0.0,0.0,0.0,0.0,0.0,0.0,0.0,0.0,0.0,0.0,0.0,0.0,0.0,0.0,0.0,0.0,0.0,0.0,0.0,0.0,0.0,0.0,0.0,0.0,0.0,-1.637,-1.6542,0.0,0.0,0.0,0.0,0.0,0.0,0.0,0.0,0.0,0.0,0.0,0.0,0.0,-2.0566,-2.0566,-2.0185,-2.0,-2.0,-1.9629,-1.9619,-1.9912,-1.9912,-2.0117,-2.0478,-2.0537,0.0,-2.0401,-1.9618,0.0,0.0,0.0,0.0,0.0,0.0,0.0,0.0,0.0,0.0,0.0,0.0,0.0,0.0,0.0,0.0,0.0,0.0,0.0,0.0,0.0,0.0,-1.5082,-1.5257,-1.5257,-1.5257,0.0,-1.5431,-1.5431,-1.5431,-1.5431,0.0,0.0,0.0,0.0,0.0,0.0,0.0,-1.8078,-1.8078,-1.7997,-1.7997,-1.7997,-1.7674,-1.6944,-1.678,-1.6378,-1.5582,-1.5431,-1.5431,-1.5431,-1.4657,0.0,0.0,0.0,0.0,0.0,0.0,0.0,0.0,0.0,0.0,0.0,0.0,0.0,0.0,0.0,0.0,0.0,0.0,0.0,0.0,0.0,0.0,0.0,0.0,0.0,0.0,0.0,0.0,0.0,-1.6609,-1.7423,-1.7423,-1.8158,-1.8727,0.0,0.0,0.0,0.0,0.0,0.0,0.0,0.0,0.0,-2.0205,-2.0195,-2.0088,-1.9853,-1.9893,-1.9912,-1.9912,-1.9971,-1.9971,-1.9912,-1.9912,-2.0019,-2.0205,-1.9659,-1.9637,-1.9854,-2.001,-1.945,-1.8487,0.0,0.0,0.0,0.0,-1.5431,-1.5431,-1.5257,-1.5257,-1.5257,-1.5166,0.0,0.0,0.0,0.0,0.0,0.0,0.0,0.0,0.0,0.0,-1.5431,-1.5431,-1.5431,-1.5431,-1.5431,-1.5431,-1.5431,0.0,-1.5431,-1.5431,-1.5431,0.0,0.0,0.0,0.0,-1.6304,-1.7188,-1.687,-1.6558,-1.6558,-1.6558,-1.6394,-1.5982,-1.5982,-1.5824,-1.5431,-1.5431,-1.5431,-1.5431,-1.4573,-1.4307,0.0,0.0,0.0,0.0,0.0,0.0,0.0,0.0,0.0,0.0,0.0,0.0,0.0,0.0,0.0,0.0,0.0,0.0,0.0,0.0,0.0,0.0,0.0,0.0,0.0,0.0,0.0,0.0,-1.7423,-1.8078,-1.8327,-1.9134,-1.9618,0.0,0.0,0.0,0.0,0.0,0.0,-2.041,-2.04,-2.0195,-1.9766,-1.9756,-1.9658,-1.9453,-1.9648,-1.9805,-1.9912,-2.0137,-2.0127,-1.9912,-1.9912,-1.982,-1.9698,-1.9075,-1.8861,-1.8975,-1.9441,-1.8957,-1.7997,-1.7521,-1.6714,-1.5748,-1.5506,-1.5431,-1.5431,-1.5431,-1.5431,-1.5431,-1.5431,-1.5431,-1.5257,-1.4657,0.0,0.0,0.0,0.0,-1.5431,-1.5431,-1.5431,-1.5431,-1.5431,-1.5431,-1.5431,-1.5431,-1.5431,-1.5431,0.0,-1.5431,-1.5431,-1.5431,0.0,0.0,-1.6304,-1.5831,-1.5665,-1.6296,-1.5824,-1.5431,-1.5431,-1.5431,-1.5431,-1.5431,-1.5431,-1.5431,-1.5431,-1.5173,-1.5082,-1.5082,-1.3971,-1.3542,-1.3711,0.0,0.0,0.0,0.0,0.0,0.0,0.0,0.0,0.0,0.0,0.0,0.0,0.0,0.0,0.0,0.0,0.0,0.0,0.0,0.0,0.0,0.0,0.0,0.0,0.0,0.0,0.0,0.0,0.0,-1.9143,-2.001,0.0,0.0,0.0,0.0,-2.0566,-2.0566,-2.0381,-1.9971,-1.9951,-1.9756,-1.9336,-1.9316,-1.9502,-1.9883,-1.9512,-1.9521,-1.9912,-1.9531,-1.9551,-1.9912,-1.9912,-1.9678,-1.9353,-1.9265,-1.8789,-1.7997,-1.7188,-1.735,-1.7836,-1.6154,-1.5982,-1.6535,-1.5748,-1.5431,-1.5431,-1.5431,-1.5431,-1.5431,-1.5431,-1.5431,-1.5431,-1.5347,-1.534,0.0,0.0,-1.5431,-1.5431,-1.5431,-1.5431,-1.5431,-1.5431,-1.5431,-1.5431,-1.5431,-1.5431,-1.5431,0.0,-1.5431,-1.5431,-1.5431,0.0,-1.5431,-1.5431,-1.5423,-1.5431,-1.5431,-1.5431,-1.5431,-1.5431,-1.5431,-1.5431,-1.5431,-1.5431,-1.5431,-1.5431,-1.4657,-1.4139,-1.4139,-1.2431,-1.1832,-1.276,-1.0977,0.0,0.0,0.0,0.0,0.0,0.0,0.0,0.0,0.0,0.0,0.0,0.0,0.0,0.0,0.0,0.0,0.0,0.0,0.0,0.0,0.0,0.0,0.0,0.0,0.0,0.0,0.0,0.0,-1.9222,-2.0089,0.0,-2.0566,-2.0566,-2.0449,-2.0166,-2.0146,-1.9961,-1.9531,-1.9512,-1.9316,-1.8887,-1.9141,-1.9228,-1.9092,-1.9775,-2.0185,-2.0342,-2.0762,-2.1035,-2.1182,-2.1182,-2.0766,-1.9989,-1.9392,-1.8641,-1.7714,-1.6869,-1.6775,-1.7107,-1.646,-1.6064,-1.5824,-1.5506,-1.5431,-1.5431,-1.5431,-1.5431,-1.5431,-1.5431,-1.5431,-1.5431,-1.5431,-1.5431,-1.5431,-1.5431,-1.5431,-1.5431,-1.5431,-1.5431,-1.5431,-1.5431,-1.5431,-1.5431,-1.5431,-1.5431,-1.5431,-1.5431,-1.5431,-1.5431,-1.5431,-1.5431,-1.5431,-1.5431,-1.5431,-1.5431,-1.5431,-1.5431,-1.5431,-1.5431,-1.5431,-1.5431,-1.5431,-1.5431,-1.5173,-1.4573,-1.4314,-1.3795,-1.319,-1.2003,-1.1494,-1.1832,-1.0636,-1.012,0.0,0.0,0.0,0.0,0.0,0.0,0.0,0.0,0.0,0.0,0.0,0.0,0.0,0.0,0.0,0.0,0.0,0.0,0.0,0.0,0.0,0.0,0.0,0.0,0.0,-1.7674,-1.8647,-1.9222,-1.9775,-2.0197,-2.0361,-2.0342,-2.0166,-1.9736,-1.9707,-1.958,-1.9307,-1.9287,-1.916,-1.8867,-1.9141,-1.9219,-1.9062,-1.9922,-2.0498,-2.0801,-2.1387,-2.1748,-2.1885,-2.1885,-2.1191,-1.9894,-1.9375,-1.8432,-1.7231,-1.6632,-1.6458,-1.6477,-1.6553,-1.6231,-1.5745,-1.5745,-1.5745,-1.5745,-1.5745,-1.5483,-1.522,-1.522,-1.522,-1.522,-1.522,-1.522,-1.5305,-1.566,-1.5483,-1.5284,-1.5529,-1.5592,-1.557,-1.5452,-1.5431,-1.5431,-1.5431,-1.5431,-1.5431,-1.5431,-1.5431,-1.5431,-1.5431,-1.5431,-1.5431,-1.5431,-1.5431,-1.5431,-1.5431,-1.5431,-1.5431,-1.5431,-1.5431,-1.5257,-1.4999,-1.5257,-1.4908,-1.3704,-1.362,-1.3197,-1.2254,-1.1322,-1.0895,-1.0895,-1.0294,-1.0038,-1.0038,0.0,0.0,0.0,0.0,0.0,0.0,0.0,0.0,0.0,0.0,0.0,0.0,0.0,0.0,0.0,0.0,0.0,0.0,0.0,0.0,0.0,0.0,0.0,-1.6519,-1.6683,-1.7334,-1.9036,-1.9283,-1.944,-1.9895,-1.9932,-1.9756,-1.9336,-1.9307,-1.9297,-1.9287,-1.9287,-1.9287,-1.9287,-1.9297,-1.9502,-1.9912,-1.9941,-2.0381,-2.123,-2.125,-2.1475,-2.1885,-2.1894,-2.0866,-1.905,-1.9059,-1.8032,-1.6396,-1.6396,-1.6226,-1.6056,-1.6293,-1.6367,-1.6367,-1.6367,-1.6367,-1.6367,-1.6367,-1.5637,-1.4731,-1.4731,-1.4731,-1.4731,-1.4731,-1.4731,-1.4999,-1.5999,-1.5548,-1.4939,-1.5648,-1.5842,-1.5762,-1.5449,-1.5376,-1.5369,-1.546,-1.546,-1.546,-1.546,-1.546,-1.5452,-1.5431,-1.5431,-1.5431,-1.5431,-1.5431,0.0,-1.5431,-1.5431,-1.5431,-1.5431,-1.5431,-1.5082,-1.4139,-1.4908,-1.4566,-1.276,-1.2674,-1.2254,-1.1327,-1.0467,-1.0038,-1.0038,-1.0038,-1.0038,-1.0038,0.0,0.0,0.0,0.0,0.0,0.0,0.0,0.0,0.0,0.0,0.0,0.0,0.0,0.0,0.0,0.0,0.0,0.0,0.0,0.0,0.0,-1.4482,-1.4657,-1.5338,-1.5924,-1.6708,-1.7822,-1.8542,-1.9322,-2.0294,-2.0391,-2.0205,-1.9775,-1.9746,-1.9609,-1.9307,-1.9287,-1.9287,-1.9287,-1.958,-1.9795,-1.9912,-2.0557,-2.0996,-2.124,-2.1553,-2.1428,-2.0941,-2.124,-2.0321,-1.8571,-1.875,-1.8055,-1.6807,-1.6807,-1.6714,-1.6472,-1.6378,-1.619,-1.5835,-1.6279,-1.6286,-1.602,-1.5019,-1.4565,-1.4199,-1.3646,-1.3278,-1.3182,-1.3549,-1.3556,-1.3549,-1.4006,-1.3916,-1.3718,-1.3925,-1.3989,-1.4155,-1.4784,-1.4946,-1.521,-1.593,-1.6111,-1.6111,-1.6111,-1.6111,-1.5965,-1.5504,-1.5431,-1.5431,-1.5431,-1.5431,0.0,-1.5431,-1.5431,-1.5431,-1.5431,-1.5431,-1.5082,-1.4139,-1.4314,-1.3626,-1.1832,-1.166,-1.1322,-1.0381,-1.0125,-1.0038,-1.0038,-1.0038,-1.0038,0.0,0.0,0.0,0.0,0.0,0.0,0.0,0.0,0.0,0.0,0.0,0.0,0.0,0.0,0.0,0.0,0.0,0.0,0.0,0.0,0.0,0.0,-1.388,-1.4122,-1.4321,-1.5198,-1.6163,-1.7029,-1.7584,-1.8406,-1.9657,-1.9744,-1.9726,-1.9678,-1.9648,-1.9619,-1.9551,-1.9551,-1.9629,-1.9814,-2.0059,-2.0185,-2.0185,-2.0703,-2.0876,-2.0647,-2.0895,-2.0671,-2.0072,-2.0134,-1.9442,-1.81,-1.8206,-1.7742,-1.6784,-1.6784,-1.669,0.0,0.0,0.0,0.0,0.0,-1.567,-1.5396,-1.4272,-1.3525,-1.306,-1.2587,-1.2395,-1.2301,-1.2774,-1.2774,-1.2774,-1.3519,-1.3432,-1.3124,-1.3389,-1.3543,-1.3604,-1.4038,-1.4186,-1.4372,-1.5006,-1.5095,-1.5095,-1.5095,-1.5095,0.0,-1.4562,-1.4861,-1.5119,-1.5119,-1.475,-1.4412,-1.4412,-1.4304,-1.4307,-1.4307,-1.4307,-1.388,-1.3027,-1.3281,0.0,0.0,0.0,-1.0895,-1.0038,-1.0038,0.0,0.0,0.0,-1.0038,-1.0038,0.0,0.0,0.0,-1.0038,-1.0038,0.0,0.0,0.0,0.0,0.0,0.0,0.0,0.0,0.0,0.0,0.0,0.0,0.0,0.0,0.0,0.0,-1.3281,-1.371,-1.3701,-1.4573,-1.5567,-1.6561,-1.6635,-1.7177,-1.8392,-1.852,-1.869,-1.9158,-1.9203,-1.9442,-1.981,-1.9829,0.0,0.0,0.0,-2.0323,-2.0323,-2.0323,-2.0112,-1.9652,-1.9652,-1.9422,-1.8905,-1.8692,-1.8287,-1.7625,-1.7514,-1.7088,-1.6539,-1.6574,-1.6305,-1.6028,-1.64,-1.6487,-1.6298,-1.5337,-1.4854,-1.4657,-1.3584,0.0,0.0,-1.1755,-1.1658,-1.1658,-1.195,-1.2047,-1.2339,-1.3596,-1.321,-1.2678,-1.3314,-1.3538,-1.3479,-1.325,-1.3191,-1.3282,-1.3374,-1.3374,-1.3374,-1.3374,-1.3374,-1.3374,-1.3374,-1.405,-1.4641,-1.4641,-1.3717,-1.3039,-1.3039,-1.2916,-1.2753,-1.2723,0.0,0.0,-1.1413,-1.2083,-1.1826,-1.012,-1.0727,-1.0809,-1.0038,-1.0038,-1.0038,-1.0038,-1.0038,-1.0038,-1.0038,-1.0038,-1.0038,-1.0038,-1.0038,-1.0038,0.0,0.0,0.0,0.0,0.0,0.0,0.0,0.0,0.0,0.0,0.0,0.0,0.0,0.0,0.0,-1.1408,-1.1752,-1.2328,-1.3807,-1.4189,-1.4878,-1.6141,-1.6269,-1.6757,-1.8028,-1.8134,-1.8179,-1.8259,-1.8897,-1.9334,-1.9409,-1.9418,-1.9455,-1.9539,-1.8886,-1.8479,-1.8479,-1.8479,-1.8353,-1.8091,0.0,0.0,-1.6648,-1.6853,-1.6511,-1.5748,-1.6166,-1.6253,-1.5975,-1.6216,-1.5642,-1.4777,-1.5635,-1.5724,-1.5235,-1.4675,-1.3992,-1.3312,-1.2042,-1.1463,-1.1272,-1.0596,-1.0212,-1.0113,-1.06,-1.0797,0.0,-1.138,-1.1477,-1.1473,-1.1623,-1.1706,-1.1889,-1.2603,-1.2784,-1.307,-1.3921,-1.4117,-1.4117,-1.4117,-1.4117,-1.4117,-1.4117,-1.3847,-1.3556,-1.3556,-1.3423,-1.3213,-1.3213,-1.3165,-1.3147,-1.2943,-1.2919,-1.2487,-1.1424,-1.1494,-1.1149,-1.0038,-1.0125,-1.0212,-1.0038,-1.0038,-1.0038,-1.0038,-1.0038,-1.0038,-1.0038,-1.0038,-1.0038,-1.0038,-1.0038,-1.0038,0.0,0.0,0.0,0.0,0.0,0.0,0.0,0.0,0.0,0.0,0.0,-0.7724,-0.8317,0.0,-0.9301,-0.9887,-1.0381,-1.1039,-1.1946,-1.2652,-1.3738,-1.5561,-1.5812,-1.6191,-1.7245,-1.735,-1.7513,-1.7997,-1.8399,-1.8647,-1.8647,-1.8647,-1.8647,-1.8647,-1.8158,-1.7827,-1.7827,-1.7747,-1.7342,-1.6846,-1.6846,-1.6281,-1.5311,-1.5387,-1.5305,-1.5064,-1.4874,-1.4773,-1.475,-1.4551,-1.4088,-1.3511,-1.4088,-1.4082,-1.3788,-1.3022,-1.2533,-1.195,-1.0788,-1.04,-1.0301,-0.992,-0.9727,-0.9628,-1.0117,-1.0216,-1.0216,-1.0511,-1.0801,-1.0998,-1.0998,-1.11,-1.1292,-1.1868,-1.1965,-1.2058,-1.2635,-1.2732,-1.2732,-1.2732,-1.2732,-1.2732,-1.2732,-1.2437,-1.2371,-1.2935,-1.2461,-1.2112,-1.2112,-1.2005,-1.1887,-1.1775,-1.1764,-1.1536,-1.098,-1.0873,-1.0587,-1.0043,-1.0038,-1.0038,-1.0038,-1.0038,-1.0038,-1.0038,-1.0038,-1.0038,-1.0038,-1.006,-1.0112,-1.0116,-1.0216,-1.0149,0.0,0.0,0.0,0.0,0.0,0.0,0.0,-0.3722,-0.4543,-0.4871,-0.5961,-0.6973,-0.7304,-0.791,-0.8431,-0.8682,-0.9318,-0.9872,-1.0034,-1.1013,-1.2459,-1.4448,-1.4928,-1.5492,-1.6378,-1.646,-1.6706,-1.744,-1.7594,-1.7683,-1.7683,-1.7674,-1.7585,-1.7585,-1.7253,-1.709,-1.709,-1.6927,-1.6445,-1.5711,-1.5711,-1.522,-1.4314,-1.4139,-1.411,-1.4189,-1.3434,-1.3256,-1.3514,-1.2726,-1.2436,-1.2436,-1.215,-1.215,-1.2052,-1.1463,-1.1077,-1.0788,-0.992,-0.9628,-0.9628,-0.9628,-0.9628,-0.9628,-0.9826,-0.992,-1.0019,-1.0216,-1.0511,-1.0703,-1.0703,-1.09,-1.1096,-1.1096,-1.1194,-1.1194,-1.1194,-1.1194,-1.1194,-1.1194,-1.1194,-1.1194,-1.1194,-1.1194,-1.1482,-1.2252,-1.153,-1.0953,-1.0953,-1.0801,-1.0679,-1.0641,-1.0636,-1.0617,-1.0575,-1.0428,-1.0258,-1.0171,-1.0162,-1.0162,-1.0162,-1.0162,-1.0162,-1.0162,-0.9981,-0.9981,-1.0162,-1.0159,-1.0243,-1.0338,-1.0499,-1.0395,0.2516,0.1259,0.0315,0.0315,-0.0316,-0.1029,0.0,-0.1895,-0.2367,-0.3702,-0.4168,-0.4955,-0.6652,-0.7167,-0.7593,-0.8513,-0.8764,-0.9159,-0.9953,-1.0217,-1.073,-1.1808,-1.3315,-1.4566,-1.5423,-1.559,-1.559,-1.5673,-1.6229,-1.655,-1.655,-1.6378,-1.6198,-1.6198,-1.547,-1.5061,-1.5061,-1.4977,-1.481,-1.4559,-1.4559,-1.3971,-1.2954,-1.2875,-1.246,-1.1732,-1.2002,-1.2335,-1.2576,-1.1763,-1.1365,-1.1268,-1.0306,-0.992,-1.0015,-1.0886,-1.0596,-0.9723,-0.9628,-0.9628,-0.9628,-0.9628,-0.9628,-0.9628,-0.9628,-0.9826,-1.0019,-1.0019,-1.0216,-1.0413,-1.0413,-1.0609,-1.0801,-1.0801,-1.0998,-1.1194,-1.1194,-1.1194,-1.1194,-1.1194,-1.1194,-1.1194,-1.1194,-1.1194,-1.1194,-1.1389,-1.1272,-1.1161,-1.1161,-1.1142,-1.1057,-1.0877,-1.0858,-1.0783,-1.0589,-1.0551,-1.0527,-1.0504,-1.0504,-1.0504,-1.0504,-1.0504,-1.0504,-1.0504,-0.9859,-0.9859,-1.0504,-0.9886,-0.9895,-1.0542,-1.0565,-1.0546,0.3517,0.2968,0.2344,0.18,0.1175,0.047,-0.0314,-0.0785,-0.1333,-0.2349,-0.2918,-0.3651,-0.4912,-0.551,-0.6185,-0.7066,-0.7224,-0.7537,-0.8479,-0.882,-0.9293,-1.0243,-1.1314,-1.2541,-1.389,-1.4475,-1.4799,-1.4985,-1.5235,-1.5401,-1.5401,-1.5311,-1.522,-1.522,-1.481,-1.4566,-1.4566,-1.3886,-1.3464,-1.3379,-1.2863,-1.2351,-1.1929,-1.1929,-1.1484,-1.0656,-1.0835,-1.0833,-1.0682,-1.0294,-1.0201,-1.0207,-0.9821,-0.9628,-0.9624,-1.0109,-1.0015,-0.9628,-0.9628,-0.9628,-0.9628,-0.9628,-0.9628,-0.9628,-0.9628,-0.9727,-0.9727,-0.9727,-0.992,-1.0216,-1.0216,-1.0413,-1.0609,-1.0609,-1.0609,-1.0806,-1.09,-1.0998,-1.0998,-1.1194,-1.1194,-1.1194,-1.1194,-1.1194,-1.1194,-1.1194,-1.1194,-1.1194,-1.1194,-1.1194,-1.1161,-1.1075,-1.1071,-1.0986,-1.0778,-1.0764,-1.0707,-1.0579,-1.0575,-1.0389,-0.9926,-0.9926,-0.9643,-0.9173,-0.8893,-0.8897,-0.9173,-0.8997,-0.9041,-0.942,-0.9531,-0.9778,0.4916,0.4683,0.4295,0.3366,0.266,0.1955,0.0862,0.0314,-0.0314,-0.1411,-0.2036,-0.2738,-0.3597,-0.43,-0.4924,-0.5777,-0.6086,-0.6398,-0.7019,-0.7594,-0.8147,-0.8843,-0.9555,-1.0547,-1.1928,-1.306,-1.3738,-1.3944,-1.4132,-1.4132,-1.3873,-1.4055,-1.4055,-1.3795,-1.3626,-1.3542,-1.3542,-1.2693,-1.2272,-1.2272,-1.1585,-1.1154,-1.0895,-1.0636,-1.0285,-0.9723,-0.9777,-0.9601,-0.9214,-0.9315,-0.9433,-0.9559,-0.9608,-0.9628,-0.9628,-0.9628,-0.9628,-0.9628,-0.9628,-0.9628,-0.9628,-0.9628,-0.9628,-0.9628,-0.9628,-0.9628,-0.9628,-0.9628,-0.9727,-0.992,-0.992,-1.0117,-1.0314,-1.0314,-1.0314,-1.0413,-1.0609,-1.0708,-1.0703,-1.09,-1.1002,-1.0998,-1.1096,-1.0998,-1.0998,-1.1096,-1.0998,-1.0998,-1.1194,-1.1194,-1.1194,-1.1194,-1.1194,-1.1039,-1.0702,-1.0688,-1.0528,-1.009,-1.0081,-0.9798,-0.9234,-0.9234,-0.8946,-0.8376,-0.8182,-0.8182,-0.8376,-0.8293,-0.8348,-0.8545,-0.8769,-0.9122,0.7633,0.6773,0.5918,0.5154,0.43,0.3361,0.1876,0.1563,0.0938,-0.1175,-0.1646,-0.2115,-0.3519,-0.383,-0.4064,-0.4924,-0.5699,-0.624,-0.624,-0.6942,-0.7569,-0.7569,-0.8425,-0.9175,-0.9457,-1.102,-1.2066,-1.2072,-1.2674,-1.2674,-1.1821,-1.2437,-1.2357,-1.1408,-1.1408,-1.1408,-1.1408,-1.1322,-1.1327,-1.1327,-1.1327,-1.0809,-0.9946,-0.9087,-0.8656,-0.8673,-0.8747,-0.8824,-0.8865,-0.921,-0.936,-0.938,-0.9559,-0.9628,-0.9628,-0.9628,-0.9628,-0.9628,-0.9628,-0.9628,-0.9628,-0.9628,-0.9628,-0.9628,-0.9628,-0.9628,-0.9628,-0.9628,-0.9628,-0.9628,-0.9628,-0.9826,-1.0019,-1.0019,-1.0216,-1.0413,-1.0413,-1.0413,-1.0413,-1.0408,-1.0408,-1.0507,-1.0806,-1.0609,-1.0507,-1.0806,-1.0605,-1.0609,-1.1096,-1.1194,-1.1194,-1.1194,-1.1194,-1.09,-1.0109,-1.001,-0.971,-0.8909,-0.881,-0.881,-0.881,-0.881,-0.881,-0.881,-0.8014,-0.8014,-0.881,-0.8018,-0.8021,-0.8817,-0.8821,-0.8825,0.8399,0.8084,0.7536,0.6153,0.561,0.4988,0.3437,0.3047,0.2578,0.086,0.0547,-0.0078,-0.1956,-0.2348,-0.2738,-0.3986,-0.4844,-0.5622,-0.6163,-0.6938,-0.7484,-0.7484,-0.7956,-0.8298,-0.8483,-1.0143,-1.1319,-1.1563,-1.1746,-1.1746,-1.1488,-1.1666,-1.1671,-1.1327,-1.1327,-1.1327,-1.1327,-1.0722,-1.0376,-1.0376,-0.9777,-0.9345,-0.8999,-0.874,-0.8568,-0.8572,-0.8629,-0.8718,-0.8828,-0.895,-0.9072,-0.9202,-0.9376,-0.9445,-0.9462,-0.9583,-0.9628,-0.9628,-0.9628,-0.9628,-0.9628,-0.9628,-0.9628,-0.9628,-0.9628,-0.9628,-0.9628,-0.9628,-0.9628,-0.9628,-0.9628,-0.9628,-0.9727,-0.9727,-0.9826,-0.992,-1.0117,-0.9616,-0.911,-0.9308,-0.881,-0.8315,-0.8414,-0.8315,-0.8315,-0.8414,-0.9513,-1.0212,-0.9702,-0.96,-0.9304,-0.8612,-0.851,-0.8414,-0.812,-0.812,-0.8219,-0.8223,-0.8223,-0.8226,-0.8028,-0.8028,-0.773,-0.7232,-0.6933,-0.6933,-0.7232,-0.6933,-0.6933,-0.7232,-0.7232,-0.7531,0.9744,0.9593,0.914,0.7532,0.7073,0.6689,0.5068,0.4681,0.4144,0.2448,0.1808,0.1097,-0.0475,-0.1182,-0.188,-0.2895,-0.391,-0.4766,-0.5309,-0.6083,-0.6707,-0.7019,-0.725,-0.7504,-0.7996,-0.9178,-1.0059,-1.0361,-1.0636,-1.0636,-1.0381,-1.0636,-1.0636,-1.0381,-1.0381,-1.0381,-1.0381,-0.9777,-0.9428,-0.9432,-0.8828,-0.8568,-0.8568,-0.8208,-0.8032,-0.8032,-0.7676,-0.7642,-0.7735,-0.7789,-0.7872,-0.7984,-0.8142,-0.8299,-0.831,-0.8319,-0.8394,-0.8452,-0.8905,-0.9023,-0.8924,-0.8623,-0.8421,-0.8421,-0.8421,-0.8421,-0.8421,-0.8421,-0.8421,-0.8421,-0.8421,-0.8421,-0.8421,-0.8421,-0.8421,-0.852,-0.8718,-0.8216,-0.7717,-0.7912,-0.7419,-0.6921,-0.7018,-0.7021,-0.7021,-0.6921,-0.8117,-0.8814,-0.8312,-0.8212,-0.7915,-0.7322,-0.7223,-0.7123,-0.7024,-0.7027,-0.7126,-0.7428,-0.7428,-0.7329,-0.7132,-0.7132,-0.6933,-0.6437,-0.6437,-0.6437,-0.6437,-0.6437,-0.6437,-0.6437,-0.6437,-0.6634,1.1675,1.123,1.0858,0.9226,0.8851,0.8385,0.6689,0.6307,0.5649,0.362,0.2466,0.1579,0.0969,-0.0398,-0.1492,-0.157,-0.282,-0.3752,-0.383,-0.4455,-0.5312,-0.6009,-0.6291,-0.6841,-0.7816,-0.8074,-0.8341,-0.8524,-0.9331,-0.9515,-0.8656,-0.9345,-0.9428,-0.8656,-0.8568,-0.8568,-0.8568,-0.8568,-0.8568,-0.8568,-0.8568,-0.8568,-0.8564,-0.7584,-0.7139,-0.7051,-0.6163,-0.5719,-0.5727,-0.5927,-0.5974,-0.5985,-0.6109,-0.6158,-0.6158,-0.6164,-0.6241,-0.6457,-0.7458,-0.7908,-0.7723,-0.6722,-0.6423,-0.6423,-0.6423,-0.6423,-0.6423,-0.6423,-0.6423,-0.6423,-0.6423,-0.6423,-0.6423,-0.6423,-0.6423,-0.6423,-0.6423,-0.6323,-0.6323,-0.6323,-0.6323,-0.6323,-0.6617,-0.6617,-0.6517,-0.6323,-0.6224,-0.6423,-0.7024,-0.7123,-0.7123,-0.7021,-0.7024,-0.6924,-0.6731,-0.6731,-0.6631,-0.6337,-0.6337,-0.6337,-0.6437,-0.6437,-0.6437,-0.6437,-0.6437,-0.6437,-0.6437,-0.6437,-0.6437,-0.6437,-0.6437,-0.6437,1.3011,1.2865,1.2492,1.0858,1.0484,1.004,0.8456,0.7647,0.6961,0.5799,0.4971,0.3872,0.1908,0.1223,0.0402,-0.1287,-0.2376,-0.3207,-0.3752,-0.4455,-0.5082,-0.5312,-0.5344,-0.5808,-0.6753,-0.6887,-0.7304,-0.8058,-0.8664,-0.8828,-0.8656,-0.8828,-0.8828,-0.8568,-0.8568,-0.8568,-0.8568,-0.8568,-0.8568,-0.8568,-0.8568,-0.8568,-0.8568,-0.83,-0.7764,-0.7051,-0.6874,-0.634,-0.5722,-0.5752,-0.5763,-0.5776,-0.5985,-0.6029,-0.604,-0.6134,-0.6189,-0.6124,-0.5674,-0.6081,-0.6722,-0.6523,-0.6423,-0.6423,-0.6423,-0.6423,-0.6423,-0.6423,-0.6423,-0.6423,-0.6423,-0.6423,-0.6423,-0.6423,-0.6423,-0.6423,-0.6423,-0.5729,-0.5231,-0.5231,-0.4531,-0.4031,-0.413,-0.413,-0.413,-0.4031,-0.4031,-0.4331,-0.5331,-0.5732,-0.5732,-0.4931,-0.5131,-0.5432,-0.5334,-0.5334,-0.5434,-0.5737,-0.5834,-0.5934,-0.6337,-0.6437,-0.6437,-0.6437,-0.6437,-0.6437,-0.6437,-0.6437,-0.6437,-0.6437,-0.6437,-0.6437,1.3608,1.3244,1.2732,1.1835,1.1391,1.083,0.9658,0.9077,0.8573,0.7442,0.6582,0.5532,0.3815,0.2566,0.1377,0.0162,-0.1272,-0.2427,-0.2817,-0.3443,-0.4068,-0.4455,-0.4768,-0.5364,-0.6378,-0.6471,-0.6936,-0.7918,-0.8207,-0.8325,-0.8325,-0.8325,-0.8325,-0.8325,-0.8402,-0.8483,-0.8568,-0.8568,-0.8568,-0.8568,-0.812,-0.7944,-0.794,-0.7054,-0.6428,-0.5808,0.0,-0.4921,-0.4478,-0.4478,-0.4478,-0.4482,-0.4621,-0.4643,-0.465,-0.4704,-0.4749,-0.4691,-0.413,-0.4403,-0.4912,-0.4952,-0.4995,-0.5029,-0.5029,-0.5029,-0.5029,-0.5029,-0.5029,-0.5029,-0.5029,-0.5029,-0.5029,-0.5029,-0.5029,-0.5029,-0.5029,-0.4531,-0.4133,-0.4133,-0.3632,-0.323,-0.323,-0.323,-0.323,-0.323,-0.323,-0.343,-0.4033,-0.4332,-0.4334,-0.3732,-0.3932,-0.4234,-0.4435,-0.4433,-0.4734,-0.5536,-0.5636,-0.5837,-0.6337,-0.6437,-0.6437,-0.6437,-0.6437,-0.6437,-0.6437,-0.6437,-0.6437,-0.6437,-0.6437,-0.6437,1.369,1.3006,1.2458,1.2318,1.1755,1.1097,1.0561,1.0223,0.978,0.8599,0.7454,0.6493,0.5701,0.3641,0.2016,0.1775,-0.0079,-0.1489,-0.1568,-0.2117,-0.2744,-0.3521,-0.4224,-0.5042,-0.6029,-0.6122,-0.6572,-0.7519,-0.7613,-0.7714,-0.8012,-0.8012,-0.8012,-0.8012,-0.8082,-0.8243,-0.8491,-0.8317,-0.8229,-0.8317,-0.7365,-0.6933,-0.6845,-0.5179,-0.4387,-0.43,-0.3409,-0.3053,-0.2875,-0.2875,-0.2875,-0.2875,-0.2875,-0.2875,-0.2875,-0.2875,-0.2905,-0.2947,-0.2947,-0.2986,-0.3048,-0.3117,-0.3176,-0.3219,-0.3228,-0.323,-0.323,-0.323,-0.323,-0.323,-0.323,-0.323,-0.323,-0.323,-0.323,-0.323,-0.323,-0.323,-0.323,-0.323,-0.323,-0.323,-0.323,-0.323,-0.323,-0.323,-0.323,-0.323,-0.323,-0.323,-0.3331,-0.3331,-0.3331,-0.3632,-0.4033,-0.4133,-0.4533,-0.5436,-0.5534,-0.5737,-0.6137,-0.6237,-0.6237,-0.6237,-0.6237,-0.6237,-0.6237,-0.6337,-0.6334,-0.6337,-0.6337,-0.6437,1.3707,1.3707,1.3497,1.2294,1.2052,1.1868,1.1166,0.997,0.8928,0.869,0.7438,0.61,0.5167,0.4112,0.299,0.1655,0.0236,-0.0942,-0.1489,-0.2117,-0.2588,-0.2744,-0.2823,-0.3294,-0.4166,-0.4245,-0.4646,-0.5454,-0.5535,-0.6265,-0.7914,-0.8012,-0.8012,-0.8012,-0.7379,-0.7409,-0.8109,-0.6766,-0.6431,-0.7104,-0.6291,-0.5829,-0.5835,-0.5585,-0.501,-0.43,-0.4121,0.0,-0.2875,-0.2875,-0.2875,-0.2875,-0.2875,-0.2875,-0.2875,-0.2875,-0.288,-0.2888,-0.2888,-0.2926,-0.2992,-0.3104,-0.3146,-0.3165,-0.3215,-0.323,-0.323,-0.323,-0.323,-0.323,-0.323,-0.323,-0.323,-0.323,-0.323,-0.323,-0.323,-0.323,-0.323,-0.323,-0.323,-0.323,-0.323,-0.323,-0.323,-0.323,-0.323,-0.323,-0.323,-0.3632,-0.3833,-0.3833,-0.4234,-0.4533,-0.4634,-0.4634,-0.4734,-0.4935,-0.4935,-0.4935,-0.5035,-0.5035,-0.5035,-0.5035,-0.5534,-0.5536,-0.5035,-0.5934,-0.6137,-0.5734,-0.6237,-0.6437,1.3109,1.3089,1.3005,1.2386,1.2011,1.1592,1.1022,1.0319,0.9537,0.8827,0.8093,0.7173,0.586,0.4563,0.3544,0.2733,0.0775,-0.0774,-0.1018,-0.1883,-0.2511,-0.2511,-0.2899,-0.3365,-0.3752,-0.383,-0.4144,-0.4927,-0.4611,-0.4969,-0.6368,-0.6853,-0.7133,-0.7226,-0.7307,-0.7349,-0.7349,-0.6602,-0.6188,-0.6105,-0.5247,-0.4852,-0.477,-0.4308,-0.39,-0.3471,-0.351,-0.3265,-0.283,-0.2861,-0.2875,-0.2875,-0.2875,-0.2875,-0.2875,-0.2875,-0.2875,-0.2875,-0.2875,-0.2891,-0.2929,-0.3016,-0.3087,-0.3144,-0.3174,-0.3206,-0.323,-0.323,-0.323,-0.323,-0.323,-0.323,-0.323,-0.323,-0.323,-0.323,-0.323,-0.323,-0.323,-0.323,-0.323,-0.323,-0.323,-0.323,-0.323,-0.323,-0.323,-0.323,-0.323,-0.343,-0.3632,-0.3632,-0.3831,-0.3932,-0.3932,-0.3932,-0.4133,-0.4332,-0.4433,-0.4535,-0.4834,-0.4834,-0.4834,-0.4834,-0.5035,-0.5035,-0.4834,-0.5336,-0.5436,-0.5236,-0.5436,-0.5534,1.2284,1.2136,1.2059,1.2119,1.1635,1.0994,1.0657,1.0444,0.9956,0.8758,0.8314,0.7768,0.6364,0.4718,0.3657,0.3654,0.1366,-0.0534,-0.0622,-0.1564,-0.2353,-0.251,-0.3132,-0.3521,-0.3521,-0.3521,-0.3754,-0.438,-0.391,-0.3988,-0.4927,-0.5622,-0.5986,-0.6179,-0.6662,-0.6798,-0.6427,-0.6097,-0.5606,-0.5115,-0.4235,-0.3748,-0.375,-0.302,-0.2692,-0.2695,-0.2743,-0.2763,-0.2768,-0.283,-0.2854,-0.2856,-0.2869,-0.2875,-0.2875,-0.2875,-0.2875,-0.2875,-0.2875,-0.2875,-0.2882,-0.2926,-0.3014,-0.3105,-0.3132,-0.3173,-0.3214,-0.3228,-0.323,-0.323,-0.323,-0.323,-0.323,-0.323,-0.323,-0.323,-0.323,-0.323,-0.323,-0.323,-0.323,-0.323,-0.323,-0.323,-0.323,-0.323,-0.323,-0.323,-0.323,-0.323,-0.323,-0.323,-0.323,-0.323,-0.323,-0.323,-0.3331,-0.3831,-0.3831,-0.4033,-0.4435,-0.4433,-0.4433,-0.4433,-0.4533,-0.4533,-0.4433,-0.4734,-0.4734,-0.4634,-0.4734,-0.4834,1.1416,1.1318,1.1022,1.1022,1.075,1.0402,1.0363,0.9685,0.8842,0.8044,0.722,0.6368,0.5645,0.4296,0.3309,0.3319,0.1616,-0.0,-0.0608,-0.1238,-0.1882,-0.2431,-0.2588,-0.2588,-0.2588,-0.2588,-0.2666,-0.2744,-0.2666,-0.329,-0.4927,-0.5082,-0.5085,-0.5176,-0.447,-0.4474,-0.519,-0.3624,-0.3231,-0.3936,-0.3144,-0.2772,-0.2773,-0.2749,-0.2692,-0.2692,-0.2698,-0.27,0.0,-0.2766,-0.2792,-0.2797,-0.2853,-0.2875,-0.2875,-0.2875,-0.2875,-0.2875,-0.2875,-0.2875,-0.2875,-0.288,-0.2924,-0.2995,-0.3106,-0.3143,-0.3159,-0.3215,-0.323,-0.323,-0.323,-0.323,-0.323,-0.323,-0.323,-0.323,-0.323,-0.323,-0.323,-0.323,-0.323,-0.323,-0.323,-0.323,-0.323,-0.323,-0.323,-0.323,-0.323,-0.323,-0.323,-0.323,-0.323,-0.323,-0.323,-0.323,-0.323,-0.323,-0.323,-0.3331,-0.3331,-0.3331,-0.3331,-0.3331,-0.3831,-0.3831,-0.3331,-0.4334,-0.4533,-0.4133,-0.4533,-0.4834,1.085,1.1059,1.1149,1.0779,1.0549,1.0312,0.9922,0.9234,0.8427,0.7707,0.6911,0.6071,0.4954,0.3922,0.3082,0.2719,0.1281,-0.0,-0.0603,-0.1221,-0.1853,-0.2427,-0.2511,-0.2511,-0.2511,-0.2511,-0.2511,-0.2511,-0.2978,-0.3366,-0.3524,-0.3988,-0.43,-0.43,-0.4455,-0.4455,-0.43,-0.3599,-0.321,-0.2978,-0.2692,-0.2546,-0.2548,-0.2572,-0.2583,-0.2585,-0.2621,-0.2638,0.0,-0.2703,-0.2729,-0.2734,-0.2796,-0.2819,-0.2824,-0.2861,-0.2875,-0.2875,-0.2875,-0.2875,-0.2875,-0.2875,-0.289,-0.2922,-0.3006,-0.3082,-0.3144,-0.3169,-0.3203,-0.323,-0.323,-0.323,-0.323,-0.323,-0.323,-0.323,-0.323,-0.323,-0.323,-0.323,-0.323,-0.323,-0.323,-0.323,-0.323,-0.323,-0.323,-0.323,-0.323,-0.323,-0.323,-0.323,-0.323,-0.323,-0.323,-0.323,-0.323,-0.323,-0.323,-0.323,-0.323,-0.323,-0.323,-0.323,-0.343,-0.3127,-0.2522,-0.2924,-0.272,-0.2116,-0.2317,-0.2417,1.0378,1.0724,1.0843,1.0541,1.0225,0.9779,0.9344,0.8689,0.7967,0.7251,0.6527,0.5734,0.455,0.3551,0.2698,0.0,0.0,-0.0071,-0.0819,-0.1506,-0.2137,-0.2813,-0.3134,-0.3212,-0.3212,-0.3212,-0.3134,-0.2899,-0.3443,-0.3443,-0.251,-0.3054,-0.3443,-0.3443,-0.399,-0.399,-0.3443,-0.3443,-0.3132,-0.2511,-0.2511,-0.2511,-0.2511,-0.2511,-0.2511,-0.2512,-0.2556,-0.2575,0.0,-0.264,-0.2666,-0.2672,-0.2733,-0.2767,-0.2788,-0.2831,-0.2858,-0.2875,-0.2875,-0.2875,-0.2875,-0.2875,-0.2875,-0.2882,-0.2921,-0.3004,-0.3094,-0.3129,-0.3184,-0.323,-0.323,-0.323,-0.323,-0.323,-0.3027,-0.2826,-0.2826,-0.2623,-0.2522,-0.2522,-0.2522,-0.2522,-0.2826,-0.2826,-0.2927,-0.313,-0.323,-0.313,-0.2826,-0.2826,-0.2725,-0.2522,-0.2522,-0.2724,-0.313,-0.3027,-0.2826,-0.2826,-0.2623,-0.2522,-0.2522,-0.2522,-0.2522,-0.2522,-0.2522,-0.2219,-0.1613,-0.1613,-0.131,-0.0806,-0.0806,-0.0806,1.0174,1.0047,0.967,1.0364,0.9518,0.849,0.849,0.7972,0.719,0.6531,0.5793,0.513,0.4417,0.3082,0.1945,0.1408,0.0756,-0.0141,-0.1308,-0.2156,-0.2968,-0.3665,-0.4455,-0.5002,-0.5002,-0.5002,-0.4613,-0.383,-0.383,-0.3443,-0.251,-0.2511,-0.2511,-0.2511,-0.2511,-0.2511,-0.2511,-0.2511,-0.2511,-0.2511,-0.2511,-0.2511,-0.2511,-0.2511,-0.2511,-0.2511,-0.2511,-0.2511,0.0,-0.2576,-0.2602,-0.2608,-0.2669,-0.273,-0.2783,-0.2783,-0.2823,-0.2875,-0.2875,-0.2875,-0.2875,-0.2875,-0.2875,-0.2875,-0.2875,-0.2914,-0.2985,-0.3105,-0.3184,-0.323,-0.323,-0.323,-0.323,-0.323,-0.2623,-0.2017,-0.2017,-0.1412,-0.0806,-0.0806,-0.0806,-0.1109,-0.1916,-0.2017,-0.232,-0.313,-0.323,-0.2927,-0.2118,-0.2017,-0.1714,-0.0907,-0.0806,-0.1513,-0.3029,-0.2422,-0.2017,-0.2017,-0.131,-0.0806,-0.0806,-0.0806,-0.0806,-0.0806,-0.0806,-0.0806,-0.0806,-0.0806,-0.0806,-0.0806,-0.0806,-0.0806,0.8283,0.8231,0.8102,0.8355,0.8032,0.7777,0.7777,0.7186,0.6527,0.5793,0.5071,0.4212,0.3015,0.2144,0.1341,0.0738,0.0135,-0.0761,-0.2168,-0.2633,-0.3209,-0.4433,-0.4846,-0.5004,-0.5004,-0.5467,-0.5467,-0.4688,-0.4613,-0.4222,-0.3443,-0.2821,-0.2511,-0.2511,-0.2511,-0.2511,-0.2511,-0.2511,-0.2511,-0.2511,-0.2511,-0.2511,-0.2511,-0.2511,-0.2511,-0.2511,-0.2511,-0.2511,-0.2512,-0.2531,-0.254,-0.2545,-0.2606,-0.2642,-0.2665,-0.2706,-0.2759,-0.2812,-0.2812,-0.2839,-0.2875,-0.2875,-0.2603,-0.2154,-0.2154,-0.2548,-0.2984,-0.3105,-0.3154,-0.3179,-0.3219,-0.323,-0.323,-0.323,-0.2623,-0.2017,-0.2017,-0.1411,-0.0806,-0.0806,-0.0806,-0.0907,-0.1109,-0.121,-0.131,-0.1513,-0.1513,-0.1513,-0.121,-0.121,-0.1109,-0.0806,-0.0806,-0.1008,-0.1513,-0.131,-0.121,-0.121,-0.0907,-0.0806,-0.0806,-0.0806,-0.0806,-0.0806,-0.0806,-0.0504,-0.0,-0.0,0.0303,0.0808,0.0808,0.0808,0.6836,0.7051,0.7051,0.7051,0.6785,0.6523,0.6256,0.5665,0.5071,0.4602,0.3944,0.3149,0.2011,0.1341,0.0537,-0.0537,-0.1007,-0.1704,-0.3201,-0.375,-0.4433,-0.5819,-0.6237,-0.6314,-0.6009,-0.6395,-0.6318,-0.5544,-0.5157,-0.4613,-0.383,-0.2978,-0.2511,-0.2511,-0.2511,-0.2511,-0.2511,-0.2511,-0.2511,-0.2511,-0.2511,-0.2511,-0.2511,-0.2511,-0.2511,-0.2511,-0.2511,-0.2511,0.0,-0.2511,-0.2353,-0.2199,-0.2232,-0.2096,-0.1872,-0.1899,-0.2021,-0.2063,-0.208,-0.2105,-0.2131,-0.2058,-0.1794,-0.1346,-0.1346,-0.1729,-0.2138,-0.2192,-0.2231,-0.2261,-0.2288,-0.2308,-0.232,-0.232,-0.1715,-0.111,-0.111,-0.0504,0.0101,0.0101,0.0101,-0.0,-0.0303,-0.0303,-0.0403,-0.0706,-0.0806,-0.0706,-0.0403,-0.0303,-0.0202,0.0101,0.0101,0.0101,0.0101,-0.0202,-0.0303,-0.0303,-0.0101,0.0101,0.0101,0.0101,0.0101,0.0101,0.0101,0.0303,0.0808,0.0808,0.1111,0.1617,0.1617,0.1617,0.0,0.6048,0.6179,0.6179,0.5654,0.4995,0.4339,0.368,0.0,0.3082,0.2547,0.1878,0.1206,0.0537,-0.047,-0.2214,-0.2484,-0.298,-0.4312,-0.5432,-0.6511,-0.7516,-0.8241,-0.8394,-0.7633,-0.7561,-0.7173,-0.6318,-0.5544,-0.4768,-0.3908,-0.3056,-0.2588,-0.2511,-0.2511,-0.2511,-0.2511,-0.2511,-0.2511,-0.2511,-0.2511,-0.2511,-0.2511,-0.2511,-0.2511,0.0,-0.2511,-0.251,0.0,-0.2431,-0.2117,-0.1568,-0.1568,-0.1192,-0.0729,-0.0729,-0.074,-0.0757,-0.0772,-0.078,-0.0784,-0.0623,-0.0628,-0.0628,-0.0538,-0.0636,-0.0831,-0.0832,-0.0855,-0.0879,-0.0881,-0.0893,-0.0805,-0.0806,-0.0202,0.0404,0.0404,0.101,0.1617,0.1617,0.1617,0.1314,0.0606,0.0505,0.0202,-0.0504,-0.0605,-0.0403,0.0404,0.0505,0.0808,0.1516,0.1617,0.1617,0.1617,0.0909,0.0505,0.0505,0.1212,0.1617,0.1617,0.1617,0.1617,0.1617,0.1617,0.1617,0.1617,0.1617,0.1617,0.1617,0.1617,0.1617,0.1605,0.0,0.3944,0.3944,0.3811,0.3678,0.0,0.3349,0.2947,0.1942,0.1608,0.1005,-0.0603,-0.1408,-0.2078,-0.3078,-0.3616,-0.4193,-0.5205,-0.6726,-0.818,-0.9185,-0.8998,-0.8627,-0.8475,-0.7863,-0.7403,-0.7249,-0.6395,-0.5544,-0.4768,-0.391,-0.321,-0.2511,-0.2511,-0.2511,-0.2511,-0.2511,-0.2511,-0.2511,-0.2511,-0.2511,-0.2511,-0.2511,-0.2511,-0.2511,-0.2511,-0.2275,-0.1803,-0.1803,-0.1412,-0.0864,-0.0864,-0.0788,-0.0633,-0.0633,-0.0642,-0.0737,-0.0741,-0.076,-0.0697,-0.0089,0.0179,0.0269,0.0718,0.018,-0.0725,-0.0829,-0.0838,-0.085,-0.0875,-0.0885,-0.0891,-0.0804,-0.0202,0.0404,0.0404,0.101,0.1617,0.1617,0.1617,0.1516,0.1314,0.1314,0.1212,0.1111,0.101,0.1111,0.1313,0.1314,0.1415,0.1617,0.1617,0.1617,0.1617,0.1415,0.1314,0.1314,0.1516,0.1617,0.1617,0.1617,0.1617,0.1617,0.1617,0.1617,0.1617,0.1617,0.1617,0.1617,0.1617,0.1617,-0.0603,0.0736,0.1941,0.1941,0.1941,0.1874,0.1541,0.1474,0.134,0.0604,0.0201,-0.0402,-0.1743,-0.2479,-0.3211,-0.4209,-0.4613,-0.5286,-0.6618,-0.8231,-0.9435,-0.9852,-0.9825,-0.9528,-0.8775,-0.8322,-0.7863,-0.7557,-0.6707,-0.5854,-0.5079,-0.4222,-0.3365,-0.2511,-0.2511,-0.2511,-0.2511,-0.2511,-0.2511,-0.2511,-0.2511,-0.2511,-0.2511,-0.2511,-0.2353,-0.2117,-0.2117,-0.1725,-0.1177,-0.1177,-0.0785,-0.0157,-0.0157,-0.0,0.0236,0.0236,0.0238,0.024,0.0243,0.0251,0.0261,0.0704,0.089,0.0897,0.1256,0.0897,0.027,0.0182,0.0275,0.0279,0.019,0.0194,0.0295,0.0298,0.0602,0.0909,0.0909,0.1313,0.1617,0.1617,0.1617,0.1617,0.1617,0.1617,0.1617,0.1617,0.1617,0.1617,0.1617,0.1617,0.1617,0.1617,0.1617,0.1617,0.1617,0.1617,0.1617,0.1617,0.1617,0.1617,0.1617,0.1617,0.1617,0.1617,0.1617,0.1617,0.1617,0.1617,0.1617,0.1617,0.1617,0.1617,-0.2076,-0.1138,-0.0134,0.0268,0.0335,0.0201,-0.0537,-0.0671,-0.0739,-0.094,-0.1475,-0.2076,-0.2748,-0.3478,-0.4337,-0.554,-0.5804,-0.6522,-0.8299,-0.9614,-1.0361,-1.0284,-1.0651,-1.0357,-0.9003,-0.8623,-0.8246,-0.7561,-0.6784,-0.6009,-0.5079,-0.4377,-0.3521,-0.2511,-0.2511,-0.2511,-0.2511,-0.2511,-0.2511,-0.2511,-0.2511,-0.2511,-0.2511,-0.2431,-0.2117,-0.1568,0.0,0.0,-0.0471,-0.0471,-0.0079,0.0471,0.0471,0.0786,0.1335,0.1335,0.1335,0.1262,0.1292,0.1335,0.1378,0.1387,0.1408,0.1429,0.1433,0.1436,0.1436,0.1436,0.1454,0.1475,0.148,0.1519,0.156,0.1569,0.1591,0.1611,0.1615,0.1617,0.1617,0.1617,0.1617,0.1617,0.1617,0.1617,0.1617,0.1617,0.1617,0.1617,0.1617,0.1617,0.1617,0.1617,0.1617,0.1617,0.1617,0.1617,0.1617,0.1617,0.1617,0.1617,0.1617,0.1617,0.1617,0.1617,0.1617,0.1617,0.1617,0.1617,0.1617,0.1617,0.1617,0.1617,-0.3949,-0.3749,-0.3078,-0.0872,-0.0336,-0.0537,-0.1275,-0.1409,-0.1742,-0.2809,-0.3143,-0.3542,-0.4743,-0.5463,-0.6248,-0.7055,-0.7642,-0.8514,-0.9886,-1.0239,-1.079,-1.1784,-1.087,-0.997,-0.9744,-0.8466,-0.7638,-0.7484,-0.7403,-0.663,-0.5082,-0.4846,-0.4068,-0.251,-0.2511,-0.2511,-0.2511,-0.2511,-0.2511,-0.2511,-0.2511,-0.2511,-0.251,-0.196,-0.1724,-0.1568,0.0,-0.0393,0.0157,0.0157,0.055,0.1178,0.1178,0.1178,0.1335,0.1335,0.1335,0.1262,0.1292,0.1309,0.1324,0.1373,0.1393,0.1401,0.1427,0.1436,0.1436,0.1436,0.1439,0.1448,0.1474,0.1487,0.1508,0.156,0.1575,0.1585,0.1611,0.1617,0.1617,0.1617,0.1617,0.1617,0.1617,0.1617,0.1617,0.1617,0.1617,0.1617,0.1617,0.1617,0.1617,0.1617,0.1617,0.1617,0.1617,0.1617,0.1617,0.1617,0.1617,0.1617,0.1617,0.1617,0.1617,0.1617,0.1617,0.1617,0.1617,0.1617,0.1617,0.1617,0.1617,0.1617,-0.547,-0.5203,-0.4668,-0.3857,-0.3137,-0.2613,-0.3013,-0.308,-0.3345,-0.4268,-0.4797,-0.5387,-0.631,-0.7033,-0.7632,-0.7972,-0.8619,-0.9326,-1.011,-1.0635,-1.1229,-1.2017,-1.1163,-1.0351,-0.997,-0.8846,-0.794,-0.7561,-0.7399,-0.6619,-0.5076,-0.4862,-0.409,-0.2588,-0.2511,-0.2511,-0.2511,-0.2511,-0.2511,-0.2511,-0.2511,-0.2511,-0.251,-0.1882,-0.1412,-0.102,0.0,0.0236,0.0864,0.0864,0.1021,0.1335,0.1335,0.1335,0.1335,0.1335,0.1335,0.1338,0.1273,0.1289,0.1307,0.1334,0.1364,0.1393,0.1407,0.1423,0.1436,0.1436,0.1436,0.1438,0.1453,0.1468,0.1492,0.1536,0.156,0.158,0.161,0.1617,0.1617,0.1617,0.1617,0.1617,0.1617,0.1617,0.1617,0.1617,0.1617,0.1617,0.1617,0.1617,0.1617,0.1617,0.1617,0.1617,0.1617,0.1617,0.1617,0.1617,0.1617,0.1617,0.1617,0.1617,0.1617,0.1617,0.1617,0.1617,0.1617,0.1617,0.1617,0.1617,0.1617,0.1617,-0.7042,-0.6576,-0.624,-0.6945,-0.5975,-0.4806,-0.5005,-0.5005,-0.52,-0.5917,-0.651,-0.7093,-0.7797,-0.8463,-0.9,-0.9005,-0.939,-0.9872,-1.0217,-1.0898,-1.1536,-1.183,-1.1186,-1.0496,-0.9889,-0.8876,-0.8032,-0.7434,-0.7236,-0.647,-0.4988,-0.4753,-0.3995,-0.2467,-0.2482,-0.2489,-0.2489,-0.2347,-0.2353,-0.2511,-0.2511,-0.2431,-0.2275,-0.1647,-0.102,-0.0393,0.0236,0.0864,0.1335,0.1335,0.1335,0.1335,0.1335,0.1335,0.1335,0.1335,0.1335,0.1335,0.1335,0.1273,0.1293,0.13,0.1338,0.1381,0.1388,0.1411,0.1436,0.1436,0.1436,0.1436,0.1436,0.1453,0.1478,0.1508,0.1538,0.1569,0.16,0.1612,0.1617,0.1617,0.1617,0.1617,0.1617,0.1617,0.1617,0.1617,0.1617,0.1617,0.1617,0.1617,0.1617,0.1617,0.1617,0.1617,0.1617,0.1617,0.1617,0.1617,0.1617,0.1617,0.1617,0.1617,0.1617,0.1617,0.1617,0.1617,0.1617,0.1617,0.1617,0.1617,0.1617,0.1617,-0.8667,-0.8474,-0.8597,-0.9163,-0.7728,-0.6424,-0.7015,-0.7145,-0.7414,-0.8086,-0.8291,-0.8544,-0.9233,-0.9875,-1.0401,-1.0428,-1.0491,-1.0597,-1.0883,-1.1175,-1.1536,-1.183,-1.0581,-0.965,-0.965,-0.8092,-0.7132,-0.7064,-0.7052,-0.6323,-0.4734,-0.4584,-0.3935,-0.2347,-0.2398,-0.2425,-0.2425,-0.1938,-0.196,-0.2511,-0.2511,-0.2196,-0.1646,-0.0942,-0.0314,0.0236,0.0943,0.1257,0.1335,0.1335,0.1335,0.1335,0.1335,0.1335,0.1335,0.1335,0.1335,0.1335,0.1335,0.1337,0.1265,0.1294,0.1324,0.1356,0.1382,0.1411,0.1436,0.1436,0.1436,0.1436,0.1436,0.1437,0.1446,0.1477,0.1507,0.1538,0.1568,0.1597,0.1617,0.1617,0.1617,0.1617,0.1617,0.1617,0.1617,0.1617,0.1617,0.1617,0.1617,0.1617,0.1617,0.1617,0.1617,0.1617,0.1617,0.1617,0.1617,0.1617,0.1617,0.1617,0.1617,0.1617,0.1617,0.1617,0.1617,0.1617,0.1617,0.1617,0.1617,0.1617,0.1617,0.1617,-0.9442,-0.9755,-1.0135,-1.0647,-1.0481,-1.0065,-0.9433,-0.9313,-0.9509,-1.0229,-1.0362,-1.0551,-1.1246,-1.1205,-1.1101,-1.1178,-1.087,-1.0665,-1.0708,-1.0975,-1.1202,-1.1309,-1.0508,-0.9831,-0.9406,-0.8335,-0.7446,-0.7023,-0.6491,-0.5694,-0.4632,-0.4072,-0.3359,-0.2334,-0.2357,-0.2145,-0.1848,-0.1668,-0.1458,-0.1382,-0.1325,-0.1177,-0.0942,-0.0314,0.0079,0.0314,0.1021,0.1335,0.1335,0.1335,0.1335,0.1335,0.1335,0.1335,0.1335,0.1335,0.1335,0.1335,0.1335,0.1335,0.1338,0.1271,0.1295,0.1325,0.1355,0.1384,0.1411,0.143,0.1436,0.1436,0.1436,0.1436,0.1443,0.1473,0.1504,0.1534,0.1565,0.1595,0.1617,0.1617,0.1617,0.1617,0.1617,0.1617,0.1617,0.1617,0.1617,0.1617,0.1617,0.1617,0.1617,0.1617,0.1617,0.1617,0.1617,0.1617,0.1617,0.1617,0.1617,0.1617,0.1617,0.1617,0.1617,0.1617,0.1617,0.1617,0.1617,0.1617,0.1617,0.1617,0.1617,0.1617,-1.0521,-1.0843,-1.1281,-1.1973,-1.2458,-1.2626,-1.1905,-1.1465,-1.1286,-1.1735,-1.1989,-1.2235,-1.2443,-1.2274,-1.1973,-1.1545,-1.1178,-1.0807,-1.0624,-1.0808,-1.0995,-1.0995,-1.0491,-0.9851,-0.9157,-0.8329,-0.7536,-0.6855,-0.6043,-0.5267,-0.452,-0.3689,-0.2993,-0.2277,-0.2081,-0.1874,-0.1441,-0.1108,-0.0748,-0.0449,-0.0153,-0.0156,-0.0314,0.0079,0.0393,0.0628,0.11,0.1335,0.1335,0.1335,0.1335,0.1335,0.1335,0.1335,0.1335,0.1335,0.1335,0.1335,0.1335,0.1335,0.1335,0.1335,0.1278,0.1308,0.1339,0.1367,0.1396,0.1427,0.1436,0.1436,0.1436,0.1436,0.144,0.1461,0.149,0.152,0.1551,0.1581,0.1605,0.1615,0.1617,0.1617,0.1617,0.1617,0.1617,0.1617,0.1617,0.1617,0.1617,0.1617,0.1617,0.1617,0.1617,0.1617,0.1617,0.1617,0.1617,0.1617,0.1617,0.1617,0.1617,0.1617,0.1617,0.1617,0.1617,0.1617,0.1617,0.1617,0.1617,0.1617,0.1919,0.212,-1.1864,-1.1926,-1.2104,-1.3199,-1.3511,-1.37,-1.4327,-1.3442,-1.2512,-1.2512,-1.307,-1.3321,-1.2634,-1.307,-1.3078,-1.1725,-1.1483,-1.1303,-1.0688,-1.0808,-1.0989,-1.0989,-1.0388,-0.971,-0.8969,-0.8037,-0.7199,-0.642,-0.5745,-0.508,-0.4353,-0.3618,-0.2885,-0.2221,-0.1658,-0.1401,-0.1401,-0.0359,0.0219,0.0219,0.0897,0.092,0.0314,0.0314,0.0707,0.1335,0.1335,0.1335,0.1335,0.1335,0.1335,0.1335,0.1335,0.1335,0.1335,0.1335,0.1335,0.1335,0.1335,0.1335,0.1335,0.1335,0.1277,0.1308,0.1338,0.1367,0.1396,0.1426,0.1435,0.1436,0.1436,0.1436,0.1436,0.1436,0.1459,0.1489,0.1519,0.155,0.1581,0.1611,0.1616,0.1617,0.1617,0.1617,0.1617,0.1617,0.1617,0.1617,0.1617,0.1617,0.1617,0.1617,0.1617,0.1617,0.1617,0.1617,0.1617,0.1617,0.1617,0.1617,0.1617,0.1617,0.1617,0.1617,0.1617,0.1617,0.1617,0.1617,0.1617,0.1617,0.2722,0.3224,-1.2589,-1.2964,-1.3277,-1.345,-1.3821,-1.4258,-1.4446,-1.4198,-1.389,-1.389,-1.407,-1.413,-1.3941,-1.37,-1.339,-1.2956,-1.2097,-1.1428,-1.124,-1.0946,-1.0688,-1.0688,-1.0097,-0.9374,-0.8657,-0.7947,-0.6994,-0.5811,-0.5017,-0.4284,-0.3551,-0.2887,-0.2218,-0.1614,-0.1423,-0.0953,-0.0204,0.014,0.0425,0.0851,0.1092,0.1121,0.0919,0.1014,0.11,0.1335,0.1335,0.1335,0.1335,0.1335,0.1335,0.1335,0.1335,0.1335,0.1335,0.1335,0.1335,0.1335,0.1335,0.1335,0.1335,0.1335,0.1263,0.1277,0.1307,0.1337,0.1367,0.1395,0.1418,0.1436,0.1436,0.1436,0.1436,0.1436,0.1459,0.1483,0.1492,0.1535,0.1575,0.1583,0.1602,0.1617,0.1617,0.1617,0.1617,0.1617,0.1617,0.1617,0.1617,0.1617,0.1617,0.1617,0.1617,0.1617,0.1617,0.1617,0.1617,0.1617,0.1617,0.1617,0.1617,0.1617,0.1617,0.1617,0.1617,0.2019,0.2723,0.2723,0.3123,0.3823,0.4225,0.4325,-1.3016,-1.3479,-1.3952,-1.3925,-1.4198,-1.4515,-1.4515,-1.4515,-1.4515,-1.4515,-1.4515,-1.4515,-1.4515,-1.4198,-1.3821,-1.3571,-1.2581,-1.1787,-1.1545,-1.0996,-1.0491,-1.0168,-0.9779,-0.9134,-0.8166,-0.7442,-0.6593,-0.5477,-0.4417,-0.3685,-0.3215,-0.2351,-0.1681,-0.1277,-0.0874,-0.0336,0.0269,0.0478,0.0758,0.1103,0.1134,0.1158,0.1177,0.122,0.1245,0.1335,0.1335,0.1335,0.1335,0.1335,0.1335,0.1335,0.1335,0.1335,0.1335,0.1335,0.1335,0.1335,0.1335,0.1335,0.1335,0.1335,0.1335,0.1263,0.1294,0.1571,0.1859,0.1468,0.1676,0.1883,0.1524,0.1704,0.1883,0.1524,0.1449,0.1466,0.1478,0.1792,0.212,0.2249,0.2573,0.27,0.2318,0.2622,0.2723,0.2321,0.222,0.212,0.1617,0.1617,0.1617,0.1617,0.1617,0.1818,0.2221,0.1818,0.1818,0.222,0.222,0.222,0.222,0.222,0.2422,0.2822,0.2822,0.3224,0.3823,0.3823,0.4124,0.4824,0.5227,0.5427,-1.3324,-1.3735,-1.4231,-1.4427,-1.4515,-1.4515,-1.4515,-1.4515,-1.4515,-1.4515,-1.4515,-1.4515,-1.4515,-1.4515,-1.4327,-1.3692,-1.3009,-1.2266,-1.1663,-1.0989,-1.0238,-0.9582,-0.939,-0.8812,-0.7587,-0.6785,-0.6056,-0.5342,-0.4013,-0.3151,-0.3015,-0.1946,-0.1277,-0.1143,-0.0202,0.0336,0.0403,0.0874,0.1076,0.1076,0.1104,0.1118,0.1123,0.1181,0.1223,0.1327,0.1252,0.1253,0.1254,0.1335,0.1335,0.1335,0.1335,0.1335,0.1335,0.1335,0.1335,0.1336,0.1339,0.1338,0.1336,0.1339,0.1338,0.1341,0.137,0.2058,0.2606,0.1893,0.2285,0.2771,0.1881,0.233,0.2777,0.1882,0.1704,0.1713,0.1745,0.2401,0.3081,0.3289,0.4002,0.433,0.3506,0.4119,0.4423,0.3524,0.3224,0.2822,0.1919,0.1717,0.1718,0.1617,0.1818,0.222,0.3123,0.2422,0.2321,0.3324,0.3324,0.3425,0.3525,0.3425,0.3823,0.4824,0.4824,0.4824,0.4924,0.4924,0.5024,0.5125,0.6132,0.6537,-1.4305,-1.4524,-1.4816,-1.4547,-1.4515,-1.4515,-1.4515,-1.4515,-1.4515,-1.4515,-1.4515,-1.4515,-1.4515,-1.4515,-1.4446,-1.4327,-1.326,-1.2451,-1.2328,-1.0836,-0.9646,-0.9518,-0.8554,-0.7842,-0.7521,-0.633,-0.5342,-0.4619,-0.3685,-0.275,-0.1746,-0.1479,-0.0941,-0.0067,0.0202,0.047,0.0941,0.1076,0.1076,0.0,0.1082,0.1098,0.1123,0.1159,0.118,0.1187,0.1211,0.1221,0.1224,0.1247,0.1335,0.1335,0.1335,0.1335,0.1335,0.1335,0.1335,0.1261,0.1284,0.1277,0.1261,0.1285,0.1277,0.1415,0.2053,0.2409,0.2791,0.3275,0.3606,0.3856,0.3739,0.3844,0.3933,0.3755,0.3664,0.3671,0.3687,0.383,0.3976,0.4009,0.4311,0.4506,0.433,0.4581,0.4724,0.4524,0.3723,0.3123,0.2923,0.2822,0.2521,0.1718,0.3123,0.3825,0.3224,0.3725,0.4225,0.4423,0.4423,0.4826,0.5632,0.4926,0.4524,0.4824,0.4824,0.5227,0.6032,0.6032,0.6534,0.7335,0.7537,0.7637,-1.5103,-1.5131,-1.5239,-1.4653,-1.4515,-1.4515,-1.4515,-1.4515,-1.4515,-1.4515,-1.4515,-1.4515,-1.4515,-1.4515,-1.4515,-1.4515,-1.3381,-1.2512,-1.2512,-1.0766,-0.939,-0.9069,-0.7827,-0.6854,-0.6531,-0.5206,-0.4215,-0.3818,-0.2883,-0.2014,-0.1344,-0.0672,-0.0134,0.0269,0.0672,0.1076,0.1344,0.1344,0.1344,0.1344,0.168,0.1962,0.2129,0.1788,0.1675,0.1676,0.1699,0.1497,0.1213,0.1229,0.1244,0.1335,0.1335,0.1335,0.1335,0.1335,0.1335,0.1262,0.1292,0.1614,0.2002,0.1968,0.2276,0.271,0.3107,0.3534,0.3826,0.3999,0.4344,0.4699,0.4353,0.4645,0.5003,0.5003,0.4645,0.4289,0.4289,0.4685,0.5008,0.5055,0.5573,0.5901,0.5467,0.5461,0.5529,0.5529,0.5129,0.4528,0.4024,0.3924,0.3725,0.3224,0.4124,0.4826,0.4728,0.4726,0.5027,0.5529,0.5529,0.5832,0.6337,0.6331,0.6329,0.6329,0.6329,0.6631,0.7135,0.7135,0.7437,0.8038,0.8038,0.8038,-1.5624,-1.5534,-1.5432,-1.4772,-1.4561,-1.4515,-1.4515,-1.4515,-1.4515,-1.4515,-1.4515,-1.4446,-1.4327,-1.4446,-1.4446,-1.4198,-1.3199,-1.2443,-1.2197,-1.0514,-0.9,-0.8221,-0.7037,-0.5928,-0.5279,-0.388,-0.2947,-0.2947,-0.1744,-0.0941,-0.0874,0.0269,0.0807,0.0605,0.1344,0.1681,0.1681,0.1816,0.1814,0.1814,0.2485,0.3019,0.3355,0.281,0.2439,0.2154,0.2164,0.183,0.1196,0.1202,0.1222,0.1249,0.1249,0.1253,0.1335,0.1335,0.1414,0.1498,0.154,0.2118,0.2931,0.3011,0.3488,0.4072,0.4138,0.4698,0.5125,0.4559,0.5078,0.5534,0.4949,0.5346,0.5897,0.5897,0.5359,0.4823,0.4823,0.5359,0.6014,0.6113,0.6913,0.7357,0.6623,0.6552,0.6637,0.6637,0.6537,0.6034,0.5227,0.5125,0.5027,0.4824,0.5125,0.5629,0.6334,0.5729,0.5727,0.6637,0.6637,0.6637,0.6637,0.7537,0.8038,0.8038,0.8038,0.8038,0.8038,0.8038,0.8038,0.8038,0.8038,0.8038,-1.5972,-1.5411,-1.5157,-1.5047,-1.4763,-1.4515,-1.4515,-1.4515,-1.4515,-1.4515,-1.4515,-1.4327,-1.3761,-1.4139,-1.413,-1.2948,-1.2634,-1.2074,-1.0954,-0.957,-0.8156,-0.6837,-0.5994,-0.5276,-0.4486,-0.3009,-0.2072,-0.2072,-0.0602,0.0469,0.0941,0.1143,0.148,0.1951,0.2085,0.2154,0.2154,0.2549,0.2746,0.2746,0.3151,0.3687,0.4154,0.4051,0.332,0.2105,0.2158,0.1762,0.1135,0.1161,0.119,0.1217,0.1217,0.1234,0.1335,0.1335,0.1727,0.2368,0.2554,0.3133,0.3834,0.3996,0.4079,0.4242,0.4892,0.5106,0.535,0.6009,0.6365,0.6512,0.657,0.6695,0.6874,0.6874,0.6782,0.6694,0.6694,0.6782,0.6881,0.6897,0.7309,0.7645,0.7591,0.774,0.7739,0.7739,0.7039,0.6334,0.6234,0.6234,0.5832,0.4924,0.6429,0.7235,0.6437,0.7135,0.7637,0.7739,0.7739,0.7739,0.7739,0.7939,0.8038,0.8038,0.8038,0.8038,0.8038,0.8038,0.8038,0.8038,0.8038,0.8038,-1.5786,-1.5575,-1.5542,-1.463,-1.4648,-1.4781,-1.4561,-1.4515,-1.4387,-1.401,-1.3941,-1.3821,-1.3571,-1.3761,-1.3631,-1.2634,-1.2212,-1.1586,-1.064,-0.8971,-0.7488,-0.6506,-0.5067,-0.3949,-0.3284,-0.2078,-0.1139,-0.0871,0.0268,0.1074,0.1277,0.1814,0.2151,0.2221,0.2688,0.2954,0.2954,0.3418,0.3885,0.4287,0.4156,0.4422,0.5017,0.4957,0.4353,0.3284,0.292,0.2343,0.1681,0.1277,0.1159,0.126,0.163,0.188,0.2,0.2382,0.2866,0.3231,0.3386,0.408,0.4821,0.5041,0.5386,0.5794,0.6077,0.6034,0.6006,0.6495,0.6647,0.6736,0.6888,0.7034,0.7139,0.7139,0.7139,0.7139,0.7139,0.7139,0.7166,0.7251,0.7448,0.7645,0.7787,0.7936,0.8038,0.8038,0.7637,0.7338,0.7338,0.7338,0.7135,0.6631,0.7434,0.7839,0.7338,0.7739,0.8038,0.8038,0.8038,0.8038,0.8038,0.8038,0.8038,0.8038,0.8038,0.8038,0.8038,0.8038,0.8038,0.8038,0.8038,0.8038,-1.6056,-1.6048,-1.6033,-1.4827,-1.4791,-1.4958,-1.4535,-1.433,-1.407,-1.3381,-1.326,-1.3199,-1.3017,-1.3139,-1.2948,-1.2143,-1.1593,-1.0968,-1.0135,-0.8382,-0.6807,-0.5929,-0.4093,-0.2644,-0.2104,-0.092,-0.0,0.0394,0.1249,0.1781,0.1926,0.2657,0.2932,0.2887,0.3487,0.3818,0.3818,0.435,0.4954,0.5624,0.5223,0.5219,0.5617,0.5488,0.5156,0.4556,0.3818,0.2984,0.2145,0.18,0.1549,0.1514,0.2233,0.2561,0.2772,0.3315,0.3741,0.4059,0.428,0.5025,0.582,0.599,0.6455,0.6976,0.6939,0.677,0.6597,0.663,0.6698,0.6776,0.6851,0.7004,0.7139,0.7139,0.7139,0.7139,0.7139,0.7139,0.7173,0.7288,0.7468,0.7634,0.774,0.7916,0.8038,0.8038,0.8038,0.8038,0.8038,0.8038,0.8038,0.8038,0.8038,0.8038,0.8038,0.8038,0.8038,0.8038,0.8038,0.8038,0.8038,0.8038,0.8038,0.8038,0.8038,0.8038,0.8038,0.8038,0.8038,0.8038,0.8038,0.8038,-1.7217,-1.6878,-1.6303,-1.62,-1.5606,-1.4898,-1.4292,-1.3821,-1.3381,-1.2696,-1.2573,-1.2328,-1.1725,-1.2151,-1.2143,-1.0933,-1.0598,-1.0072,-0.8807,-0.7363,-0.5929,-0.451,-0.2953,-0.1779,-0.1054,0.0495,0.1485,0.1485,0.2412,0.3192,0.3732,0.3801,0.4105,0.468,0.4683,0.4749,0.4749,0.5282,0.5749,0.6148,0.6145,0.5947,0.5617,0.5617,0.5488,0.5292,0.4556,0.342,0.2151,0.282,0.2732,0.2243,0.294,0.3274,0.3287,0.3444,0.4002,0.4803,0.5235,0.5942,0.6666,0.6957,0.7048,0.7105,0.697,0.6919,0.6848,0.6563,0.6695,0.6885,0.6749,0.6926,0.7139,0.7139,0.7139,0.7139,0.7139,0.7139,0.7143,0.7149,0.7394,0.76,0.7611,0.7848,0.8038,0.8038,0.8038,0.8038,0.8038,0.8038,0.8038,0.8038,0.8038,0.8038,0.8038,0.8038,0.8038,0.8038,0.8038,0.8038,0.8038,0.8038,0.8038,0.8038,0.8038,0.8038,0.8038,0.8038,0.8038,0.8038,0.8038,0.8038,-1.5392,-1.5238,-1.5297,-1.4915,-1.4488,-1.4247,-1.4639,-1.3768,-1.2818,-1.2573,-1.2151,-1.1663,-1.1052,-1.1421,-1.1406,-1.0098,-0.9901,-0.9384,-0.8037,-0.6515,-0.5035,-0.3556,-0.2075,-0.0768,0.0317,0.1121,0.1847,0.2525,0.3075,0.3581,0.4117,0.4182,0.4261,0.4496,0.481,0.5126,0.5509,0.5696,0.5888,0.6013,0.5884,0.575,0.5596,0.5535,0.5466,0.5362,0.5093,0.4422,0.3482,0.3282,0.3034,0.2925,0.3673,0.401,0.4114,0.4654,0.5081,0.5488,0.5899,0.6234,0.6603,0.6905,0.7065,0.7132,0.7082,0.7,0.6905,0.6797,0.6773,0.6793,0.6834,0.6926,0.7027,0.7119,0.7139,0.7139,0.7139,0.7139,0.7139,0.7139,0.7309,0.7485,0.7584,0.7763,0.7926,0.8024,0.8038,0.8038,0.8038,0.8038,0.8038,0.8038,0.8038,0.8038,0.8038,0.8038,0.8038,0.8038,0.8038,0.8038,0.8038,0.8038,0.8038,0.8038,0.8038,0.8038,0.8038,0.8038,0.8038,0.8038,0.8038,0.8038,-1.4545,-1.4545,-1.4775,-1.4323,-1.3937,-1.3864,-1.4148,-1.3265,-1.2227,-1.1926,-1.1483,-1.1052,-1.0688,-1.0737,-1.0534,-0.9646,-0.9326,-0.8678,-0.7251,-0.5522,-0.3848,-0.2568,-0.0908,0.0448,0.1334,0.1914,0.2486,0.3213,0.3537,0.0,0.4527,0.4527,0.461,0.4844,0.5211,0.5521,0.5888,0.5888,0.5888,0.5888,0.5763,0.5636,0.556,0.549,0.5382,0.5287,0.5338,0.4957,0.4287,0.4018,0.3818,0.3618,0.4353,0.4742,0.4897,0.5431,0.565,0.5772,0.6078,0.6308,0.6515,0.677,0.6983,0.7139,0.7139,0.7075,0.699,0.6943,0.6892,0.6861,0.6915,0.6963,0.7024,0.7115,0.7139,0.7139,0.7139,0.7139,0.7139,0.7139,0.7265,0.7421,0.7573,0.7719,0.7865,0.8018,0.8038,0.8038,0.8038,0.8038,0.8038,0.8038,0.8038,0.8038,0.8038,0.8038,0.8038,0.8038,0.8038,0.8038,0.8038,0.8038,0.8038,0.8038,0.8038,0.8038,0.8038,0.8038,0.8038,0.8038,0.8038,0.8038,0.0,0.0,0.0,-1.4609,-1.4277,-1.373,-1.2848,-1.2262,-1.1689,-1.0805,-1.0624,-1.0624,-1.0624,-0.997,-0.9518,-0.9454,-0.8941,-0.7897,-0.6322,-0.4262,-0.2576,-0.1607,0.0385,0.1717,0.1855,0.2879,0.3531,0.3528,0.382,0.4307,0.4955,0.5024,0.5276,0.5864,0.5932,0.5932,0.5932,0.5932,0.5932,0.5932,0.5932,0.5755,0.54,0.5553,0.5434,0.5131,0.5287,0.5017,0.435,0.509,0.4957,0.442,0.5093,0.5428,0.5446,0.5528,0.5583,0.5627,0.5915,0.621,0.6485,0.6637,0.6892,0.7132,0.7132,0.7136,0.7112,0.6973,0.7031,0.7102,0.6963,0.7034,0.7139,0.7139,0.7139,0.7139,0.7139,0.7139,0.7139,0.7139,0.7261,0.7414,0.7573,0.7712,0.7858,0.8018,0.8038,0.8038,0.8038,0.8038,0.8038,0.8038,0.8038,0.8038,0.8038,0.8038,0.8038,0.8038,0.8038,0.8038,0.8038,0.8038,0.8038,0.8038,0.8038,0.8038,0.8038,0.8038,0.8038,0.8038,0.8038,0.8038,-1.3912,0.0,0.0,0.0,0.0,0.0,-1.3186,-1.2255,-1.13,-1.1241,-1.0933,-1.0624,-1.0624,-0.997,-0.9326,-0.8871,-0.8231,-0.7251,-0.58,-0.4475,-0.2998,-0.0991,0.026,0.1411,0.2608,0.334,0.3789,0.0,0.4471,0.488,0.5202,0.5202,0.5497,0.6104,0.6104,0.6332,0.6779,0.6779,0.6556,0.6104,0.6104,0.5783,0.5163,0.5207,0.5111,0.4986,0.5131,0.5064,0.4877,0.5249,0.5292,0.5093,0.5296,0.5428,0.5432,0.541,0.5423,0.5454,0.5644,0.5905,0.6179,0.6332,0.6658,0.6987,0.6987,0.7058,0.7132,0.7092,0.7037,0.6976,0.6939,0.7034,0.7139,0.7139,0.7139,0.7139,0.7139,0.7139,0.7139,0.7139,0.7173,0.7288,0.7553,0.7631,0.7746,0.8001,0.8038,0.8038,0.8038,0.8038,0.8038,0.8038,0.8038,0.8038,0.8038,0.8038,0.8038,0.8038,0.8038,0.8038,0.8038,0.8038,0.8038,0.8038,0.8038,0.8038,0.8038,0.8038,0.8038,0.8038,0.8038,0.8038,-1.3477,-1.3119,-1.3046,-1.3251,0.0,0.0,-1.2782,-1.2093,-1.137,-1.1332,-1.0992,-1.0701,-1.0645,-0.9779,-0.8935,-0.8554,-0.7652,-0.6535,-0.5011,-0.4077,-0.2673,-0.0468,0.0661,0.1638,0.2818,0.3634,0.4224,0.433,0.4991,0.5416,0.5414,0.5337,0.5567,0.6154,0.6209,0.6485,0.7085,0.7085,0.6918,0.6593,0.6317,0.5945,0.5446,0.5232,0.5031,0.4893,0.4979,0.5077,0.5138,0.5226,0.5304,0.5428,0.5428,0.5428,0.5428,0.5428,0.5428,0.5439,0.5464,0.5688,0.5959,0.6115,0.6427,0.6763,0.6892,0.6987,0.7065,0.7126,0.7082,0.7017,0.7017,0.7078,0.7139,0.7139,0.7139,0.7139,0.7139,0.7139,0.7139,0.7139,0.7139,0.7217,0.7461,0.7556,0.7678,0.7909,0.7997,0.8038,0.8038,0.8038,0.8038,0.8038,0.8038,0.8038,0.8038,0.8038,0.8038,0.8038,0.8038,0.8038,0.8038,0.8038,0.8038,0.8038,0.8038,0.8038,0.8038,0.8038,0.8038,0.8038,0.8038,0.8038,-1.3484,-1.3193,-1.3119,-1.2753,-1.2599,0.0,-1.2009,-1.1942,-1.171,-1.1156,-1.1015,-1.0915,-1.0591,-0.9414,-0.849,-0.8425,-0.726,-0.5815,-0.4281,-0.3476,-0.2204,-0.0,0.1141,0.1946,0.2619,0.3801,0.4574,0.4626,0.5432,0.5807,0.562,0.5466,0.5698,0.6263,0.6372,0.6696,0.73,0.73,0.7246,0.7192,0.6642,0.6263,0.6009,0.5454,0.5067,0.4854,0.4889,0.4965,0.5084,0.5114,0.522,0.5428,0.5428,0.5428,0.5428,0.5428,0.5428,0.5428,0.5428,0.5545,0.58,0.5935,0.6193,0.6502,0.6773,0.6892,0.6959,0.7099,0.7139,0.7139,0.7139,0.7139,0.7139,0.7139,0.7139,0.7139,0.7139,0.7139,0.7139,0.7139,0.7139,0.719,0.7346,0.7485,0.7628,0.7787,0.7926,0.8021,0.8038,0.8038,0.8038,0.8038,0.8038,0.8038,0.8038,0.8038,0.8038,0.8038,0.8038,0.8038,0.8038,0.8038,0.8038,0.8038,0.8038,0.8038,0.8038,0.8038,0.8038,0.8038,0.8038,0.8038,-1.3492,-1.3346,-1.32,-1.3119,-1.2826,0.0,-1.2223,-1.2013,-1.177,-1.141,-1.1156,-1.0837,-1.0252,-0.9208,-0.8296,-0.7782,-0.6937,-0.5885,-0.442,-0.4151,-0.3011,-0.0269,0.0269,0.1007,0.2552,0.3735,0.4412,0.4568,0.5432,0.5807,0.562,0.6037,0.6449,0.6928,0.7337,0.7877,0.848,0.8487,0.8209,0.7771,0.7605,0.7015,0.6005,0.5876,0.5452,0.4745,0.4847,0.4873,0.4796,0.5033,0.522,0.5428,0.5428,0.5428,0.5428,0.5428,0.5428,0.5428,0.5428,0.5481,0.5637,0.5664,0.5959,0.6315,0.6373,0.6641,0.6959,0.7099,0.7139,0.7139,0.7139,0.7139,0.7139,0.7139,0.7139,0.7139,0.7139,0.7139,0.7139,0.7139,0.7139,0.719,0.7346,0.7397,0.7506,0.777,0.7834,0.7899,0.8024,0.8038,0.8038,0.8038,0.8038,0.8038,0.8038,0.8038,0.8038,0.8038,0.8038,0.8038,0.8038,0.8038,0.8038,0.8038,0.8038,0.8038,0.8038,0.8038,0.8038,0.8038,0.8038,0.8038,-1.3564,-1.3419,-1.3346,-1.32,-1.3046,0.0,0.0,-1.238,-1.2148,-1.185,-1.1322,-1.0654,-1.0104,-0.8948,-0.7976,-0.754,-0.6605,-0.5547,-0.442,-0.4287,-0.328,-0.0604,-0.0134,0.0538,0.2016,0.3017,0.3929,0.4792,0.5612,0.5977,0.5884,0.6294,0.6704,0.7202,0.7668,0.8203,0.8804,0.8804,0.8639,0.8362,0.8037,0.7551,0.6912,0.6268,0.5786,0.5352,0.505,0.4851,0.4824,0.4973,0.5106,0.5254,0.5332,0.5428,0.5428,0.5428,0.5428,0.5428,0.5428,0.5413,0.5488,0.5566,0.5789,0.6061,0.6213,0.6573,0.6959,0.7099,0.7139,0.7139,0.7139,0.7139,0.7139,0.7139,0.7139,0.7139,0.7139,0.7139,0.7139,0.7139,0.7139,0.7166,0.7244,0.7319,0.7421,0.757,0.7716,0.7838,0.7916,0.7991,0.8038,0.8038,0.8038,0.8038,0.8038,0.8038,0.8038,0.8038,0.8038,0.8038,0.8038,0.8038,0.8038,0.8038,0.8038,0.8038,0.8038,0.8038,0.8038,0.8038,0.8038,0.8038,-1.363,-1.3492,-1.3492,-1.3273,-1.32,-1.3193,0.0,0.0,0.0,-1.2363,-1.1475,-1.0586,-1.0083,-0.8743,-0.7695,-0.7423,-0.639,-0.5312,-0.4422,-0.4287,-0.3349,-0.0806,-0.0269,0.0336,0.148,0.2549,0.368,0.502,0.5758,0.6244,0.6396,0.6648,0.7009,0.748,0.7948,0.8366,0.8804,0.8804,0.8804,0.8804,0.8309,0.8037,0.7871,0.6858,0.6218,0.5946,0.5336,0.4979,0.4883,0.4857,0.4953,0.5064,0.5247,0.5335,0.5428,0.5428,0.5428,0.5428,0.5428,0.5428,0.5449,0.5504,0.5681,0.5901,0.621,0.6593,0.6959,0.7099,0.7139,0.7139,0.7139,0.7139,0.7139,0.7139,0.7139,0.7139,0.7139,0.7139,0.7139,0.7139,0.7139,0.7139,0.7139,0.7244,0.7336,0.7366,0.7573,0.7746,0.7804,0.7919,0.8007,0.8035,0.8038,0.8038,0.8038,0.8038,0.8038,0.8038,0.8038,0.8038,0.8038,0.8038,0.8038,0.8038,0.8038,0.8038,0.8038,0.8038,0.8038,0.8038,0.8038,0.8038,-1.3492,-1.3492,-1.3492,-1.3492,-1.3346,-1.3193,-1.3193,0.0,-1.2893,-1.2851,0.0,-1.0773,-1.0056,0.0,0.0,-0.6894,-0.666,-0.6056,-0.4503,-0.4287,-0.3349,-0.0806,-0.047,0.0067,0.148,0.2948,0.4215,0.502,0.5796,0.6436,0.7082,0.7588,0.7979,0.8285,0.8805,0.8956,0.8811,0.8804,0.8804,0.8804,0.8752,0.8421,0.7871,0.7765,0.7069,0.6,0.5778,0.5352,0.4727,0.4751,0.4711,0.4769,0.5047,0.524,0.5428,0.5428,0.5428,0.5428,0.5428,0.5428,0.5432,0.5449,0.5667,0.6061,0.6356,0.6671,0.6959,0.7099,0.7139,0.7139,0.7139,0.7139,0.7139,0.7139,0.7139,0.7139,0.7139,0.7139,0.7139,0.7139,0.7139,0.7139,0.7139,0.7153,0.7214,0.735,0.74,0.7516,0.7777,0.7828,0.7889,0.8024,0.8038,0.8038,0.8038,0.8038,0.8038,0.8038,0.8038,0.8038,0.8038,0.8038,0.8038,0.8038,0.8038,0.8038,0.8038,0.8038,0.8038,0.8038,0.8038,0.8038,-1.3777,-1.3638,-1.3492,-1.3492,-1.3419,-1.3346,-1.3346,-1.3193,-1.3046,-1.3046,0.0,0.0,0.0,0.0,0.0,0.0,-0.6121,-0.5274,-0.46,-0.3657,-0.2417,-0.0739,-0.047,0.0,0.121,0.275,0.3818,0.4154,0.5415,0.631,0.6617,0.7516,0.8043,0.8136,0.884,0.913,0.9058,0.8891,0.8804,0.8804,0.8804,0.8646,0.8421,0.7723,0.7074,0.648,0.5723,0.5124,0.4695,0.4703,0.4727,0.4704,0.4826,0.502,0.524,0.5328,0.5428,0.5428,0.5428,0.5428,0.5442,0.5464,0.5739,0.6084,0.6383,0.6685,0.6959,0.7099,0.7139,0.7139,0.7139,0.7139,0.7139,0.7139,0.7139,0.7139,0.7139,0.7139,0.7139,0.7139,0.7139,0.7139,0.7139,0.7139,0.7163,0.7227,0.7316,0.7448,0.7662,0.776,0.7868,0.8024,0.8038,0.8038,0.8038,0.8038,0.8038,0.8038,0.8038,0.8038,0.8038,0.8038,0.8038,0.8038,0.8038,0.8038,0.8038,0.8038,0.8038,0.8038,0.8038,0.8038,-1.3872,-1.3675,-1.3492,-1.3492,-1.3492,-1.3492,-1.3492,-1.3419,-1.3193,-1.2973,-1.1687,0.0,0.0,0.0,-0.7459,-0.7198,0.0,-0.4886,-0.4605,-0.3363,-0.2034,-0.0875,-0.047,0.0134,0.0,0.2616,0.3553,0.3754,0.5216,0.6145,0.647,0.7305,0.7949,0.8258,0.8869,0.9173,0.9183,0.9031,0.8884,0.8804,0.8804,0.8699,0.848,0.7616,0.7025,0.6529,0.5609,0.5014,0.4688,0.4632,0.4643,0.4636,0.4721,0.4908,0.5145,0.5257,0.5352,0.5416,0.5442,0.5428,0.5446,0.5491,0.5755,0.6078,0.6335,0.6654,0.6959,0.7099,0.7139,0.7139,0.7139,0.7139,0.7139,0.7139,0.7139,0.7139,0.7139,0.7139,0.7139,0.7139,0.7139,0.7139,0.7139,0.7139,0.7139,0.7139,0.7238,0.7377,0.7573,0.7689,0.7828,0.8018,0.8038,0.8038,0.8038,0.8038,0.8038,0.8038,0.8038,0.8038,0.8038,0.8233,0.8432,0.8432,0.8432,0.8432,0.8432,0.8137,0.8137,0.8432,0.8432,0.8432,0.0,0.0,0.0,-1.3492,0.0,-1.3492,-1.3492,-1.3492,-1.3273,-1.2526,-1.1539,-1.0559,-0.9734,-0.8618,-0.7732,-0.7537,-0.66,0.0,0.0,-0.3834,-0.2764,-0.1416,-0.0336,0.0739,0.1946,0.2748,0.3618,0.4492,0.5219,0.6071,0.7116,0.7172,0.7787,0.9015,0.9114,0.9157,0.919,0.9176,0.903,0.8804,0.8804,0.8427,0.7723,0.7723,0.702,0.5828,0.5601,0.5167,0.4688,0.4574,0.4522,0.4556,0.4796,0.5003,0.5131,0.5135,0.5328,0.5562,0.5413,0.5428,0.5428,0.5432,0.5671,0.6061,0.622,0.6576,0.6959,0.7099,0.7139,0.7139,0.7139,0.7139,0.7139,0.7139,0.7139,0.7139,0.7139,0.7139,0.7139,0.7139,0.7139,0.7139,0.7139,0.7139,0.7139,0.7139,0.7143,0.7258,0.756,0.7604,0.7719,0.8007,0.8038,0.8038,0.8038,0.8038,0.8038,0.8038,0.8038,0.8038,0.8038,0.9019,0.9509,0.9509,0.9509,0.9509,0.9509,0.8528,0.8531,0.9509,0.9509,0.9706,0.0,0.0,-1.3492,-1.3492,0.0,0.0,0.0,0.0,-1.3273,-1.2452,-1.1626,-1.0726,-0.9744,-0.8851,-0.8156,-0.7938,-0.6532,-0.538,0.0,-0.3282,-0.1732,-0.0877,0.0202,0.1008,0.1411,0.208,0.2815,0.3618,0.4486,0.5282,0.6071,0.6789,0.7598,0.8482,0.89,0.929,0.9649,0.9269,0.8971,0.8806,0.8624,0.8203,0.7551,0.7182,0.6475,0.5601,0.5171,0.4794,0.4574,0.4519,0.4577,0.4623,0.4728,0.4667,0.462,0.515,0.5413,0.5569,0.5413,0.5428,0.5446,0.5481,0.5745,0.6074,0.6325,0.6647,0.6959,0.7099,0.7139,0.7139,0.7139,0.7139,0.7139,0.7139,0.7139,0.7139,0.7139,0.7139,0.7139,0.7139,0.7139,0.7139,0.7139,0.7139,0.7139,0.7139,0.7139,0.7251,0.756,0.76,0.7712,0.8007,0.8038,0.8038,0.8038,0.8038,0.8038,0.8237,0.8233,0.8627,0.9316,0.9706,1.0096,1.0685,1.0685,1.0293,0.9608,1.0096,1.0194,0.9899,1.1463,1.1755,-1.3758,-1.3362,0.0,-1.2746,-1.2673,0.0,-1.2673,0.0,-1.2753,0.0,-1.126,-1.0732,-0.9523,-0.8775,-0.8327,-0.8255,-0.6688,-0.524,0.0,-0.2528,-0.0975,-0.0615,0.027,0.1008,0.1411,0.1879,0.2414,0.3149,0.402,0.4688,0.5219,0.6137,0.6981,0.7697,0.8138,0.8657,0.9438,0.8788,0.8628,0.8934,0.8202,0.7629,0.7236,0.6505,0.5819,0.5109,0.4791,0.4574,0.4522,0.4577,0.4602,0.4701,0.4806,0.4612,0.4348,0.4766,0.504,0.5151,0.5326,0.5428,0.5452,0.5542,0.5752,0.6013,0.6366,0.6647,0.6878,0.7024,0.7102,0.7129,0.7078,0.7102,0.7139,0.7139,0.7139,0.7139,0.7139,0.7139,0.7139,0.7139,0.7139,0.7139,0.7139,0.7139,0.7139,0.7139,0.7139,0.7251,0.756,0.76,0.7712,0.8007,0.8038,0.8038,0.8038,0.8038,0.8333,0.8924,0.9019,0.9509,1.0489,1.0877,1.1268,1.1755,1.1755,1.1463,1.0877,1.1365,1.1463,1.1268,1.292,1.3403]},{"header":{"parameterUnit":"m.s-1","parameterCategory":1,"la1":30.6,"la2":29.2853,"lo1":-89.7004,"lo2":-87.6739,"dy":0.0162,"dx":0.0183,"nx":112,"ny":82,"refTime":"2023-06-26T06:00:00:Z","depth":0,"parameterNumber":3,"parameterNumberName":"V-component_of_WINDS"},"data":[0.0,0.0,0.0,0.0,0.0,0.0,0.0,0.0,0.0,0.0,0.0,0.0,0.0,0.0,0.0,0.0,0.0,0.0,0.0,0.0,0.0,0.0,0.0,0.0,0.0,0.0,0.0,0.0,0.0,0.0,0.0,0.0,0.0,0.0,0.0,0.0,0.0,0.0,0.0,0.0,0.0,0.0,0.0,0.0,0.0,0.0,0.0,0.0,0.0,0.0,0.0,0.0,0.0,0.0,0.0,0.0,0.0,0.0,0.0,0.0,0.0,0.0,0.0,0.0,0.0,0.0,0.0,0.0,0.0,0.0,0.0,0.0,0.0,0.0,0.0,0.0,0.0,0.0,0.0,0.0,0.0,0.0,0.0,0.0,0.0,0.0,0.0,0.0,0.0,0.0,-3.3439,-3.3032,-3.2334,-3.186,-3.1785,-3.1731,-3.195,-3.2601,0.0,0.0,0.0,0.0,0.0,0.0,0.0,0.0,0.0,0.0,0.0,0.0,0.0,0.0,0.0,0.0,0.0,0.0,0.0,0.0,0.0,0.0,0.0,0.0,0.0,0.0,0.0,0.0,0.0,0.0,0.0,0.0,0.0,0.0,0.0,0.0,0.0,0.0,0.0,0.0,0.0,0.0,0.0,0.0,0.0,0.0,0.0,0.0,0.0,0.0,0.0,0.0,0.0,0.0,0.0,0.0,0.0,0.0,0.0,0.0,0.0,0.0,0.0,0.0,0.0,0.0,0.0,0.0,0.0,0.0,0.0,0.0,0.0,0.0,0.0,0.0,0.0,0.0,0.0,0.0,0.0,0.0,0.0,0.0,0.0,0.0,0.0,0.0,0.0,0.0,0.0,0.0,0.0,0.0,0.0,0.0,0.0,0.0,0.0,0.0,0.0,0.0,0.0,0.0,-3.289,-3.2092,-3.166,-3.1372,-3.1291,-3.1562,-3.175,-3.186,0.0,0.0,0.0,0.0,0.0,0.0,0.0,0.0,0.0,0.0,0.0,0.0,0.0,0.0,0.0,0.0,0.0,0.0,0.0,0.0,0.0,0.0,0.0,0.0,0.0,0.0,0.0,0.0,0.0,0.0,0.0,0.0,0.0,0.0,0.0,0.0,0.0,0.0,0.0,0.0,0.0,0.0,0.0,0.0,0.0,0.0,0.0,0.0,0.0,0.0,0.0,0.0,0.0,0.0,0.0,0.0,0.0,0.0,0.0,0.0,0.0,0.0,0.0,0.0,0.0,0.0,0.0,0.0,0.0,0.0,0.0,0.0,0.0,0.0,0.0,0.0,0.0,0.0,0.0,0.0,0.0,0.0,0.0,0.0,0.0,0.0,0.0,0.0,0.0,0.0,0.0,0.0,0.0,0.0,0.0,0.0,0.0,0.0,0.0,0.0,0.0,0.0,0.0,-3.2827,-3.2265,-3.1603,-3.1393,-3.1274,-3.119,-3.1329,-3.16,-3.2003,-3.2334,0.0,0.0,0.0,0.0,0.0,0.0,0.0,0.0,0.0,0.0,0.0,0.0,0.0,0.0,0.0,0.0,0.0,0.0,0.0,0.0,0.0,0.0,0.0,0.0,0.0,0.0,0.0,0.0,0.0,0.0,0.0,0.0,0.0,0.0,0.0,0.0,0.0,0.0,0.0,0.0,0.0,0.0,0.0,0.0,0.0,0.0,0.0,0.0,0.0,0.0,0.0,0.0,0.0,0.0,0.0,0.0,0.0,0.0,0.0,0.0,0.0,0.0,0.0,0.0,0.0,0.0,0.0,0.0,0.0,0.0,0.0,0.0,0.0,0.0,0.0,0.0,0.0,0.0,0.0,0.0,0.0,0.0,0.0,0.0,0.0,0.0,0.0,0.0,0.0,0.0,0.0,0.0,0.0,0.0,0.0,0.0,0.0,0.0,0.0,0.0,0.0,0.0,-3.2214,-3.1823,-3.1351,-3.1274,-3.1252,-3.119,-3.119,-3.1428,-3.2003,-3.2109,0.0,0.0,0.0,0.0,0.0,0.0,0.0,0.0,0.0,0.0,0.0,0.0,0.0,0.0,0.0,0.0,0.0,0.0,0.0,0.0,0.0,0.0,0.0,0.0,0.0,0.0,0.0,0.0,0.0,0.0,0.0,0.0,0.0,0.0,0.0,0.0,0.0,0.0,0.0,0.0,0.0,0.0,0.0,0.0,0.0,0.0,0.0,0.0,0.0,0.0,0.0,0.0,0.0,0.0,0.0,0.0,0.0,0.0,0.0,0.0,0.0,0.0,0.0,0.0,0.0,0.0,0.0,0.0,0.0,0.0,0.0,0.0,0.0,0.0,0.0,0.0,0.0,0.0,0.0,0.0,0.0,0.0,0.0,0.0,0.0,0.0,0.0,0.0,0.0,0.0,0.0,0.0,0.0,0.0,0.0,0.0,0.0,0.0,0.0,0.0,0.0,0.0,-3.2144,-3.1804,-3.1252,-3.119,-3.119,-3.119,-3.119,-3.123,-3.1269,-3.1545,0.0,0.0,0.0,0.0,0.0,0.0,0.0,0.0,0.0,0.0,0.0,0.0,0.0,0.0,0.0,0.0,0.0,0.0,0.0,0.0,0.0,0.0,0.0,0.0,0.0,0.0,0.0,0.0,0.0,0.0,0.0,0.0,0.0,0.0,0.0,0.0,0.0,0.0,0.0,0.0,0.0,0.0,0.0,0.0,0.0,0.0,0.0,0.0,0.0,0.0,0.0,0.0,0.0,0.0,0.0,0.0,0.0,0.0,0.0,0.0,0.0,0.0,0.0,0.0,0.0,0.0,0.0,0.0,0.0,0.0,0.0,0.0,0.0,0.0,0.0,0.0,0.0,0.0,0.0,0.0,0.0,0.0,0.0,0.0,0.0,0.0,0.0,0.0,0.0,0.0,0.0,0.0,0.0,0.0,0.0,0.0,0.0,0.0,0.0,0.0,0.0,0.0,-3.1657,-3.1428,-3.123,-3.119,-3.119,-3.119,-3.119,-3.1291,-3.1487,0.0,0.0,0.0,0.0,0.0,0.0,0.0,0.0,0.0,0.0,0.0,0.0,0.0,0.0,0.0,0.0,0.0,0.0,0.0,0.0,0.0,0.0,0.0,0.0,0.0,0.0,0.0,0.0,0.0,0.0,0.0,0.0,0.0,0.0,0.0,0.0,0.0,0.0,0.0,0.0,0.0,0.0,0.0,0.0,0.0,0.0,0.0,0.0,0.0,0.0,0.0,0.0,0.0,0.0,0.0,0.0,0.0,0.0,0.0,0.0,0.0,0.0,0.0,0.0,0.0,0.0,0.0,0.0,0.0,0.0,0.0,0.0,0.0,0.0,0.0,0.0,0.0,0.0,0.0,0.0,0.0,0.0,0.0,0.0,0.0,0.0,0.0,0.0,0.0,0.0,0.0,0.0,0.0,0.0,0.0,0.0,0.0,0.0,0.0,0.0,0.0,0.0,-3.175,-3.1428,-3.1213,-3.119,-3.119,-3.119,-3.119,-3.119,-3.1329,-3.1694,0.0,0.0,0.0,0.0,0.0,0.0,0.0,0.0,0.0,0.0,0.0,0.0,0.0,0.0,0.0,0.0,0.0,0.0,0.0,0.0,0.0,0.0,0.0,0.0,0.0,0.0,0.0,0.0,0.0,0.0,0.0,0.0,0.0,0.0,0.0,0.0,0.0,0.0,0.0,0.0,0.0,0.0,0.0,0.0,0.0,0.0,0.0,0.0,0.0,0.0,0.0,0.0,0.0,0.0,0.0,0.0,0.0,0.0,0.0,0.0,0.0,0.0,0.0,0.0,0.0,0.0,0.0,0.0,0.0,0.0,0.0,0.0,0.0,0.0,0.0,0.0,0.0,0.0,0.0,0.0,0.0,0.0,0.0,0.0,0.0,0.0,0.0,0.0,0.0,0.0,0.0,0.0,0.0,0.0,0.0,0.0,0.0,0.0,0.0,0.0,0.0,0.0,-3.175,-3.147,-3.1274,-3.119,-3.119,-3.119,-3.119,-3.1207,-3.1368,0.0,0.0,0.0,0.0,0.0,0.0,0.0,0.0,0.0,0.0,0.0,0.0,0.0,0.0,0.0,0.0,0.0,0.0,0.0,0.0,0.0,0.0,0.0,0.0,0.0,0.0,0.0,0.0,0.0,0.0,0.0,0.0,0.0,0.0,0.0,0.0,0.0,0.0,0.0,0.0,0.0,0.0,0.0,0.0,0.0,0.0,0.0,0.0,0.0,0.0,0.0,0.0,0.0,0.0,0.0,0.0,0.0,0.0,0.0,0.0,0.0,0.0,0.0,0.0,0.0,0.0,0.0,0.0,0.0,0.0,0.0,0.0,0.0,0.0,0.0,0.0,0.0,0.0,0.0,0.0,0.0,0.0,0.0,0.0,0.0,0.0,0.0,0.0,0.0,0.0,0.0,0.0,0.0,0.0,0.0,0.0,0.0,0.0,0.0,0.0,0.0,0.0,0.0,-3.1428,-3.1291,-3.1213,-3.119,-3.119,-3.119,-3.119,-3.1961,-3.2187,-3.1711,0.0,0.0,0.0,0.0,0.0,0.0,0.0,0.0,0.0,0.0,0.0,0.0,0.0,0.0,0.0,0.0,0.0,0.0,0.0,0.0,0.0,0.0,0.0,0.0,0.0,0.0,0.0,0.0,0.0,0.0,0.0,0.0,0.0,0.0,0.0,0.0,0.0,0.0,0.0,0.0,0.0,0.0,0.0,0.0,0.0,0.0,0.0,0.0,0.0,0.0,0.0,0.0,0.0,0.0,0.0,0.0,0.0,0.0,0.0,0.0,0.0,0.0,0.0,0.0,0.0,0.0,0.0,0.0,0.0,0.0,0.0,0.0,0.0,0.0,0.0,0.0,0.0,0.0,0.0,0.0,0.0,0.0,0.0,0.0,0.0,0.0,0.0,0.0,0.0,0.0,0.0,0.0,0.0,0.0,0.0,0.0,0.0,0.0,0.0,0.0,0.0,0.0,-3.219,-3.2087,-3.2087,-3.2087,-3.2087,-3.2087,-3.2087,-3.2826,-3.3187,-3.2887,0.0,0.0,0.0,0.0,0.0,0.0,0.0,0.0,0.0,0.0,0.0,0.0,0.0,0.0,0.0,0.0,0.0,0.0,0.0,0.0,0.0,0.0,0.0,0.0,0.0,0.0,0.0,0.0,0.0,0.0,0.0,0.0,0.0,0.0,0.0,0.0,0.0,0.0,0.0,0.0,0.0,0.0,0.0,0.0,0.0,0.0,0.0,0.0,0.0,0.0,0.0,0.0,0.0,0.0,0.0,0.0,0.0,0.0,0.0,0.0,0.0,0.0,0.0,0.0,0.0,0.0,0.0,0.0,0.0,0.0,0.0,0.0,0.0,0.0,0.0,0.0,0.0,0.0,0.0,0.0,0.0,0.0,0.0,0.0,0.0,0.0,0.0,0.0,0.0,0.0,0.0,0.0,0.0,0.0,0.0,0.0,0.0,0.0,0.0,0.0,0.0,0.0,-3.3515,-3.3406,-3.3406,-3.3406,-3.3406,-3.3406,-3.3431,-3.39,-3.4332,-3.4637,0.0,0.0,0.0,0.0,0.0,0.0,0.0,0.0,0.0,0.0,0.0,0.0,0.0,0.0,0.0,0.0,0.0,0.0,0.0,0.0,0.0,0.0,0.0,0.0,0.0,0.0,0.0,0.0,0.0,0.0,0.0,0.0,0.0,0.0,0.0,0.0,0.0,0.0,0.0,0.0,0.0,0.0,0.0,0.0,0.0,0.0,0.0,0.0,0.0,0.0,0.0,0.0,0.0,0.0,0.0,0.0,0.0,0.0,0.0,0.0,-3.4374,-3.4042,0.0,0.0,0.0,0.0,0.0,0.0,0.0,0.0,0.0,0.0,0.0,0.0,0.0,0.0,0.0,0.0,0.0,0.0,0.0,0.0,0.0,0.0,0.0,0.0,0.0,0.0,0.0,0.0,0.0,0.0,0.0,0.0,0.0,0.0,0.0,0.0,0.0,0.0,0.0,0.0,-3.3515,-3.3406,-3.3406,-3.3406,-3.3406,-3.3515,-3.3831,-3.4818,-3.5324,-3.5065,-3.6624,0.0,0.0,0.0,0.0,0.0,0.0,0.0,0.0,0.0,0.0,0.0,0.0,0.0,0.0,0.0,0.0,0.0,0.0,0.0,0.0,0.0,0.0,0.0,0.0,0.0,0.0,0.0,0.0,0.0,0.0,0.0,0.0,0.0,0.0,0.0,0.0,0.0,0.0,0.0,0.0,0.0,0.0,0.0,0.0,0.0,0.0,0.0,0.0,0.0,0.0,0.0,0.0,0.0,0.0,0.0,0.0,0.0,0.0,0.0,-3.4857,-3.4881,0.0,0.0,0.0,0.0,0.0,0.0,0.0,0.0,0.0,0.0,0.0,0.0,0.0,0.0,0.0,0.0,0.0,0.0,0.0,0.0,0.0,0.0,0.0,0.0,0.0,0.0,0.0,0.0,0.0,0.0,0.0,0.0,0.0,0.0,0.0,0.0,0.0,0.0,0.0,0.0,-3.4905,-3.4988,-3.5094,-3.5094,-3.5094,-3.5157,-3.5379,-3.6151,-3.6521,-3.6328,-3.7517,0.0,0.0,0.0,0.0,0.0,0.0,0.0,0.0,0.0,0.0,0.0,0.0,0.0,0.0,0.0,0.0,0.0,0.0,0.0,0.0,0.0,0.0,0.0,0.0,0.0,0.0,0.0,0.0,0.0,0.0,0.0,0.0,0.0,0.0,0.0,0.0,0.0,0.0,0.0,0.0,0.0,0.0,0.0,0.0,0.0,0.0,0.0,0.0,0.0,0.0,0.0,0.0,0.0,-3.5301,-3.4979,-3.4489,-3.4489,-3.4556,-3.4726,-3.5351,-3.5827,-3.6174,-3.6259,0.0,0.0,0.0,0.0,0.0,0.0,0.0,0.0,0.0,0.0,0.0,0.0,0.0,0.0,0.0,0.0,0.0,0.0,0.0,0.0,0.0,0.0,0.0,0.0,-3.8401,-3.8478,-3.8241,0.0,0.0,0.0,0.0,0.0,0.0,0.0,0.0,0.0,0.0,0.0,-3.6492,-3.6678,-3.69,-3.69,-3.69,-3.6939,-3.7017,-3.7321,-3.7542,-3.7632,-3.7985,-3.8192,0.0,0.0,0.0,0.0,0.0,0.0,0.0,0.0,0.0,0.0,0.0,0.0,0.0,0.0,0.0,0.0,0.0,0.0,0.0,0.0,0.0,0.0,0.0,0.0,0.0,0.0,0.0,0.0,0.0,0.0,0.0,0.0,-3.765,-3.7596,0.0,0.0,0.0,0.0,0.0,0.0,0.0,0.0,0.0,0.0,0.0,0.0,0.0,-3.5622,-3.5622,-3.4962,-3.4641,-3.4641,-3.3998,-3.3981,-3.4489,-3.4489,-3.4844,-3.547,-3.5571,0.0,-3.5694,-3.6131,0.0,0.0,0.0,0.0,0.0,0.0,0.0,0.0,0.0,0.0,0.0,0.0,0.0,0.0,0.0,0.0,0.0,0.0,0.0,0.0,0.0,0.0,-3.8289,-3.8241,-3.8241,-3.8241,0.0,-3.8192,-3.8192,-3.8192,-3.8192,0.0,0.0,0.0,0.0,0.0,0.0,0.0,-3.686,-3.686,-3.69,-3.69,-3.69,-3.7055,-3.7395,-3.7469,-3.7667,-3.8088,-3.8192,-3.8192,-3.8192,-3.8433,0.0,0.0,0.0,0.0,0.0,0.0,0.0,0.0,0.0,0.0,0.0,0.0,0.0,0.0,0.0,0.0,0.0,0.0,0.0,0.0,0.0,0.0,0.0,0.0,0.0,0.0,0.0,0.0,0.0,-3.7524,-3.7152,-3.7152,-3.6821,-3.6557,0.0,0.0,0.0,0.0,0.0,0.0,0.0,0.0,0.0,-3.4996,-3.4979,-3.4793,-3.4387,-3.4455,-3.4489,-3.4489,-3.459,-3.459,-3.4489,-3.4489,-3.4675,-3.4996,-3.5284,-3.5608,-3.6002,-3.5915,-3.6199,-3.6678,0.0,0.0,0.0,0.0,-3.8192,-3.8192,-3.8241,-3.8241,-3.8241,-3.8256,0.0,0.0,0.0,0.0,0.0,0.0,0.0,0.0,0.0,0.0,-3.8192,-3.8192,-3.8192,-3.8192,-3.8192,-3.8192,-3.8192,0.0,-3.8192,-3.8192,-3.8192,0.0,0.0,0.0,0.0,-3.7721,-3.7283,-3.745,-3.7631,-3.7631,-3.7631,-3.7703,-3.788,-3.788,-3.7967,-3.8192,-3.8192,-3.8192,-3.8192,-3.8465,-3.8523,0.0,0.0,0.0,0.0,0.0,0.0,0.0,0.0,0.0,0.0,0.0,0.0,0.0,0.0,0.0,0.0,0.0,0.0,0.0,0.0,0.0,0.0,0.0,0.0,0.0,0.0,0.0,0.0,-3.7152,-3.686,-3.6759,-3.6367,-3.6131,0.0,0.0,0.0,0.0,0.0,0.0,-3.5351,-3.5334,-3.4979,-3.4235,-3.4218,-3.4049,-3.3694,-3.4032,-3.4303,-3.4489,-3.4878,-3.4861,-3.4489,-3.4489,-3.4677,-3.4993,-3.5314,-3.5849,-3.6451,-3.6182,-3.6416,-3.69,-3.715,-3.7541,-3.802,-3.814,-3.8192,-3.8192,-3.8192,-3.8192,-3.8192,-3.8192,-3.8192,-3.8241,-3.8433,0.0,0.0,0.0,0.0,-3.8192,-3.8192,-3.8192,-3.8192,-3.8192,-3.8192,-3.8192,-3.8192,-3.8192,-3.8192,0.0,-3.8192,-3.8192,-3.8192,0.0,0.0,-3.7721,-3.7985,-3.8054,-3.7703,-3.7967,-3.8192,-3.8192,-3.8192,-3.8192,-3.8192,-3.8192,-3.8192,-3.8192,-3.8274,-3.8289,-3.8289,-3.8646,-3.8778,-3.8718,0.0,0.0,0.0,0.0,0.0,0.0,0.0,0.0,0.0,0.0,0.0,0.0,0.0,0.0,0.0,0.0,0.0,0.0,0.0,0.0,0.0,0.0,0.0,0.0,0.0,0.0,0.0,0.0,0.0,-3.6385,-3.5915,0.0,0.0,0.0,0.0,-3.5622,-3.5622,-3.5301,-3.459,-3.4556,-3.4218,-3.3491,-3.3457,-3.3778,-3.4438,-3.3795,-3.3812,-3.4489,-3.3829,-3.3863,-3.4489,-3.4489,-3.5138,-3.6207,-3.6232,-3.6481,-3.69,-3.7283,-3.7208,-3.6978,-3.7828,-3.788,-3.7578,-3.802,-3.8192,-3.8192,-3.8192,-3.8192,-3.8192,-3.8192,-3.8192,-3.8192,-3.8225,-3.8207,0.0,0.0,-3.8192,-3.8192,-3.8192,-3.8192,-3.8192,-3.8192,-3.8192,-3.8192,-3.8192,-3.8192,-3.8192,0.0,-3.8192,-3.8192,-3.8192,0.0,-3.8192,-3.8192,-3.8174,-3.8192,-3.8192,-3.8192,-3.8192,-3.8192,-3.8192,-3.8192,-3.8192,-3.8192,-3.8192,-3.8192,-3.8433,-3.8585,-3.8585,-3.9127,-3.9313,-3.898,-3.958,0.0,0.0,0.0,0.0,0.0,0.0,0.0,0.0,0.0,0.0,0.0,0.0,0.0,0.0,0.0,0.0,0.0,0.0,0.0,0.0,0.0,0.0,0.0,0.0,0.0,0.0,0.0,0.0,-3.6343,-3.5871,0.0,-3.5622,-3.5622,-3.5419,-3.4928,-3.4895,-3.4573,-3.3829,-3.3795,-3.3457,-3.2713,-3.3152,-3.3305,-3.3068,-3.4252,-3.4962,-3.5233,-3.596,-3.6434,-3.6688,-3.6688,-3.7081,-3.7793,-3.8059,-3.8433,-3.8869,-3.9264,-3.8581,-3.7321,-3.7632,-3.7845,-3.7967,-3.814,-3.8192,-3.8192,-3.8192,-3.8192,-3.8192,-3.8192,-3.8192,-3.8192,-3.8192,-3.8192,-3.8192,-3.8192,-3.8192,-3.8192,-3.8192,-3.8192,-3.8192,-3.8192,-3.8192,-3.8192,-3.8192,-3.8192,-3.8192,-3.8192,-3.8192,-3.8192,-3.8192,-3.8192,-3.8192,-3.8192,-3.8192,-3.8192,-3.8192,-3.8192,-3.8192,-3.8192,-3.8192,-3.8192,-3.8192,-3.8192,-3.8274,-3.8465,-3.8541,-3.8688,-3.8857,-3.9261,-3.9433,-3.9313,-3.9693,-3.9848,0.0,0.0,0.0,0.0,0.0,0.0,0.0,0.0,0.0,0.0,0.0,0.0,0.0,0.0,0.0,0.0,0.0,0.0,0.0,0.0,0.0,0.0,0.0,0.0,0.0,-3.7055,-3.6597,-3.6343,-3.6045,-3.5698,-3.5267,-3.5233,-3.4928,-3.4184,-3.4134,-3.3914,-3.344,-3.3406,-3.3186,-3.2679,-3.3152,-3.3288,-3.3017,-3.4506,-3.5504,-3.6028,-3.7043,-3.7669,-3.7905,-3.7905,-3.823,-3.8834,-3.9073,-3.9527,-4.0107,-4.0402,-3.9734,-3.8582,-3.8528,-3.8707,-3.8971,-3.8971,-3.8971,-3.8971,-3.8971,-3.9055,-3.9137,-3.9137,-3.9137,-3.9137,-3.9137,-3.9137,-3.9104,-3.9005,-3.9055,-3.9049,-3.8679,-3.859,-3.8536,-3.8246,-3.8192,-3.8192,-3.8192,-3.8192,-3.8192,-3.8192,-3.8192,-3.8192,-3.8192,-3.8192,-3.8192,-3.8192,-3.8192,-3.8192,-3.8192,-3.8192,-3.8192,-3.8192,-3.8192,-3.8241,-3.8322,-3.8241,-3.8336,-3.87,-3.873,-3.8876,-3.9163,-3.9483,-3.9623,-3.9623,-3.9804,-3.9889,-3.9889,0.0,0.0,0.0,0.0,0.0,0.0,0.0,0.0,0.0,0.0,0.0,0.0,0.0,0.0,0.0,0.0,0.0,0.0,0.0,0.0,0.0,0.0,0.0,-3.7542,-3.747,-3.7173,-3.6374,-3.6266,-3.5805,-3.4634,-3.4523,-3.4218,-3.3491,-3.344,-3.3423,-3.3406,-3.3406,-3.3406,-3.3406,-3.3423,-3.3778,-3.4489,-3.4539,-3.5301,-3.6772,-3.6806,-3.7195,-3.7905,-3.7922,-3.8431,-3.9276,-3.9294,-3.9797,-4.0582,-4.0582,-4.0672,-4.076,-4.0582,-4.051,-4.051,-4.051,-4.051,-4.051,-4.051,-4.0735,-4.1029,-4.1029,-4.1029,-4.1029,-4.1029,-4.1029,-4.0932,-4.0615,-4.0769,-4.0767,-3.9724,-3.9458,-3.9259,-3.8479,-3.8298,-3.828,-3.8264,-3.8264,-3.8264,-3.8264,-3.8264,-3.8246,-3.8192,-3.8192,-3.8192,-3.8192,-3.8192,0.0,-3.8192,-3.8192,-3.8192,-3.8192,-3.8192,-3.8289,-3.8585,-3.8336,-3.8446,-3.898,-3.9008,-3.9163,-3.9502,-3.9758,-3.9889,-3.9889,-3.9889,-3.9889,-3.9889,0.0,0.0,0.0,0.0,0.0,0.0,0.0,0.0,0.0,0.0,0.0,0.0,0.0,0.0,0.0,0.0,0.0,0.0,0.0,0.0,0.0,-3.8478,-3.8182,-3.7259,-3.6843,-3.6451,-3.5941,-3.5619,-3.5402,-3.5328,-3.5318,-3.4996,-3.4252,-3.4201,-3.3964,-3.344,-3.3406,-3.3406,-3.3406,-3.3914,-3.4286,-3.4489,-3.5605,-3.6366,-3.6789,-3.733,-3.7874,-3.8368,-3.8917,-3.9668,-4.0517,-4.1144,-4.1773,-4.2395,-4.2395,-4.2432,-4.2359,-4.1053,-4.0581,-4.0721,-4.0545,-4.0564,-4.0669,-4.0987,-4.113,-4.1237,-4.1382,-4.1481,-4.1491,-4.1393,-4.1412,-4.1393,-4.1262,-4.1292,-4.1297,-4.1021,-4.0917,-4.0818,-4.0345,-4.0244,-4.0145,-3.9928,-3.9876,-3.9876,-3.9876,-3.9876,-3.9514,-3.8373,-3.8192,-3.8192,-3.8192,-3.8192,0.0,-3.8192,-3.8192,-3.8192,-3.8192,-3.8192,-3.8289,-3.8585,-3.8541,-3.8748,-3.9313,-3.9364,-3.9483,-3.9781,-3.9867,-3.9889,-3.9889,-3.9889,-3.9889,0.0,0.0,0.0,0.0,0.0,0.0,0.0,0.0,0.0,0.0,0.0,0.0,0.0,0.0,0.0,0.0,0.0,0.0,0.0,0.0,0.0,0.0,-3.8658,-3.8279,-3.7307,-3.7148,-3.6952,-3.6518,-3.6253,-3.5931,-3.5463,-3.5437,-3.5044,-3.4083,-3.4032,-3.3981,-3.3863,-3.3863,-3.3998,-3.432,-3.4742,-3.4962,-3.4962,-3.5859,-3.6525,-3.7058,-3.7502,-3.8071,-3.8764,-3.9303,-4.0084,-4.1135,-4.1622,-4.2309,-4.316,-4.316,-4.3196,0.0,0.0,0.0,0.0,0.0,-4.1912,-4.2014,-4.2347,-4.2571,-4.2716,-4.2837,-4.2873,-4.29,-4.2782,-4.2782,-4.2782,-4.2552,-4.26,-4.2594,-4.2143,-4.1991,-4.1869,-4.1354,-4.12,-4.1156,-4.095,-4.0918,-4.0918,-4.0918,-4.0918,0.0,-3.974,-3.9483,-3.9385,-3.9385,-3.9191,-3.9067,-3.9067,-3.8774,-3.8523,-3.8523,-3.8523,-3.8658,-3.8933,-3.8847,0.0,0.0,0.0,-3.9623,-3.9889,-3.9889,0.0,0.0,0.0,-3.9889,-3.9889,0.0,0.0,0.0,-3.9889,-3.9889,0.0,0.0,0.0,0.0,0.0,0.0,0.0,0.0,0.0,0.0,0.0,0.0,0.0,0.0,0.0,0.0,-3.8847,-3.8449,-3.7643,-3.7963,-3.8052,-3.7417,-3.7362,-3.6836,-3.5521,-3.5388,-3.4967,-3.3862,-3.3769,-3.4016,-3.466,-3.4694,0.0,0.0,0.0,-3.5739,-3.5739,-3.5739,-3.6283,-3.7353,-3.7353,-3.7912,-3.8977,-3.9188,-3.9895,-4.1022,-4.1261,-4.203,-4.3087,-4.3178,-4.3322,-4.3446,-4.3286,-4.3232,-4.3304,-4.3612,-4.3758,-4.3804,-4.4087,0.0,0.0,-4.465,-4.4676,-4.4676,-4.4599,-4.4572,-4.4493,-4.4125,-4.4242,-4.4214,-4.321,-4.2936,-4.275,-4.2023,-4.1837,-4.1808,-4.1779,-4.1779,-4.1779,-4.1779,-4.1779,-4.1779,-4.1779,-4.1391,-4.1061,-4.1061,-4.07,-4.043,-4.043,-3.9751,-3.925,-3.9157,0.0,0.0,-3.9477,-3.9216,-3.9294,-3.9848,-3.9689,-3.9647,-3.9889,-3.9889,-3.9889,-3.9889,-3.9889,-3.9889,-3.9889,-3.9889,-3.9889,-3.9889,-3.9889,-3.9889,0.0,0.0,0.0,0.0,0.0,0.0,0.0,0.0,0.0,0.0,0.0,0.0,0.0,0.0,0.0,-3.9458,-3.9357,-3.9099,-3.8456,-3.8462,-3.8012,-3.6684,-3.6542,-3.6557,-3.6558,-3.6571,-3.6462,-3.6225,-3.5918,-3.5796,-3.5933,-3.595,-3.6019,-3.6174,-3.6474,-3.6661,-3.6661,-3.6661,-3.6811,-3.7093,0.0,0.0,-3.8061,-3.876,-3.9374,-3.9979,-4.1304,-4.2067,-4.2445,-4.3084,-4.3566,-4.3846,-4.3548,-4.3495,-4.3627,-4.386,-4.4042,-4.4231,-4.4553,-4.4726,-4.4795,-4.5,-4.5129,-4.5151,-4.5019,-4.4972,0.0,-4.4808,-4.4783,-4.4764,-4.4543,-4.4461,-4.4372,-4.3951,-4.3858,-4.3774,-4.349,-4.3448,-4.3448,-4.3448,-4.3448,-4.3448,-4.3448,-4.2303,-4.1412,-4.1412,-4.1311,-4.1277,-4.1277,-4.1128,-4.0764,-4.0132,-4.0058,-3.9908,-3.9514,-3.9433,-3.9532,-3.9889,-3.9867,-3.9845,-3.9889,-3.9889,-3.9889,-3.9889,-3.9889,-3.9889,-3.9889,-3.9889,-3.9889,-3.9889,-3.9889,-3.9889,0.0,0.0,0.0,0.0,0.0,0.0,0.0,0.0,0.0,0.0,0.0,-3.8391,-3.8307,0.0,-3.8743,-3.8577,-3.8407,-3.8182,-3.7888,-3.809,-3.8003,-3.7336,-3.7252,-3.7238,-3.7193,-3.7208,-3.7132,-3.69,-3.6701,-3.6597,-3.6597,-3.6597,-3.6597,-3.6597,-3.6821,-3.696,-3.696,-3.6999,-3.719,-3.7396,-3.7396,-3.7667,-3.8135,-3.8567,-3.9104,-3.9761,-4.1144,-4.2009,-4.2535,-4.3489,-4.4011,-4.4192,-4.4011,-4.3992,-4.4065,-4.4318,-4.4438,-4.4599,-4.4934,-4.5045,-4.5068,-4.5213,-4.5275,-4.5297,-4.517,-4.5148,-4.5148,-4.508,-4.4991,-4.4943,-4.4943,-4.4938,-4.487,-4.4681,-4.4655,-4.461,-4.443,-4.4402,-4.4402,-4.4402,-4.4402,-4.4402,-4.4402,-4.3735,-4.3144,-4.2978,-4.2752,-4.2589,-4.2589,-4.2213,-4.18,-4.1405,-4.1367,-4.1249,-4.0976,-4.058,-4.0212,-3.9908,-3.9889,-3.9889,-3.9889,-3.9889,-3.9889,-3.9889,-3.9889,-3.9889,-3.9889,-4.0347,-4.0555,-4.0574,-4.0972,-4.0707,0.0,0.0,0.0,0.0,0.0,0.0,0.0,-3.7786,-3.7676,-3.7635,-3.7636,-3.7621,-3.7578,-3.7615,-3.7641,-3.7605,-3.7371,-3.7168,-3.7125,-3.7478,-3.7784,-3.7885,-3.814,-3.8104,-3.7667,-3.7632,-3.7523,-3.7188,-3.7094,-3.7073,-3.7073,-3.7055,-3.7076,-3.7076,-3.721,-3.7285,-3.7285,-3.736,-3.7596,-3.7929,-3.7929,-3.815,-3.8541,-3.8585,-3.9032,-3.9792,-4.1041,-4.2042,-4.2861,-4.4018,-4.4465,-4.4465,-4.4565,-4.4565,-4.4591,-4.4726,-4.4843,-4.4934,-4.5213,-4.5297,-4.5297,-4.5297,-4.5297,-4.5297,-4.5254,-4.5213,-4.5192,-4.5148,-4.508,-4.5014,-4.5014,-4.4967,-4.4919,-4.4919,-4.4895,-4.4895,-4.4895,-4.4895,-4.4895,-4.4895,-4.4895,-4.4895,-4.4895,-4.4895,-4.4802,-4.4557,-4.4184,-4.3929,-4.3929,-4.3322,-4.2829,-4.2678,-4.2659,-4.2583,-4.2412,-4.1825,-4.1143,-4.0419,-4.0382,-4.0382,-4.0382,-4.0382,-4.0382,-4.0382,-4.0407,-4.0407,-4.0382,-4.1127,-4.1468,-4.1465,-4.2109,-4.1692,-3.5986,-3.6052,-3.6092,-3.6092,-3.617,-3.6255,0.0,-3.6161,-3.6114,-3.5982,-3.658,-3.7013,-3.6786,-3.7306,-3.774,-3.7623,-3.7585,-3.7431,-3.7147,-3.7156,-3.7113,-3.6887,-3.7864,-3.8446,-3.8174,-3.8106,-3.8106,-3.8072,-3.7774,-3.7613,-3.7613,-3.7667,-3.7703,-3.7703,-3.805,-3.8234,-3.8234,-3.8267,-3.8332,-3.8428,-3.8428,-3.8646,-3.8998,-3.9045,-3.9221,-3.9607,-4.1177,-4.2321,-4.3146,-4.4285,-4.4751,-4.4776,-4.5087,-4.5213,-4.5173,-4.491,-4.5,-4.5256,-4.5297,-4.5297,-4.5297,-4.5297,-4.5297,-4.5297,-4.5297,-4.5254,-4.5192,-4.5192,-4.5148,-4.5103,-4.5103,-4.5057,-4.4991,-4.4991,-4.4943,-4.4895,-4.4895,-4.4895,-4.4895,-4.4895,-4.4895,-4.4895,-4.4895,-4.4895,-4.4895,-4.4846,-4.4795,-4.4762,-4.4762,-4.4687,-4.4345,-4.3625,-4.3549,-4.3246,-4.2469,-4.2318,-4.2223,-4.2128,-4.2128,-4.2128,-4.2128,-4.2128,-4.2128,-4.2128,-4.2284,-4.2284,-4.2128,-4.2398,-4.2436,-4.228,-4.2375,-4.2299,-3.5706,-3.5717,-3.5763,-3.5834,-3.5879,-3.5895,-3.5956,-3.5968,-3.5932,-3.5841,-3.6073,-3.6262,-3.6093,-3.6323,-3.6471,-3.6351,-3.632,-3.6236,-3.6007,-3.6388,-3.6592,-3.6318,-3.7592,-3.8312,-3.7906,-3.7708,-3.7812,-3.8285,-3.8186,-3.8119,-3.8119,-3.8135,-3.815,-3.815,-3.8332,-3.8446,-3.8446,-3.8676,-3.8826,-3.8855,-3.9008,-3.9173,-3.9324,-3.9324,-3.9721,-4.0476,-4.1156,-4.2267,-4.3653,-4.4148,-4.463,-4.5109,-4.5235,-4.5297,-4.5277,-4.5132,-4.5173,-4.5297,-4.5297,-4.5297,-4.5297,-4.5297,-4.5297,-4.5297,-4.5297,-4.5275,-4.5275,-4.5275,-4.5213,-4.5148,-4.5148,-4.5103,-4.5057,-4.5057,-4.5057,-4.501,-4.4967,-4.4943,-4.4943,-4.4895,-4.4895,-4.4895,-4.4895,-4.4895,-4.4895,-4.4895,-4.4895,-4.4895,-4.4895,-4.4895,-4.4762,-4.4421,-4.4402,-4.4061,-4.3227,-4.317,-4.2943,-4.2431,-4.2412,-4.2458,-4.2569,-4.2569,-4.2614,-4.2698,-4.2757,-4.2776,-4.2698,-4.3254,-4.3464,-4.3384,-4.3899,-4.4105,-3.554,-3.5572,-3.5621,-3.5779,-3.58,-3.5806,-3.5927,-3.5936,-3.5936,-3.591,-3.586,-3.5794,-3.5718,-3.566,-3.5599,-3.547,-3.5418,-3.5383,-3.5285,-3.5725,-3.6004,-3.5799,-3.6948,-3.7713,-3.7545,-3.7663,-3.8003,-3.8573,-3.8566,-3.8566,-3.864,-3.8615,-3.8615,-3.8688,-3.8748,-3.8778,-3.8778,-3.9064,-3.9219,-3.9219,-3.9427,-3.9551,-3.9623,-3.9693,-4.0129,-4.0891,-4.1119,-4.2003,-4.3348,-4.3825,-4.438,-4.4972,-4.5201,-4.5297,-4.5297,-4.5297,-4.5297,-4.5297,-4.5297,-4.5297,-4.5297,-4.5297,-4.5297,-4.5297,-4.5297,-4.5297,-4.5297,-4.5297,-4.5275,-4.5213,-4.5213,-4.517,-4.5125,-4.5125,-4.5125,-4.5103,-4.5057,-4.5033,-4.5014,-4.4967,-4.4962,-4.4943,-4.4919,-4.4943,-4.4943,-4.4919,-4.4943,-4.4943,-4.4895,-4.4895,-4.4895,-4.4895,-4.4895,-4.4692,-4.4151,-4.4094,-4.3852,-4.3273,-4.3235,-4.33,-4.3443,-4.3443,-4.3484,-4.3597,-4.3614,-4.3614,-4.3597,-4.4209,-4.4497,-4.4479,-4.5113,-4.5341,-3.5157,-3.5254,-3.5368,-3.5546,-3.566,-3.5721,-3.5791,-3.5806,-3.5827,-3.5899,-3.59,-3.5856,-3.5725,-3.5693,-3.5668,-3.5599,-3.5483,-3.5391,-3.5391,-3.53,-3.5231,-3.5231,-3.5779,-3.6461,-3.7236,-3.8432,-3.916,-3.9178,-3.9008,-3.9008,-3.9275,-3.9146,-3.9192,-3.9458,-3.9458,-3.9458,-3.9458,-3.9483,-3.9502,-3.9502,-3.9502,-3.9647,-3.9892,-4.0157,-4.0291,-4.0368,-4.1151,-4.1514,-4.1705,-4.3329,-4.4036,-4.4131,-4.4972,-4.5297,-4.5297,-4.5297,-4.5297,-4.5297,-4.5297,-4.5297,-4.5297,-4.5297,-4.5297,-4.5297,-4.5297,-4.5297,-4.5297,-4.5297,-4.5297,-4.5297,-4.5297,-4.5254,-4.5192,-4.5192,-4.5148,-4.5103,-4.5103,-4.5103,-4.5103,-4.5084,-4.5084,-4.5061,-4.501,-4.5057,-4.5061,-4.501,-4.5038,-4.5057,-4.4919,-4.4895,-4.4895,-4.4895,-4.4895,-4.4967,-4.5132,-4.5154,-4.5199,-4.5304,-4.5323,-4.5323,-4.5323,-4.5323,-4.5323,-4.5323,-4.5451,-4.5451,-4.5323,-4.547,-4.549,-4.5362,-4.5381,-4.54,-3.4982,-3.5016,-3.5078,-3.5347,-3.5418,-3.5491,-3.5694,-3.573,-3.5747,-3.5829,-3.5836,-3.582,-3.5825,-3.5821,-3.5794,-3.5676,-3.559,-3.5495,-3.5405,-3.5281,-3.5209,-3.5209,-3.5886,-3.6671,-3.749,-3.8188,-3.8833,-3.9352,-3.9338,-3.9338,-3.9414,-3.9383,-3.9401,-3.9502,-3.9502,-3.9502,-3.9502,-3.967,-3.9762,-3.9762,-3.9954,-4.0077,-4.0176,-4.0253,-4.031,-4.0329,-4.0597,-4.1017,-4.1533,-4.2106,-4.2679,-4.3291,-4.4112,-4.4437,-4.4513,-4.5086,-4.5297,-4.5297,-4.5297,-4.5297,-4.5297,-4.5297,-4.5297,-4.5297,-4.5297,-4.5297,-4.5297,-4.5297,-4.5297,-4.5297,-4.5297,-4.5297,-4.5275,-4.5275,-4.5254,-4.5213,-4.517,-4.5239,-4.5284,-4.5244,-4.5323,-4.5417,-4.5399,-4.5417,-4.5417,-4.5399,-4.5241,-4.5129,-4.5161,-4.5163,-4.5225,-4.5361,-4.5361,-4.5399,-4.5472,-4.5472,-4.5454,-4.5473,-4.5473,-4.5493,-4.5528,-4.5528,-4.558,-4.5661,-4.5708,-4.5708,-4.5661,-4.5708,-4.5708,-4.5661,-4.5661,-4.5613,-3.4551,-3.4593,-3.4715,-3.5059,-3.5155,-3.523,-3.5499,-3.5553,-3.5678,-3.6148,-3.6009,-3.5901,-3.6266,-3.6094,-3.5869,-3.5781,-3.5704,-3.56,-3.5523,-3.5399,-3.5326,-3.5285,-3.6036,-3.6881,-3.7617,-3.823,-3.8896,-3.9705,-3.9693,-3.9693,-3.9781,-3.9693,-3.9693,-3.9781,-3.9781,-3.9781,-3.9781,-3.9954,-4.0038,-4.0057,-4.0234,-4.031,-4.031,-4.0345,-4.0381,-4.0381,-4.043,-4.0735,-4.1234,-4.1522,-4.1963,-4.2558,-4.3403,-4.3711,-4.3769,-4.4344,-4.4747,-4.5054,-4.5285,-4.5361,-4.5381,-4.5419,-4.5437,-4.5437,-4.5437,-4.5437,-4.5437,-4.5437,-4.5437,-4.5437,-4.5437,-4.5437,-4.5437,-4.5437,-4.5437,-4.5419,-4.5381,-4.5435,-4.5503,-4.5449,-4.5552,-4.563,-4.5596,-4.5615,-4.5615,-4.563,-4.5453,-4.5343,-4.5398,-4.5416,-4.5468,-4.5587,-4.5603,-4.5619,-4.5634,-4.5654,-4.5638,-4.561,-4.561,-4.5626,-4.5677,-4.5677,-4.5708,-4.58,-4.58,-4.58,-4.58,-4.58,-4.58,-4.58,-4.58,-4.5752,-3.3906,-3.4056,-3.4176,-3.4733,-3.4851,-3.4925,-3.523,-3.532,-3.5669,-3.6756,-3.6401,-3.6176,-3.7018,-3.6502,-3.5965,-3.5962,-3.5827,-3.5702,-3.5693,-3.5641,-3.5543,-3.5432,-3.6136,-3.691,-3.7575,-3.8398,-3.924,-4.01,-4.002,-4.0017,-4.0291,-4.0077,-4.0038,-4.0291,-4.031,-4.031,-4.031,-4.031,-4.031,-4.031,-4.031,-4.031,-4.0291,-4.0427,-4.0489,-4.0504,-4.0629,-4.0694,-4.0752,-4.1513,-4.1841,-4.1919,-4.2789,-4.3137,-4.3137,-4.3175,-4.3717,-4.4534,-4.517,-4.543,-4.5541,-4.566,-4.5703,-4.5703,-4.5703,-4.5703,-4.5703,-4.5703,-4.5703,-4.5703,-4.5703,-4.5703,-4.5703,-4.5703,-4.5703,-4.5703,-4.5703,-4.5717,-4.5717,-4.5717,-4.5717,-4.5717,-4.5636,-4.5636,-4.565,-4.5717,-4.5731,-4.5703,-4.5634,-4.5619,-4.5619,-4.5615,-4.5634,-4.565,-4.5718,-4.5718,-4.5733,-4.5814,-4.5814,-4.5814,-4.58,-4.58,-4.58,-4.58,-4.58,-4.58,-4.58,-4.58,-4.58,-4.58,-4.58,-4.58,-3.3458,-3.3514,-3.3634,-3.4176,-3.4292,-3.4445,-3.4888,-3.5594,-3.6232,-3.6614,-3.713,-3.7633,-3.7999,-3.7363,-3.6814,-3.6852,-3.625,-3.5755,-3.5702,-3.5641,-3.5596,-3.5543,-3.5755,-3.6158,-3.6887,-3.716,-3.7578,-3.8322,-3.949,-4.0234,-4.0291,-4.0234,-4.0234,-4.031,-4.031,-4.031,-4.031,-4.031,-4.031,-4.031,-4.031,-4.031,-4.031,-4.0346,-4.0413,-4.0504,-4.0534,-4.0602,-4.0713,-4.0926,-4.1003,-4.11,-4.1919,-4.2228,-4.2305,-4.2963,-4.3349,-4.3576,-4.3833,-4.4686,-4.566,-4.5689,-4.5703,-4.5703,-4.5703,-4.5703,-4.5703,-4.5703,-4.5703,-4.5703,-4.5703,-4.5703,-4.5703,-4.5703,-4.5703,-4.5703,-4.5703,-4.5835,-4.5914,-4.5914,-4.6008,-4.6074,-4.6046,-4.6046,-4.6046,-4.6074,-4.6074,-4.6027,-4.5902,-4.5854,-4.5854,-4.5947,-4.5925,-4.5891,-4.5922,-4.5922,-4.591,-4.5893,-4.5861,-4.5848,-4.5814,-4.58,-4.58,-4.58,-4.58,-4.58,-4.58,-4.58,-4.58,-4.58,-4.58,-4.58,-3.3262,-3.3408,-3.3606,-3.3891,-3.4043,-3.4349,-3.5122,-3.574,-3.6407,-3.7412,-3.781,-3.8156,-3.8738,-3.7882,-3.7103,-3.7148,-3.6423,-3.5836,-3.5788,-3.5753,-3.5706,-3.5641,-3.562,-3.589,-3.6636,-3.6699,-3.6972,-3.7653,-3.861,-3.9164,-3.9164,-3.9164,-3.9164,-3.9164,-3.9527,-3.9909,-4.031,-4.031,-4.031,-4.031,-4.0363,-4.0398,-4.0379,-4.0523,-4.0588,-4.0681,0.0,-4.0818,-4.0888,-4.0888,-4.0888,-4.0927,-4.1364,-4.1558,-4.1616,-4.2101,-4.2509,-4.283,-4.2887,-4.3724,-4.4849,-4.5218,-4.5606,-4.5917,-4.5917,-4.5917,-4.5917,-4.5917,-4.5917,-4.5917,-4.5917,-4.5917,-4.5917,-4.5917,-4.5917,-4.5917,-4.5917,-4.6008,-4.6084,-4.6084,-4.6146,-4.6196,-4.6196,-4.6196,-4.6196,-4.6196,-4.6196,-4.6162,-4.6093,-4.6047,-4.6066,-4.6138,-4.6102,-4.6075,-4.6056,-4.6037,-4.6007,-4.5917,-4.5905,-4.588,-4.5814,-4.58,-4.58,-4.58,-4.58,-4.58,-4.58,-4.58,-4.58,-4.58,-4.58,-4.58,-3.2847,-3.3229,-3.3542,-3.3615,-3.3899,-3.4407,-3.5371,-3.5653,-3.6182,-3.8004,-3.7907,-3.7786,-3.8723,-3.7813,-3.6918,-3.695,-3.6367,-3.5907,-3.5903,-3.5895,-3.5872,-3.5745,-3.5688,-3.5878,-3.6517,-3.6581,-3.6801,-3.7376,-3.7417,-3.7496,-3.7693,-3.7693,-3.7693,-3.7693,-3.8437,-3.9201,-3.9947,-3.9984,-4.0002,-3.9984,-4.023,-4.0346,-4.0361,-4.0707,-4.0878,-4.0907,-4.103,-4.1078,-4.111,-4.111,-4.111,-4.111,-4.111,-4.111,-4.111,-4.111,-4.1539,-4.2143,-4.2143,-4.2708,-4.3585,-4.4579,-4.5416,-4.604,-4.6157,-4.6196,-4.6196,-4.6196,-4.6196,-4.6196,-4.6196,-4.6196,-4.6196,-4.6196,-4.6196,-4.6196,-4.6196,-4.6196,-4.6196,-4.6196,-4.6196,-4.6196,-4.6196,-4.6196,-4.6196,-4.6196,-4.6196,-4.6196,-4.6196,-4.6196,-4.6189,-4.6189,-4.6189,-4.6146,-4.6093,-4.6084,-4.6027,-4.5929,-4.5898,-4.5893,-4.5841,-4.5827,-4.5827,-4.5827,-4.5827,-4.5827,-4.5827,-4.5814,-4.5794,-4.5814,-4.5814,-4.58,-3.0969,-3.1524,-3.2187,-3.2665,-3.3338,-3.3983,-3.4364,-3.4771,-3.5153,-3.5515,-3.5758,-3.5971,-3.6195,-3.6095,-3.5989,-3.6095,-3.6034,-3.5964,-3.5907,-3.5895,-3.5883,-3.5872,-3.5866,-3.5845,-3.5872,-3.5863,-3.5892,-3.5956,-3.5963,-3.6458,-3.7634,-3.7693,-3.7693,-3.7693,-3.7961,-3.8115,-3.8151,-3.8373,-3.843,-3.8331,-3.9166,-3.9593,-3.9631,-4.0377,-4.0807,-4.0907,-4.0926,0.0,-4.111,-4.111,-4.111,-4.111,-4.111,-4.111,-4.111,-4.111,-4.1188,-4.1305,-4.1305,-4.1851,-4.2786,-4.4384,-4.4988,-4.526,-4.5981,-4.6196,-4.6196,-4.6196,-4.6196,-4.6196,-4.6196,-4.6196,-4.6196,-4.6196,-4.6196,-4.6196,-4.6196,-4.6196,-4.6196,-4.6196,-4.6196,-4.6196,-4.6196,-4.6196,-4.6196,-4.6196,-4.6196,-4.6196,-4.6196,-4.6146,-4.613,-4.613,-4.6075,-4.6027,-4.6017,-4.6017,-4.6007,-4.5986,-4.5986,-4.5986,-4.5975,-4.5975,-4.5975,-4.5975,-4.5898,-4.5917,-4.5975,-4.5848,-4.5841,-4.5873,-4.5827,-4.58,-3.0697,-3.1024,-3.1397,-3.1647,-3.2125,-3.2735,-3.3425,-3.3751,-3.4101,-3.4756,-3.5054,-3.5254,-3.5496,-3.5253,-3.5193,-3.5716,-3.5538,-3.546,-3.5884,-3.5927,-3.5908,-3.5908,-3.584,-3.576,-3.5702,-3.5693,-3.5678,-3.5618,-3.5621,-3.5927,-3.6579,-3.6531,-3.6696,-3.7175,-3.7159,-3.737,-3.7808,-3.7926,-3.7995,-3.8009,-3.8551,-3.8819,-3.8849,-3.9335,-3.9593,-3.9673,-4.012,-4.0356,-4.0467,-4.0916,-4.111,-4.111,-4.111,-4.111,-4.111,-4.111,-4.111,-4.111,-4.111,-4.1344,-4.189,-4.3137,-4.415,-4.4968,-4.5397,-4.5845,-4.6196,-4.6196,-4.6196,-4.6196,-4.6196,-4.6196,-4.6196,-4.6196,-4.6196,-4.6196,-4.6196,-4.6196,-4.6196,-4.6196,-4.6196,-4.6196,-4.6196,-4.6196,-4.6196,-4.6196,-4.6196,-4.6196,-4.6196,-4.6162,-4.6146,-4.6146,-4.6111,-4.6102,-4.6102,-4.6102,-4.6084,-4.6047,-4.6037,-4.6047,-4.5997,-4.5997,-4.5997,-4.5997,-4.5975,-4.5975,-4.5997,-4.5941,-4.5929,-4.5953,-4.5929,-4.5898,-3.0405,-3.0612,-3.081,-3.0765,-3.1119,-3.1703,-3.2558,-3.2627,-3.282,-3.3866,-3.3978,-3.3987,-3.4337,-3.4109,-3.4082,-3.4769,-3.4778,-3.4937,-3.5639,-3.5825,-3.5899,-3.5889,-3.5801,-3.5745,-3.5745,-3.5745,-3.5721,-3.567,-3.5704,-3.5696,-3.5618,-3.5495,-3.5772,-3.6433,-3.6387,-3.668,-3.7401,-3.7436,-3.7513,-3.7583,-3.7909,-3.8058,-3.8077,-3.8377,-3.85,-3.8539,-3.9221,-3.9513,-3.9591,-4.0467,-4.0818,-4.0838,-4.1033,-4.111,-4.111,-4.111,-4.111,-4.111,-4.111,-4.111,-4.1208,-4.1851,-4.3098,-4.4403,-4.4793,-4.5377,-4.5962,-4.6157,-4.6196,-4.6196,-4.6196,-4.6196,-4.6196,-4.6196,-4.6196,-4.6196,-4.6196,-4.6196,-4.6196,-4.6196,-4.6196,-4.6196,-4.6196,-4.6196,-4.6196,-4.6196,-4.6196,-4.6196,-4.6196,-4.6196,-4.6196,-4.6196,-4.6196,-4.6196,-4.6196,-4.6196,-4.6189,-4.6111,-4.6111,-4.6093,-4.6056,-4.6037,-4.6037,-4.6037,-4.6027,-4.6027,-4.6037,-4.6007,-4.6007,-4.6017,-4.6007,-4.5997,-2.8796,-2.9484,-3.0283,-3.0283,-3.1001,-3.1778,-3.1894,-3.1432,-3.1091,-3.1388,-3.0966,-3.0614,-3.0835,-3.1564,-3.2154,-3.2252,-3.3633,-3.4726,-3.4819,-3.5447,-3.5908,-3.5894,-3.5883,-3.5883,-3.5883,-3.5883,-3.5878,-3.5872,-3.5878,-3.5806,-3.5618,-3.5596,-3.5615,-3.5701,-3.5757,-3.5796,-3.5797,-3.599,-3.6027,-3.5937,-3.6858,-3.7299,-3.7319,-3.8124,-3.85,-3.85,-3.8578,-3.8617,0.0,-3.9552,-3.9922,-4.0,-4.0799,-4.111,-4.111,-4.111,-4.111,-4.111,-4.111,-4.111,-4.111,-4.1188,-4.1812,-4.2825,-4.4423,-4.4949,-4.5183,-4.5981,-4.6196,-4.6196,-4.6196,-4.6196,-4.6196,-4.6196,-4.6196,-4.6196,-4.6196,-4.6196,-4.6196,-4.6196,-4.6196,-4.6196,-4.6196,-4.6196,-4.6196,-4.6196,-4.6196,-4.6196,-4.6196,-4.6196,-4.6196,-4.6196,-4.6196,-4.6196,-4.6196,-4.6196,-4.6196,-4.6196,-4.6196,-4.6189,-4.6189,-4.6189,-4.6189,-4.6189,-4.6111,-4.6111,-4.6189,-4.6066,-4.6027,-4.6084,-4.6027,-4.5997,-2.8827,-2.8998,-2.9235,-2.9415,-2.9789,-3.0161,-3.0312,-3.0202,-3.0133,-3.0345,-3.0236,-3.0177,-3.0419,-3.0826,-3.1294,-3.1876,-3.2611,-3.3496,-3.4545,-3.4979,-3.5362,-3.5836,-3.5908,-3.5908,-3.5908,-3.5908,-3.5908,-3.5908,-3.5833,-3.5779,-3.5784,-3.5696,-3.566,-3.566,-3.5641,-3.5641,-3.566,-3.5737,-3.5794,-3.5833,-3.6228,-3.6415,-3.6434,-3.6785,-3.6941,-3.696,-3.7487,-3.772,0.0,-3.8656,-3.9026,-3.9104,-3.998,-4.0312,-4.039,-4.0916,-4.111,-4.111,-4.111,-4.111,-4.111,-4.111,-4.1325,-4.1792,-4.2981,-4.4072,-4.4968,-4.5319,-4.5806,-4.6196,-4.6196,-4.6196,-4.6196,-4.6196,-4.6196,-4.6196,-4.6196,-4.6196,-4.6196,-4.6196,-4.6196,-4.6196,-4.6196,-4.6196,-4.6196,-4.6196,-4.6196,-4.6196,-4.6196,-4.6196,-4.6196,-4.6196,-4.6196,-4.6196,-4.6196,-4.6196,-4.6196,-4.6196,-4.6196,-4.6196,-4.6196,-4.6196,-4.6196,-4.6196,-4.6162,-4.6164,-4.6201,-4.6157,-4.6131,-4.6162,-4.6133,-4.6128,-2.9104,-2.8874,-2.8808,-2.8962,-2.9075,-2.9228,-2.9411,-2.957,-2.9732,-2.9915,-3.0061,-3.0203,-3.0443,-3.0576,-3.0839,0.0,0.0,-3.2617,-3.4111,-3.4498,-3.4935,-3.5749,-3.582,-3.5813,-3.5813,-3.5813,-3.582,-3.584,-3.5753,-3.5753,-3.5889,-3.5807,-3.5753,-3.5753,-3.5715,-3.5715,-3.5753,-3.5753,-3.5801,-3.5908,-3.5908,-3.5908,-3.5908,-3.5908,-3.5908,-3.5928,-3.6551,-3.6824,0.0,-3.7759,-3.8129,-3.8207,-3.9084,-3.9571,-3.9864,-4.0487,-4.0877,-4.111,-4.111,-4.111,-4.111,-4.111,-4.111,-4.1208,-4.1773,-4.2961,-4.4247,-4.4754,-4.5533,-4.6196,-4.6196,-4.6196,-4.6196,-4.6196,-4.619,-4.6203,-4.6203,-4.6195,-4.6201,-4.6201,-4.6201,-4.6201,-4.6203,-4.6203,-4.6196,-4.6203,-4.6196,-4.6203,-4.6203,-4.6203,-4.6209,-4.6201,-4.6201,-4.6189,-4.6203,-4.619,-4.6203,-4.6203,-4.6195,-4.6201,-4.6201,-4.6201,-4.6201,-4.6201,-4.6201,-4.6197,-4.6202,-4.6202,-4.6192,-4.6204,-4.6204,-4.6204,-2.9341,-2.9178,-2.9326,-2.9067,-2.9293,-2.9608,-2.9608,-2.9751,-2.995,-3.008,-3.0152,-3.0252,-3.0463,-3.0607,-3.07,-3.071,-3.1495,-3.2402,-3.3295,-3.4033,-3.4795,-3.5613,-3.5641,-3.5588,-3.5588,-3.5588,-3.564,-3.5693,-3.5693,-3.5753,-3.5889,-3.5908,-3.5908,-3.5908,-3.5908,-3.5908,-3.5908,-3.5908,-3.5908,-3.5908,-3.5908,-3.5908,-3.5908,-3.5908,-3.5908,-3.5908,-3.5908,-3.5908,0.0,-3.6844,-3.7214,-3.7292,-3.8168,-3.9045,-3.9805,-3.9805,-4.037,-4.111,-4.111,-4.111,-4.111,-4.111,-4.111,-4.111,-4.111,-4.1675,-4.2689,-4.4403,-4.5533,-4.6196,-4.6196,-4.6196,-4.6196,-4.6196,-4.6195,-4.6206,-4.6206,-4.6209,-4.6204,-4.6204,-4.6204,-4.6198,-4.6191,-4.6206,-4.6192,-4.6203,-4.6196,-4.6196,-4.6201,-4.6206,-4.6199,-4.6202,-4.6204,-4.6206,-4.6209,-4.6206,-4.6206,-4.6206,-4.6192,-4.6204,-4.6204,-4.6204,-4.6204,-4.6204,-4.6204,-4.6204,-4.6204,-4.6204,-4.6204,-4.6204,-4.6204,-4.6204,-2.9869,-2.9681,-2.9716,-2.9626,-2.9715,-2.9803,-2.9803,-2.9931,-3.0061,-3.0152,-3.0301,-3.0452,-3.0614,-3.0667,-3.0713,-3.0753,-3.1015,-3.169,-3.3073,-3.3451,-3.4107,-3.5466,-3.5609,-3.5607,-3.5607,-3.5519,-3.5519,-3.5611,-3.564,-3.5669,-3.5753,-3.5846,-3.5908,-3.5908,-3.5908,-3.5908,-3.5908,-3.5908,-3.5908,-3.5908,-3.5908,-3.5908,-3.5908,-3.5908,-3.5908,-3.5908,-3.5908,-3.5908,-3.5928,-3.6201,-3.6317,-3.6395,-3.7272,-3.7779,-3.811,-3.8694,-3.9454,-4.0214,-4.0214,-4.0604,-4.111,-4.111,-4.1089,-4.1096,-4.1096,-4.166,-4.2669,-4.4403,-4.5105,-4.5455,-4.604,-4.6196,-4.6196,-4.6196,-4.6195,-4.6206,-4.6206,-4.6189,-4.6204,-4.6204,-4.6204,-4.6202,-4.6198,-4.6195,-4.6192,-4.6206,-4.6206,-4.6206,-4.6195,-4.6195,-4.6198,-4.6204,-4.6204,-4.62,-4.6206,-4.6192,-4.6195,-4.6195,-4.6202,-4.6204,-4.6204,-4.6204,-4.6204,-4.6204,-4.6204,-4.6228,-4.6269,-4.6269,-4.6268,-4.6262,-4.6262,-4.6262,-3.0213,-2.9943,-2.9943,-2.9943,-2.9984,-3.0042,-3.0079,-3.0196,-3.0301,-3.0337,-3.0468,-3.06,-3.0676,-3.0713,-3.0737,-3.0757,-3.0765,-3.1203,-3.2499,-3.2912,-3.3674,-3.5245,-3.5372,-3.5359,-3.5432,-3.5364,-3.5378,-3.5507,-3.5566,-3.564,-3.5693,-3.5833,-3.5908,-3.5908,-3.5908,-3.5908,-3.5908,-3.5908,-3.5908,-3.5908,-3.5908,-3.5908,-3.5908,-3.5908,-3.5908,-3.5908,-3.5908,-3.5908,0.0,-3.5908,-3.5899,-3.5948,-3.6494,-3.6913,-3.7277,-3.7804,-3.856,-3.936,-3.9692,-4.016,-4.0667,-4.0983,-4.1094,-4.1111,-4.1111,-4.1683,-4.2563,-4.3656,-4.4417,-4.5021,-4.5567,-4.5958,-4.6192,-4.6192,-4.6218,-4.6237,-4.6237,-4.6247,-4.623,-4.623,-4.623,-4.623,-4.6249,-4.6249,-4.6229,-4.6205,-4.6204,-4.6205,-4.6229,-4.6249,-4.6249,-4.623,-4.623,-4.623,-4.623,-4.6249,-4.6249,-4.6249,-4.623,-4.623,-4.623,-4.623,-4.623,-4.623,-4.623,-4.6268,-4.6301,-4.6301,-4.6295,-4.63,-4.63,-4.63,0.0,-3.0062,-3.0035,-3.0035,-3.0138,-3.0254,-3.0395,-3.0521,0.0,-3.0607,-3.0656,-3.0704,-3.0699,-3.0757,-3.0778,-3.0701,-3.07,-3.0951,-3.1681,-3.2459,-3.3494,-3.4983,-3.5,-3.4963,-3.5157,-3.5193,-3.5254,-3.5378,-3.5507,-3.562,-3.5685,-3.5827,-3.5883,-3.5908,-3.5908,-3.5908,-3.5908,-3.5908,-3.5908,-3.5908,-3.5908,-3.5908,-3.5908,-3.5908,-3.5908,0.0,-3.5908,-3.5889,0.0,-3.5894,-3.5895,-3.5903,-3.5903,-3.6406,-3.7102,-3.7102,-3.7668,-3.8528,-3.9328,-3.9699,-3.9934,-4.0815,-4.1108,-4.1108,-4.111,-4.1675,-4.2316,-4.2375,-4.3527,-4.4757,-4.4874,-4.5499,-4.6126,-4.6184,-4.6249,-4.6307,-4.6307,-4.6297,-4.63,-4.63,-4.63,-4.6309,-4.6305,-4.6306,-4.6289,-4.6228,-4.6207,-4.6229,-4.6287,-4.6306,-4.6301,-4.6303,-4.63,-4.63,-4.63,-4.63,-4.6306,-4.6306,-4.6293,-4.63,-4.63,-4.63,-4.63,-4.63,-4.63,-4.63,-4.63,-4.63,-4.63,-4.63,-4.63,-4.63,-3.0622,0.0,-3.0468,-3.0468,-3.0485,-3.0502,0.0,-3.0579,-3.0601,-3.0661,-3.068,-3.0706,-3.0697,-3.071,-3.0672,-3.0568,-3.0548,-3.081,-3.1526,-3.2694,-3.3749,-3.4582,-3.4793,-3.4927,-3.4964,-3.5107,-3.5207,-3.5239,-3.5364,-3.5507,-3.562,-3.5704,-3.5794,-3.5908,-3.5908,-3.5908,-3.5908,-3.5908,-3.5908,-3.5908,-3.5908,-3.5908,-3.5908,-3.5908,-3.5908,-3.5908,-3.5908,-3.5904,-3.5892,-3.5892,-3.5929,-3.5986,-3.5986,-3.6105,-3.6283,-3.6283,-3.6791,-3.7532,-3.7747,-3.8684,-3.9935,-4.082,-4.1093,-4.1093,-4.1107,-4.125,-4.1537,-4.2218,-4.2687,-4.3273,-4.4562,-4.505,-4.5362,-4.6048,-4.6249,-4.6307,-4.6307,-4.6297,-4.63,-4.63,-4.63,-4.6303,-4.6309,-4.6309,-4.6293,-4.6276,-4.6278,-4.6276,-4.629,-4.6309,-4.6306,-4.63,-4.63,-4.63,-4.63,-4.6306,-4.6309,-4.6309,-4.6303,-4.63,-4.63,-4.63,-4.63,-4.63,-4.63,-4.63,-4.63,-4.63,-4.63,-4.63,-4.63,-4.63,-3.0697,-3.0675,-3.0642,-3.0642,-3.0642,-3.0646,-3.0684,-3.0687,-3.0693,-3.0736,-3.0722,-3.07,-3.0693,-3.0642,-3.0554,-3.0433,-3.0414,-3.076,-3.1819,-3.2409,-3.3177,-3.4358,-3.4548,-3.4651,-3.487,-3.5001,-3.5107,-3.5174,-3.5326,-3.5457,-3.5577,-3.5669,-3.576,-3.5908,-3.5908,-3.5908,-3.5908,-3.5908,-3.5908,-3.5908,-3.5908,-3.5908,-3.5908,-3.5908,-3.5899,-3.5895,-3.5895,-3.5916,-3.5957,-3.5957,-3.5968,-3.5996,-3.5996,-3.5996,-3.5995,-3.5995,-3.6288,-3.6718,-3.7108,-3.8378,-3.9882,-4.0345,-4.0771,-4.1103,-4.1094,-4.1103,-4.119,-4.1679,-4.2089,-4.2616,-4.3515,-4.4355,-4.5058,-4.5546,-4.5973,-4.63,-4.63,-4.629,-4.63,-4.63,-4.63,-4.63,-4.63,-4.63,-4.63,-4.63,-4.63,-4.63,-4.63,-4.63,-4.63,-4.63,-4.63,-4.63,-4.63,-4.63,-4.63,-4.63,-4.63,-4.63,-4.63,-4.63,-4.63,-4.63,-4.63,-4.63,-4.63,-4.63,-4.63,-4.63,-4.63,-4.63,-3.0652,-3.0662,-3.0683,-3.0702,-3.0721,-3.0722,-3.0776,-3.0774,-3.0772,-3.0767,-3.0707,-3.0652,-3.0639,-3.0525,-3.0376,-3.0259,-3.0209,-3.0682,-3.2089,-3.1944,-3.2367,-3.417,-3.4302,-3.4413,-3.4812,-3.4908,-3.5019,-3.5193,-3.5311,-3.5432,-3.5577,-3.565,-3.5745,-3.5908,-3.5908,-3.5908,-3.5908,-3.5908,-3.5908,-3.5908,-3.5908,-3.5908,-3.5908,-3.5894,-3.5895,-3.5903,0.0,0.0,-3.5993,-3.5993,-3.5996,-3.5993,-3.5993,-3.6007,-3.5991,-3.5991,-3.5991,-3.613,-3.7009,-3.8238,-3.9468,-3.9722,-4.0307,-4.0932,-4.1049,-4.1108,-4.1108,-4.1108,-4.1635,-4.224,-4.2376,-4.3509,-4.468,-4.4933,-4.5558,-4.6144,-4.6261,-4.63,-4.63,-4.63,-4.63,-4.63,-4.63,-4.63,-4.63,-4.63,-4.63,-4.63,-4.63,-4.63,-4.63,-4.63,-4.63,-4.63,-4.63,-4.63,-4.63,-4.63,-4.63,-4.63,-4.63,-4.63,-4.63,-4.63,-4.63,-4.63,-4.63,-4.63,-4.63,-4.63,-4.63,-4.63,-3.0507,-3.0532,-3.0568,-3.0749,-3.0779,-3.0776,-3.0735,-3.0729,-3.0673,-3.0574,-3.0542,-3.0498,-3.0374,-3.0213,-3.0041,-2.9962,-2.9817,-3.0189,-3.1595,-3.1749,-3.2247,-3.3744,-3.4213,-3.4486,-3.4551,-3.4926,-3.5176,-3.5209,-3.5207,-3.534,-3.5596,-3.5609,-3.5706,-3.5889,-3.5908,-3.5908,-3.5908,-3.5908,-3.5908,-3.5908,-3.5908,-3.5908,-3.5889,-3.5903,-3.5896,-3.5903,0.0,-3.5994,-3.5996,-3.5996,-3.5992,-3.5996,-3.5996,-3.5996,-3.5991,-3.5991,-3.5991,-3.613,-3.7009,-3.7477,-3.7926,-3.9331,-3.9897,-4.0132,-4.0873,-4.1108,-4.1108,-4.1108,-4.1205,-4.1479,-4.2201,-4.2591,-4.3177,-4.466,-4.5109,-4.5402,-4.6144,-4.63,-4.63,-4.63,-4.63,-4.63,-4.63,-4.63,-4.63,-4.63,-4.63,-4.63,-4.63,-4.63,-4.63,-4.63,-4.63,-4.63,-4.63,-4.63,-4.63,-4.63,-4.63,-4.63,-4.63,-4.63,-4.63,-4.63,-4.63,-4.63,-4.63,-4.63,-4.63,-4.63,-4.63,-4.63,-3.0251,-3.0279,-3.0326,-3.0322,-3.0484,-3.0631,-3.0594,-3.0587,-3.054,-3.0366,-3.0286,-3.0167,-3.0008,-2.9867,-2.978,-2.9751,-2.957,-2.9805,-3.0887,-3.133,-3.1931,-3.3018,-3.3852,-3.4394,-3.4486,-3.4832,-3.5089,-3.5193,-3.4808,-3.4865,-3.5557,-3.5154,-3.5212,-3.5883,-3.5908,-3.5908,-3.5908,-3.5908,-3.5908,-3.5908,-3.5908,-3.5908,-3.5889,-3.5908,-3.5929,-3.5962,0.0,-3.5995,-3.6005,-3.6005,-3.6001,-3.5991,-3.5991,-3.5991,-3.5991,-3.5991,-3.5991,-3.6049,-3.6462,-3.6911,-3.7438,-3.8199,-3.9058,-3.9878,-4.0288,-4.0737,-4.1108,-4.1108,-4.1108,-4.1186,-4.1596,-4.2045,-4.2728,-4.3997,-4.466,-4.5246,-4.6105,-4.63,-4.63,-4.63,-4.63,-4.63,-4.63,-4.63,-4.63,-4.63,-4.63,-4.63,-4.63,-4.63,-4.63,-4.63,-4.63,-4.63,-4.63,-4.63,-4.63,-4.63,-4.63,-4.63,-4.63,-4.63,-4.63,-4.63,-4.63,-4.63,-4.63,-4.63,-4.63,-4.63,-4.63,-4.63,-2.9905,-2.9971,-3.0002,-2.9787,-3.0036,-3.0344,-3.0312,-3.0312,-3.026,-3.0088,-2.9985,-2.9832,-2.9616,-2.9514,-2.9436,-2.9455,-2.9334,-2.9505,-3.0317,-3.0991,-3.1696,-3.2504,-3.3432,-3.4064,-3.4205,-3.432,-3.4447,-3.4601,-3.4044,-3.4079,-3.4939,-3.436,-3.4398,-3.5285,-3.5499,-3.5597,-3.5597,-3.5802,-3.5899,-3.5908,-3.5908,-3.5894,-3.5904,-3.5919,-3.5942,-3.5994,-3.5995,-3.6005,-3.5991,-3.5991,-3.5991,-3.5991,-3.5991,-3.5991,-3.5991,-3.5991,-3.5991,-3.5991,-3.5991,-3.6443,-3.7028,-3.7223,-3.8316,-3.9546,-3.9741,-4.0405,-4.1108,-4.1108,-4.1108,-4.1108,-4.1108,-4.1596,-4.2318,-4.3196,-4.4055,-4.4933,-4.5812,-4.6163,-4.63,-4.63,-4.63,-4.63,-4.63,-4.63,-4.63,-4.63,-4.63,-4.63,-4.63,-4.63,-4.63,-4.63,-4.63,-4.63,-4.63,-4.63,-4.63,-4.63,-4.63,-4.63,-4.63,-4.63,-4.63,-4.63,-4.63,-4.63,-4.63,-4.63,-4.63,-4.63,-4.63,-4.63,-2.9495,-2.9551,-2.9495,-2.9283,-2.9614,-2.9904,-2.9791,-2.976,-2.9734,-2.966,-2.9644,-2.9551,-2.9282,-2.9092,-2.8971,-2.9044,-2.9021,-2.9315,-3.0105,-3.0913,-3.1696,-3.2504,-3.3055,-3.3379,-3.3379,-3.3067,-3.2848,-3.2882,-3.2825,-3.2914,-3.316,-3.3141,-3.3244,-3.357,-3.4291,-3.4681,-3.4681,-3.5494,-3.5903,-3.5908,-3.5908,-3.5909,-3.59,-3.5964,-3.5995,-3.5995,-3.6003,-3.5994,-3.5991,-3.5991,-3.5991,-3.5991,-3.5991,-3.5991,-3.5991,-3.5991,-3.5991,-3.5991,-3.5991,-3.603,-3.6228,-3.7048,-3.7926,-3.8824,-3.9566,-4.0405,-4.1108,-4.1108,-4.1108,-4.1108,-4.1108,-4.1147,-4.14,-4.2298,-4.3157,-4.4036,-4.4914,-4.5734,-4.63,-4.63,-4.63,-4.63,-4.63,-4.63,-4.63,-4.63,-4.63,-4.63,-4.63,-4.63,-4.63,-4.63,-4.63,-4.63,-4.63,-4.63,-4.63,-4.63,-4.63,-4.63,-4.63,-4.63,-4.63,-4.63,-4.63,-4.63,-4.63,-4.63,-4.63,-4.63,-4.63,-4.63,-2.9277,-2.9153,-2.9023,-2.886,-2.8796,-2.882,-2.9033,-2.9093,-2.905,-2.8887,-2.886,-2.8792,-2.8548,-2.8628,-2.8731,-2.8743,-2.8881,-2.9104,-2.942,-3.0155,-3.0779,-3.1072,-3.1867,-3.2409,-3.2535,-3.2523,-3.2578,-3.2691,-3.2264,-3.2295,-3.2957,-3.2578,-3.264,-3.3375,-3.3707,-3.3858,-3.3856,-3.4726,-3.5145,-3.5168,-3.5698,-3.5957,-3.5964,-3.5995,-3.5996,-3.5995,-3.6001,-3.5991,-3.5991,-3.5991,-3.5991,-3.5991,-3.5991,-3.5991,-3.5991,-3.5991,-3.5991,-3.5991,-3.5991,-3.5991,-3.6049,-3.6384,-3.7087,-3.7946,-3.8804,-3.9624,-4.0405,-4.0952,-4.1108,-4.1108,-4.1108,-4.1108,-4.1322,-4.2181,-4.3079,-4.3938,-4.4816,-4.5675,-4.63,-4.63,-4.63,-4.63,-4.63,-4.63,-4.63,-4.63,-4.63,-4.63,-4.63,-4.63,-4.63,-4.63,-4.63,-4.63,-4.63,-4.63,-4.63,-4.63,-4.63,-4.63,-4.63,-4.63,-4.63,-4.63,-4.63,-4.63,-4.63,-4.63,-4.63,-4.63,-4.63,-4.63,-2.8906,-2.8808,-2.8639,-2.8378,-2.8147,-2.8029,-2.8216,-2.8377,-2.8469,-2.833,-2.8244,-2.8139,-2.8112,-2.8228,-2.8378,-2.8576,-2.8743,-2.8905,-2.8994,-2.9696,-3.021,-3.021,-3.0905,-3.1483,-3.1672,-3.1637,-3.1694,-3.1909,-3.1456,-3.1476,-3.2164,-3.1759,-3.1813,-3.2557,-3.2844,-3.2994,-3.2996,-3.3849,-3.4289,-3.4294,-3.5175,-3.5722,-3.5995,-3.5996,-3.5994,-3.5991,-3.5999,-3.5991,-3.5991,-3.5991,-3.5991,-3.5991,-3.5991,-3.5991,-3.5991,-3.5991,-3.5991,-3.5991,-3.5991,-3.5991,-3.5991,-3.5991,-3.6599,-3.7458,-3.8336,-3.9156,-3.9976,-4.0854,-4.1108,-4.1108,-4.1108,-4.1108,-4.1244,-4.1849,-4.2669,-4.3528,-4.4406,-4.5265,-4.5968,-4.6241,-4.63,-4.63,-4.63,-4.63,-4.63,-4.63,-4.63,-4.63,-4.63,-4.63,-4.63,-4.63,-4.63,-4.63,-4.63,-4.63,-4.63,-4.63,-4.63,-4.63,-4.63,-4.63,-4.63,-4.63,-4.63,-4.63,-4.63,-4.63,-4.63,-4.63,-4.6269,-4.624,-2.8466,-2.844,-2.8344,-2.7829,-2.7701,-2.763,-2.7376,-2.7713,-2.8102,-2.8102,-2.7869,-2.7771,-2.8047,-2.7869,-2.7886,-2.8482,-2.8601,-2.8694,-2.897,-2.9696,-3.0191,-3.0191,-3.0383,-3.0565,-3.077,-3.0259,-2.9988,-3.0204,-3.026,-3.0359,-3.0492,-3.0568,-3.0665,-3.0799,-3.1636,-3.2098,-3.2098,-3.2947,-3.3398,-3.3398,-3.4266,-3.5144,-3.5995,-3.5995,-3.6009,-3.5991,-3.5991,-3.5991,-3.5991,-3.5991,-3.5991,-3.5991,-3.5991,-3.5991,-3.5991,-3.5991,-3.5991,-3.5991,-3.5991,-3.5991,-3.5991,-3.5991,-3.6579,-3.7458,-3.8316,-3.9156,-3.9976,-4.0834,-4.1088,-4.1108,-4.1108,-4.1108,-4.1108,-4.1108,-4.1771,-4.265,-4.3509,-4.4387,-4.5265,-4.6124,-4.628,-4.63,-4.63,-4.63,-4.63,-4.63,-4.63,-4.63,-4.63,-4.63,-4.63,-4.63,-4.63,-4.63,-4.63,-4.63,-4.63,-4.63,-4.63,-4.63,-4.63,-4.63,-4.63,-4.63,-4.63,-4.63,-4.63,-4.63,-4.63,-4.63,-4.615,-4.6098,-2.811,-2.7961,-2.7836,-2.773,-2.7569,-2.739,-2.7313,-2.7421,-2.7557,-2.7557,-2.7465,-2.7434,-2.7509,-2.763,-2.776,-2.7943,-2.8326,-2.8644,-2.8718,-2.9082,-2.9365,-2.9365,-2.9533,-2.9729,-2.9945,-2.992,-2.9996,-3.0248,-3.0389,-3.0482,-3.0576,-3.0685,-3.076,-3.0798,-3.1042,-3.1196,-3.1191,-3.205,-3.2497,-3.2508,-3.3361,-3.4239,-3.5105,-3.5728,-3.5999,-3.5991,-3.5991,-3.5991,-3.5991,-3.5991,-3.5991,-3.5991,-3.5991,-3.5991,-3.5991,-3.5991,-3.5991,-3.5991,-3.5991,-3.5991,-3.5991,-3.5991,-3.6169,-3.656,-3.7419,-3.8277,-3.9136,-3.9956,-4.062,-4.1108,-4.1108,-4.1108,-4.1108,-4.1108,-4.1771,-4.2474,-4.2728,-4.3957,-4.509,-4.5343,-4.587,-4.63,-4.63,-4.63,-4.63,-4.63,-4.63,-4.63,-4.63,-4.63,-4.63,-4.63,-4.63,-4.63,-4.63,-4.63,-4.63,-4.63,-4.63,-4.63,-4.63,-4.63,-4.63,-4.63,-4.63,-4.6245,-4.617,-4.617,-4.6105,-4.6013,-4.5978,-4.5969,-2.8561,-2.8259,-2.7984,-2.7626,-2.7421,-2.7299,-2.7299,-2.7299,-2.7299,-2.7299,-2.7299,-2.7299,-2.7299,-2.7421,-2.7569,-2.7672,-2.8093,-2.8456,-2.8576,-2.8834,-2.9021,-2.9115,-2.9228,-2.9415,-2.9698,-2.9848,-3.0047,-3.029,-3.0463,-3.056,-3.0593,-3.073,-3.0794,-3.0794,-3.0808,-3.0799,-3.08,-3.1324,-3.1573,-3.1582,-3.2461,-3.3163,-3.371,-3.494,-3.5662,-3.5991,-3.5991,-3.5991,-3.5991,-3.5991,-3.5991,-3.5991,-3.5991,-3.5991,-3.5991,-3.5991,-3.5991,-3.5991,-3.5991,-3.5991,-3.5991,-3.5991,-3.5991,-3.6169,-3.7048,-3.7878,-3.8705,-3.9563,-4.0414,-4.107,-4.1085,-4.1078,-4.107,-4.1085,-4.1498,-4.1986,-4.2337,-4.3205,-4.4129,-4.4787,-4.5318,-4.578,-4.6153,-4.6176,-4.617,-4.6211,-4.6216,-4.624,-4.63,-4.63,-4.63,-4.63,-4.63,-4.6273,-4.6236,-4.6273,-4.6273,-4.6216,-4.6216,-4.6216,-4.6216,-4.6216,-4.6206,-4.6144,-4.6144,-4.6098,-4.6013,-4.6013,-4.5987,-4.5899,-4.5875,-4.5852,-2.9407,-2.8959,-2.8543,-2.7566,-2.7299,-2.7299,-2.7299,-2.7299,-2.7299,-2.7299,-2.7299,-2.7299,-2.7299,-2.7299,-2.7376,-2.7612,-2.7897,-2.821,-2.8507,-2.8815,-2.9112,-2.9272,-2.9334,-2.9513,-2.9872,-2.9984,-3.01,-3.0294,-3.0479,-3.062,-3.0614,-3.072,-3.0794,-3.0799,-3.08,-3.0799,-3.0798,-3.0808,-3.0801,-3.0801,-3.1602,-3.2012,-3.2168,-3.3827,-3.5018,-3.5776,-3.5857,-3.5876,-3.5896,-3.5971,-3.5991,-3.5991,-3.5991,-3.5991,-3.5991,-3.5991,-3.5991,-3.601,-3.6088,-3.6069,-3.601,-3.6088,-3.6049,-3.6147,-3.6928,-3.7698,-3.8466,-3.9408,-4.0248,-4.0902,-4.1031,-4.1028,-4.1,-4.1051,-4.1078,-4.1293,-4.2073,-4.2276,-4.2721,-4.4253,-4.4625,-4.4968,-4.5823,-4.5929,-4.594,-4.6057,-4.6098,-4.6144,-4.6269,-4.6277,-4.6296,-4.63,-4.6273,-4.6216,-4.6105,-4.6206,-4.6211,-4.6091,-4.6091,-4.6084,-4.6076,-4.6084,-4.6013,-4.5899,-4.5899,-4.5899,-4.5889,-4.5889,-4.5878,-4.5867,-4.5802,-4.5786,-2.9008,-2.8659,-2.831,-2.7503,-2.7299,-2.7299,-2.7299,-2.7299,-2.7299,-2.7299,-2.7299,-2.7299,-2.7299,-2.7299,-2.7313,-2.7376,-2.78,-2.8129,-2.8183,-2.879,-2.9251,-2.9293,-2.9589,-2.9786,-2.9888,-3.0103,-3.0294,-3.0452,-3.056,-3.0658,-3.0751,-3.0785,-3.0806,-3.0801,-3.08,-3.0797,-3.0806,-3.0801,-3.0801,0.0,-3.0997,-3.1446,-3.2148,-3.3202,-3.3788,-3.4003,-3.4686,-3.4979,-3.5037,-3.572,-3.5991,-3.5991,-3.5991,-3.5991,-3.5991,-3.5991,-3.5991,-3.6111,-3.6774,-3.6579,-3.6111,-3.6794,-3.656,-3.6027,-3.6153,-3.6757,-3.7553,-3.8396,-3.9249,-4.0049,-4.0688,-4.0855,-4.0846,-4.0863,-4.0852,-4.0929,-4.1104,-4.168,-4.2255,-4.2605,-4.3772,-4.4754,-4.4968,-4.5492,-4.591,-4.593,-4.6021,-4.6105,-4.6138,-4.6144,-4.6181,-4.6296,-4.6105,-4.6033,-4.6098,-4.6041,-4.5978,-4.594,-4.594,-4.5919,-4.5866,-4.5908,-4.593,-4.5899,-4.5899,-4.5875,-4.5815,-4.5815,-4.5766,-4.5665,-4.5651,-4.5635,-2.9964,-2.9379,-2.8661,-2.7558,-2.7299,-2.7299,-2.7299,-2.7299,-2.7299,-2.7299,-2.7299,-2.7299,-2.7299,-2.7299,-2.7299,-2.7299,-2.7742,-2.8102,-2.8102,-2.8795,-2.9334,-2.9435,-2.9729,-2.9988,-3.008,-3.0298,-3.0472,-3.0543,-3.0646,-3.0735,-3.0791,-3.0793,-3.08,-3.08,-3.0793,-3.0801,-3.0791,-3.0791,-3.0791,-3.0791,-3.0774,-3.0973,-3.1432,-3.2744,-3.3356,-3.3376,-3.3824,-3.4284,-3.4744,-3.5193,-3.5623,-3.5991,-3.5991,-3.5991,-3.5991,-3.5991,-3.5991,-3.613,-3.7009,-3.6957,-3.6664,-3.7546,-3.7216,-3.6462,-3.643,-3.6705,-3.7186,-3.8052,-3.8879,-3.9703,-4.0568,-4.0771,-4.0749,-4.0749,-4.0771,-4.081,-4.081,-4.1121,-4.1535,-4.1923,-4.3059,-4.4079,-4.4529,-4.5297,-4.5859,-4.5859,-4.5906,-4.5969,-4.5996,-4.6005,-4.6041,-4.6098,-4.5987,-4.5919,-4.5949,-4.5929,-4.5897,-4.5859,-4.5859,-4.5841,-4.5814,-4.5775,-4.5756,-4.5756,-4.5756,-4.5733,-4.5696,-4.5696,-4.5668,-4.5586,-4.5586,-4.5586,-3.1166,-3.0161,-2.9023,-2.7782,-2.7385,-2.7299,-2.7299,-2.7299,-2.7299,-2.7299,-2.7299,-2.7313,-2.7376,-2.7313,-2.7313,-2.7421,-2.7829,-2.8112,-2.8219,-2.8888,-2.9436,-2.9643,-2.9886,-3.0145,-3.0325,-3.0496,-3.0601,-3.0601,-3.0712,-3.0786,-3.0808,-3.08,-3.081,-3.0795,-3.0791,-3.0794,-3.0794,-3.0786,-3.0767,-3.0767,-3.072,-3.0652,-3.0637,-3.2123,-3.282,-3.2859,-3.3015,-3.3524,-3.4256,-3.4413,-3.4998,-3.5779,-3.5779,-3.5876,-3.5991,-3.5991,-3.5988,-3.6121,-3.7136,-3.7303,-3.7248,-3.8261,-3.7965,-3.718,-3.7035,-3.6929,-3.705,-3.7812,-3.8573,-3.9379,-4.0303,-4.0607,-4.0668,-4.0668,-4.0703,-4.0751,-4.0751,-4.0703,-4.0849,-4.1525,-4.2448,-4.3384,-4.4312,-4.5191,-4.5771,-4.5771,-4.5786,-4.5835,-4.5875,-4.5867,-4.5897,-4.5899,-4.5867,-4.5847,-4.5794,-4.5835,-4.5815,-4.5771,-4.5771,-4.5771,-4.5771,-4.5651,-4.5586,-4.5586,-4.5586,-4.5586,-4.5586,-4.5586,-4.5586,-4.5586,-4.5586,-4.5586,-3.1011,-2.9762,-2.8506,-2.8299,-2.7764,-2.7299,-2.7299,-2.7299,-2.7299,-2.7299,-2.7299,-2.7376,-2.76,-2.7452,-2.7434,-2.7926,-2.8047,-2.8272,-2.8724,-2.9235,-2.9661,-2.9912,-3.0132,-3.0306,-3.0472,-3.0555,-3.0594,-3.0594,-3.0678,-3.0739,-3.0806,-3.0799,-3.0804,-3.0798,-3.0789,-3.0804,-3.0804,-3.0675,-3.0619,-3.0619,-3.062,-3.0579,-3.0519,-3.077,-3.0936,-3.1081,-3.1861,-3.2276,-3.25,-3.3261,-3.4081,-3.4861,-3.4861,-3.5349,-3.5991,-3.5991,-3.5955,-3.6133,-3.7706,-3.7702,-3.7264,-3.8838,-3.881,-3.7967,-3.716,-3.6914,-3.6899,-3.6897,-3.753,-3.8397,-3.9259,-4.001,-4.0534,-4.0534,-4.053,-4.0545,-4.0545,-4.053,-4.0573,-4.0669,-4.1986,-4.3355,-4.4177,-4.5043,-4.5637,-4.5637,-4.5731,-4.5794,-4.5808,-4.5808,-4.5841,-4.5889,-4.5742,-4.568,-4.58,-4.5696,-4.5635,-4.5637,-4.5637,-4.5637,-4.5637,-4.5603,-4.5586,-4.5586,-4.5586,-4.5586,-4.5586,-4.5586,-4.5586,-4.5586,-4.5586,-4.5586,-3.115,-3.0403,-2.954,-2.8868,-2.8288,-2.7799,-2.7385,-2.7299,-2.7345,-2.7496,-2.7509,-2.7569,-2.7672,-2.76,-2.7642,-2.8047,-2.8255,-2.8496,-2.8842,-2.9343,-2.9756,-2.9966,-3.0282,-3.0507,-3.0605,-3.0672,-3.0701,-3.071,-3.0741,-3.0762,-3.0794,-3.0767,-3.0765,-3.0799,-3.0722,-3.0678,-3.0678,-3.0591,-3.0535,-3.0501,-3.0539,-3.0501,-3.0389,-3.0439,-3.0492,-3.0605,-3.1035,-3.1534,-3.2085,-3.2494,-3.3183,-3.3961,-3.3926,-3.4441,-3.5217,-3.5173,-3.5431,-3.6027,-3.7759,-3.8024,-3.7898,-3.9622,-3.9576,-3.8769,-3.8369,-3.7565,-3.6877,-3.731,-3.77,-3.82,-3.9065,-3.9892,-4.0489,-4.0489,-4.0489,-4.0489,-4.0489,-4.0489,-4.0642,-4.1123,-4.2239,-4.3355,-4.4162,-4.5009,-4.5586,-4.5586,-4.5635,-4.5684,-4.5684,-4.5684,-4.5696,-4.5733,-4.5648,-4.562,-4.5684,-4.5637,-4.5586,-4.5586,-4.5586,-4.5586,-4.5586,-4.5586,-4.5586,-4.5586,-4.5586,-4.5586,-4.5586,-4.5586,-4.5586,-4.5586,-4.5586,-4.5586,-3.1342,-3.0994,-3.0473,-2.9577,-2.8873,-2.828,-2.7774,-2.7528,-2.7465,-2.7742,-2.78,-2.7829,-2.7915,-2.7858,-2.7926,-2.8264,-2.8515,-2.8761,-2.9023,-2.9476,-2.9779,-2.9807,-3.0074,-3.0217,-3.0083,-3.0103,-3.0137,-3.0134,-3.0111,-3.0201,-3.0408,-3.0372,-3.0445,-3.0685,-3.0603,-3.0543,-3.0543,-3.0472,-3.0419,-3.0343,-3.0394,-3.0375,-3.0304,-3.0348,-3.0406,-3.0482,-3.0543,-3.0989,-3.1666,-3.1707,-3.2248,-3.3032,-3.2971,-3.3476,-3.4263,-3.4431,-3.4858,-3.5629,-3.7569,-3.8167,-3.837,-4.0082,-4.0188,-3.9565,-3.9354,-3.8392,-3.7411,-3.7603,-3.7988,-3.843,-3.8854,-3.9719,-4.0489,-4.0489,-4.0489,-4.0489,-4.0489,-4.0489,-4.0681,-4.1335,-4.2354,-4.3297,-4.3893,-4.4893,-4.5586,-4.5586,-4.5586,-4.5586,-4.5586,-4.5586,-4.5586,-4.5586,-4.5586,-4.5586,-4.5586,-4.5586,-4.5586,-4.5586,-4.5586,-4.5586,-4.5586,-4.5586,-4.5586,-4.5586,-4.5586,-4.5586,-4.5586,-4.5586,-4.5586,-4.5586,-4.5586,-4.5586,-3.1545,-3.1085,-3.0662,-3.0628,-2.9506,-2.8466,-2.8666,-2.818,-2.7742,-2.802,-2.8075,-2.8183,-2.8482,-2.8281,-2.8264,-2.8858,-2.892,-2.9045,-2.9494,-2.9807,-2.9807,-2.9303,-2.9324,-2.9086,-2.8398,-2.8335,-2.834,-2.834,-2.8276,-2.8572,-2.9334,-2.9364,-2.9678,-3.0404,-3.0423,-3.0413,-3.0413,-3.0344,-3.0279,-3.0221,-3.0202,-3.0241,-3.0304,-3.0304,-3.0348,-3.0402,-3.0482,-3.061,-3.0765,-3.0691,-3.1228,-3.207,-3.1994,-3.2511,-3.3374,-3.4202,-3.4456,-3.4728,-3.7251,-3.8054,-3.8291,-3.9965,-4.0485,-4.0296,-3.9527,-3.9238,-3.8834,-3.7219,-3.7969,-3.9046,-3.8277,-3.9277,-4.0489,-4.0489,-4.0489,-4.0489,-4.0489,-4.0489,-4.0508,-4.0546,-4.1931,-4.3104,-4.3162,-4.4509,-4.5586,-4.5586,-4.5586,-4.5586,-4.5586,-4.5586,-4.5586,-4.5586,-4.5586,-4.5586,-4.5586,-4.5586,-4.5586,-4.5586,-4.5586,-4.5586,-4.5586,-4.5586,-4.5586,-4.5586,-4.5586,-4.5586,-4.5586,-4.5586,-4.5586,-4.5586,-4.5586,-4.5586,-3.2453,-3.2309,-3.1892,-3.1447,-3.0547,-2.9537,-2.8731,-2.8228,-2.7964,-2.8075,-2.8281,-2.8507,-2.8791,-2.8626,-2.859,-2.9119,-2.9166,-2.9316,-2.9734,-3.0004,-3.0089,-3.0044,-2.9674,-2.9326,-2.9061,-2.8533,-2.8182,-2.8149,-2.8074,-2.8152,-2.8394,-2.8405,-2.8511,-2.8792,-2.8741,-2.8706,-2.8675,-2.8638,-2.8619,-2.8593,-2.86,-2.8906,-2.9473,-2.9505,-2.9855,-3.041,-3.0436,-3.0501,-3.0564,-3.0586,-3.0808,-3.1093,-3.1033,-3.1523,-3.2337,-3.2599,-3.301,-3.3697,-3.5727,-3.676,-3.745,-3.9161,-4.0065,-4.045,-4.0162,-3.97,-3.9161,-3.8546,-3.8411,-3.8527,-3.8757,-3.9277,-3.9854,-4.0373,-4.0489,-4.0489,-4.0489,-4.0489,-4.0489,-4.0489,-4.145,-4.245,-4.3008,-4.4028,-4.4951,-4.5509,-4.5586,-4.5586,-4.5586,-4.5586,-4.5586,-4.5586,-4.5586,-4.5586,-4.5586,-4.5586,-4.5586,-4.5586,-4.5586,-4.5586,-4.5586,-4.5586,-4.5586,-4.5586,-4.5586,-4.5586,-4.5586,-4.5586,-4.5586,-4.5586,-4.5586,-4.5586,-3.2862,-3.2862,-3.261,-3.217,-3.1487,-3.0599,-2.9497,-2.8941,-2.8631,-2.844,-2.8601,-2.8791,-2.897,-2.891,-2.8943,-2.9251,-2.9355,-2.9533,-2.9915,-3.0163,-3.0244,-3.0105,-2.9713,-2.9352,-2.909,-2.8256,-2.7721,-2.7666,-2.7331,0.0,-2.7422,-2.7422,-2.7547,-2.7824,-2.7777,-2.7757,-2.7701,-2.7701,-2.7701,-2.7701,-2.7708,-2.8013,-2.8605,-2.8917,-2.9394,-2.9987,-3.0275,-3.0439,-3.0501,-3.0518,-3.0543,-3.0568,-3.0492,-3.0809,-3.1358,-3.1607,-3.2045,-3.2737,-3.4468,-3.5776,-3.6949,-3.8392,-3.9604,-4.0489,-4.0489,-4.0123,-3.9642,-3.9373,-3.9084,-3.8911,-3.9219,-3.9488,-3.9835,-4.0354,-4.0489,-4.0489,-4.0489,-4.0489,-4.0489,-4.0489,-4.12,-4.2085,-4.2951,-4.3778,-4.4605,-4.547,-4.5586,-4.5586,-4.5586,-4.5586,-4.5586,-4.5586,-4.5586,-4.5586,-4.5586,-4.5586,-4.5586,-4.5586,-4.5586,-4.5586,-4.5586,-4.5586,-4.5586,-4.5586,-4.5586,-4.5586,-4.5586,-4.5586,-4.5586,-4.5586,-4.5586,-4.5586,0.0,0.0,0.0,-3.2813,-3.2255,-3.1578,-3.1018,-3.0351,-2.9675,-2.9093,-2.8994,-2.8994,-2.8994,-2.9163,-2.9293,-2.9314,-2.9474,-2.9731,-3.0065,-3.0327,-3.0203,-2.9429,-2.9372,-2.911,-2.8299,-2.7388,-2.6819,-2.68,-2.5951,-2.5736,-2.6414,-2.6461,-2.683,-2.7587,-2.7612,-2.7612,-2.7612,-2.7612,-2.7612,-2.7612,-2.7612,-2.7669,-2.7781,-2.8567,-2.8967,-2.9102,-2.9987,-3.0389,-3.0472,-3.0417,-3.0439,-3.0482,-3.0436,-3.0398,-3.0494,-3.1352,-3.166,-3.191,-3.3545,-3.5218,-3.6776,-3.7642,-3.9084,-4.045,-4.045,-4.0469,-4.0335,-3.9546,-3.9873,-4.0277,-3.9488,-3.9892,-4.0489,-4.0489,-4.0489,-4.0489,-4.0489,-4.0489,-4.0489,-4.0489,-4.1181,-4.2047,-4.2951,-4.3739,-4.4566,-4.547,-4.5586,-4.5586,-4.5586,-4.5586,-4.5586,-4.5586,-4.5586,-4.5586,-4.5586,-4.5586,-4.5586,-4.5586,-4.5586,-4.5586,-4.5586,-4.5586,-4.5586,-4.5586,-4.5586,-4.5586,-4.5586,-4.5586,-4.5586,-4.5586,-4.5586,-4.5586,-3.3178,0.0,0.0,0.0,0.0,0.0,-3.0876,-3.0333,-2.9826,-2.8907,-2.8858,-2.8994,-2.8994,-2.9163,-2.9355,-2.9475,-2.9681,-2.9915,-3.019,-3.0395,-3.0439,-3.0257,-2.9784,-2.938,-2.9082,-2.8221,-2.7395,0.0,-2.6362,-2.6011,-2.557,-2.557,-2.5588,-2.5671,-2.5671,-2.5636,-2.5521,-2.5521,-2.5579,-2.5671,-2.5671,-2.6085,-2.6872,-2.7102,-2.7577,-2.8275,-2.9102,-2.947,-2.9541,-3.0152,-3.0402,-3.0436,-3.0421,-3.0398,-3.0417,-3.0679,-3.0756,-3.0929,-3.2006,-3.3487,-3.5045,-3.5911,-3.7757,-3.9623,-3.9623,-4.0027,-4.045,-4.0219,-3.9912,-3.9565,-3.9354,-3.9892,-4.0489,-4.0489,-4.0489,-4.0489,-4.0489,-4.0489,-4.0489,-4.0489,-4.0681,-4.1335,-4.2835,-4.3278,-4.3932,-4.5374,-4.5586,-4.5586,-4.5586,-4.5586,-4.5586,-4.5586,-4.5586,-4.5586,-4.5586,-4.5586,-4.5586,-4.5586,-4.5586,-4.5586,-4.5586,-4.5586,-4.5586,-4.5586,-4.5586,-4.5586,-4.5586,-4.5586,-4.5586,-4.5586,-4.5586,-4.5586,-3.3357,-3.352,-3.3549,-3.3426,0.0,0.0,-3.1636,-3.13,-3.0821,-2.9521,-2.9399,-2.9402,-2.9049,-2.9228,-2.9456,-2.9589,-2.9855,-3.0099,-3.0351,-3.0451,-3.0547,-3.066,-3.0286,-2.9994,-2.9946,-2.9071,-2.826,-2.773,-2.7262,-2.6623,-2.5746,-2.5382,-2.5113,-2.4915,-2.4902,-2.4851,-2.4707,-2.4707,-2.4734,-2.4823,-2.4874,-2.5247,-2.5898,-2.6301,-2.6817,-2.7399,-2.8236,-2.8794,-2.914,-2.964,-3.0083,-3.0398,-3.0398,-3.0398,-3.0398,-3.0398,-3.0398,-3.0456,-3.0987,-3.2256,-3.3795,-3.468,-3.6449,-3.8354,-3.9084,-3.9623,-4.0065,-4.0412,-4.0162,-3.9796,-3.9796,-4.0142,-4.0489,-4.0489,-4.0489,-4.0489,-4.0489,-4.0489,-4.0489,-4.0489,-4.0489,-4.0931,-4.2316,-4.2854,-4.3547,-4.4855,-4.5355,-4.5586,-4.5586,-4.5586,-4.5586,-4.5586,-4.5586,-4.5586,-4.5586,-4.5586,-4.5586,-4.5586,-4.5586,-4.5586,-4.5586,-4.5586,-4.5586,-4.5586,-4.5586,-4.5586,-4.5586,-4.5586,-4.5586,-4.5586,-4.5586,-4.5586,-3.3375,-3.3491,-3.352,-3.3661,-3.3698,0.0,-3.2771,-3.2588,-3.2173,-3.065,-3.0265,-2.9989,-2.9297,-2.9409,-2.9608,-2.9626,-2.9953,-3.0267,-3.0462,-3.0506,-3.0565,-3.0781,-3.074,-3.072,-3.0709,-2.9876,-2.9293,-2.9206,-2.8272,-2.7319,-2.644,-2.5715,-2.5184,-2.4888,-2.4861,-2.4775,-2.4645,-2.4645,-2.466,-2.4676,-2.479,-2.4888,-2.5031,-2.5937,-2.6373,-2.6512,-2.7379,-2.8159,-2.8832,-2.9006,-2.9602,-3.0398,-3.0398,-3.0398,-3.0398,-3.0398,-3.0398,-3.0398,-3.0398,-3.1448,-3.2891,-3.366,-3.5122,-3.6873,-3.8411,-3.9084,-3.9469,-4.0258,-4.0489,-4.0489,-4.0489,-4.0489,-4.0489,-4.0489,-4.0489,-4.0489,-4.0489,-4.0489,-4.0489,-4.0489,-4.0489,-4.0777,-4.1662,-4.245,-4.3258,-4.4162,-4.4951,-4.549,-4.5586,-4.5586,-4.5586,-4.5586,-4.5586,-4.5586,-4.5586,-4.5586,-4.5586,-4.5586,-4.5586,-4.5586,-4.5586,-4.5586,-4.5586,-4.5586,-4.5586,-4.5586,-4.5586,-4.5586,-4.5586,-4.5586,-4.5586,-4.5586,-3.3393,-3.3452,-3.3509,-3.352,-3.3633,0.0,-3.2692,-3.2562,-3.2339,-3.1347,-3.065,-3.0184,-3.0202,-2.9883,-2.9662,-2.9822,-3.0049,-3.0273,-3.0482,-3.05,-3.0575,-3.078,-3.078,-3.0765,-3.0714,-3.0416,-2.997,-2.9255,-2.8272,-2.7319,-2.644,-2.6148,-2.5627,-2.4772,-2.4572,-2.4425,-2.4284,-2.4303,-2.4357,-2.4459,-2.4491,-2.4666,-2.5012,-2.5203,-2.5378,-2.5599,-2.6474,-2.6946,-2.7198,-2.8544,-2.9602,-3.0398,-3.0398,-3.0398,-3.0398,-3.0398,-3.0398,-3.0398,-3.0398,-3.1083,-3.1968,-3.2122,-3.3795,-3.5815,-3.6142,-3.7661,-3.9469,-4.0258,-4.0489,-4.0489,-4.0489,-4.0489,-4.0489,-4.0489,-4.0489,-4.0489,-4.0489,-4.0489,-4.0489,-4.0489,-4.0489,-4.0777,-4.1662,-4.195,-4.2566,-4.4066,-4.4432,-4.4797,-4.5509,-4.5586,-4.5586,-4.5586,-4.5586,-4.5586,-4.5586,-4.5586,-4.5586,-4.5586,-4.5586,-4.5586,-4.5586,-4.5586,-4.5586,-4.5586,-4.5586,-4.5586,-4.5586,-4.5586,-4.5586,-4.5586,-4.5586,-4.5586,-3.3364,-3.3422,-3.3452,-3.3509,-3.3549,0.0,0.0,-3.3113,-3.2928,-3.2122,-3.1753,-3.1385,-3.0643,-3.0451,-3.0296,-2.9964,-3.0104,-3.0297,-3.0482,-3.0501,-3.0567,-3.0775,-3.08,-3.0796,-3.0754,-3.0633,-3.0352,-2.9832,-2.8874,-2.8122,-2.7682,-2.673,-2.5924,-2.5324,-2.4696,-2.4338,-2.419,-2.419,-2.4228,-2.4284,-2.4373,-2.4508,-2.4716,-2.4907,-2.5063,-2.518,-2.568,-2.6175,-2.6677,-2.7503,-2.8591,-2.9794,-3.0237,-3.0398,-3.0398,-3.0398,-3.0398,-3.0398,-3.0398,-3.0698,-3.1121,-3.1564,-3.2833,-3.4372,-3.5238,-3.7276,-3.9469,-4.0258,-4.0489,-4.0489,-4.0489,-4.0489,-4.0489,-4.0489,-4.0489,-4.0489,-4.0489,-4.0489,-4.0489,-4.0489,-4.0489,-4.0642,-4.1085,-4.1508,-4.2085,-4.2931,-4.3758,-4.4451,-4.4893,-4.5316,-4.5586,-4.5586,-4.5586,-4.5586,-4.5586,-4.5586,-4.5586,-4.5586,-4.5586,-4.5586,-4.5586,-4.5586,-4.5586,-4.5586,-4.5586,-4.5586,-4.5586,-4.5586,-4.5586,-4.5586,-4.5586,-4.5586,-3.3316,-3.3393,-3.3393,-3.3481,-3.3509,-3.3491,0.0,0.0,0.0,-3.2848,-3.2859,-3.2581,-3.1266,-3.1261,-3.1153,-3.0335,-3.039,-3.0518,-3.0501,-3.0501,-3.0579,-3.0771,-3.08,-3.0799,-3.0804,-3.0675,-3.0521,-3.0409,-2.9621,-2.9063,-2.885,-2.7428,-2.639,-2.5874,-2.5018,-2.4469,-2.419,-2.419,-2.419,-2.419,-2.4302,-2.4373,-2.4407,-2.4731,-2.494,-2.5006,-2.5103,-2.5614,-2.6348,-2.6532,-2.7388,-2.8717,-2.9756,-3.0256,-3.0398,-3.0398,-3.0398,-3.0398,-3.0398,-3.0398,-3.0513,-3.1218,-3.2218,-3.3468,-3.5218,-3.7392,-3.9469,-4.0258,-4.0489,-4.0489,-4.0489,-4.0489,-4.0489,-4.0489,-4.0489,-4.0489,-4.0489,-4.0489,-4.0489,-4.0489,-4.0489,-4.0489,-4.0489,-4.1085,-4.1604,-4.1777,-4.2951,-4.3932,-4.4259,-4.4913,-4.5413,-4.5566,-4.5586,-4.5586,-4.5586,-4.5586,-4.5586,-4.5586,-4.5586,-4.5586,-4.5586,-4.5586,-4.5586,-4.5586,-4.5586,-4.5586,-4.5586,-4.5586,-4.5586,-4.5586,-4.5586,-4.5586,-3.3393,-3.3393,-3.3393,-3.3393,-3.3452,-3.3491,-3.3491,0.0,-3.3587,-3.3478,0.0,-3.2911,-3.2892,0.0,0.0,-3.142,-3.1331,-3.1155,-3.0588,-3.0501,-3.0579,-3.0771,-3.0797,-3.0801,-3.0804,-3.062,-3.0472,-3.0409,-3.0171,-2.9641,-2.8669,-2.8317,-2.7376,-2.5689,-2.5392,-2.4945,-2.4208,-2.419,-2.419,-2.419,-2.4209,-2.4284,-2.4407,-2.4441,-2.4651,-2.4993,-2.5025,-2.518,-2.5503,-2.6273,-2.6717,-2.7044,-2.8621,-2.9717,-3.0398,-3.0398,-3.0398,-3.0398,-3.0398,-3.0398,-3.0417,-3.0513,-3.2141,-3.4372,-3.6045,-3.7834,-3.9469,-4.0258,-4.0489,-4.0489,-4.0489,-4.0489,-4.0489,-4.0489,-4.0489,-4.0489,-4.0489,-4.0489,-4.0489,-4.0489,-4.0489,-4.0489,-4.0489,-4.0566,-4.0912,-4.1681,-4.197,-4.2624,-4.4105,-4.4393,-4.4739,-4.5509,-4.5586,-4.5586,-4.5586,-4.5586,-4.5586,-4.5586,-4.5586,-4.5586,-4.5586,-4.5586,-4.5586,-4.5586,-4.5586,-4.5586,-4.5586,-4.5586,-4.5586,-4.5586,-4.5586,-4.5586,-3.4099,-3.3755,-3.3393,-3.3393,-3.3422,-3.3452,-3.3452,-3.3491,-3.3549,-3.3549,0.0,0.0,0.0,0.0,0.0,0.0,-3.1859,-3.1515,-3.1245,-3.0898,-3.0706,-3.0792,-3.0797,0.0,-3.0796,-3.0658,-3.0543,-3.0519,-3.0321,-3.0008,-2.9541,-2.8801,-2.8049,-2.7249,-2.6041,-2.5256,-2.4887,-2.4428,-2.419,-2.419,-2.419,-2.4247,-2.4284,-2.4495,-2.467,-2.4832,-2.5038,-2.5187,-2.533,-2.5686,-2.6139,-2.6678,-2.7371,-2.8467,-2.9717,-3.0217,-3.0398,-3.0398,-3.0398,-3.0398,-3.0475,-3.0987,-3.2545,-3.4507,-3.6199,-3.7911,-3.9469,-4.0258,-4.0489,-4.0489,-4.0489,-4.0489,-4.0489,-4.0489,-4.0489,-4.0489,-4.0489,-4.0489,-4.0489,-4.0489,-4.0489,-4.0489,-4.0489,-4.0489,-4.0623,-4.0989,-4.1489,-4.2239,-4.3451,-4.4008,-4.4624,-4.5509,-4.5586,-4.5586,-4.5586,-4.5586,-4.5586,-4.5586,-4.5586,-4.5586,-4.5586,-4.5586,-4.5586,-4.5586,-4.5586,-4.5586,-4.5586,-4.5586,-4.5586,-4.5586,-4.5586,-4.5586,-3.4335,-3.3846,-3.3393,-3.3393,-3.3393,-3.3393,-3.3393,-3.3422,-3.3491,-3.3577,-3.3943,0.0,0.0,0.0,-3.3996,-3.3153,0.0,-3.221,-3.1758,-3.1343,-3.1027,-3.0827,-3.0797,-3.0781,0.0,-3.067,-3.0595,-3.0571,-3.0356,-3.0202,-3.0114,-2.9298,-2.8664,-2.8333,-2.6896,-2.5904,-2.5403,-2.4814,-2.441,-2.419,-2.419,-2.4228,-2.4284,-2.4528,-2.4704,-2.4799,-2.5043,-2.5209,-2.5292,-2.5302,-2.5677,-2.6294,-2.6774,-2.7832,-2.9179,-2.9813,-3.0352,-3.0717,-3.0475,-3.0398,-3.0494,-3.1141,-3.2641,-3.4468,-3.593,-3.7738,-3.9469,-4.0258,-4.0489,-4.0489,-4.0489,-4.0489,-4.0489,-4.0489,-4.0489,-4.0489,-4.0489,-4.0489,-4.0489,-4.0489,-4.0489,-4.0489,-4.0489,-4.0489,-4.0489,-4.0489,-4.1046,-4.1835,-4.2951,-4.3605,-4.4393,-4.547,-4.5586,-4.5586,-4.5586,-4.5586,-4.5586,-4.5586,-4.5586,-4.5586,-4.5586,-4.5531,-4.5495,-4.5495,-4.5495,-4.5495,-4.5495,-4.5568,-4.5568,-4.5495,-4.5495,-4.5495,0.0,0.0,0.0,-3.3393,0.0,-3.3393,-3.3393,-3.3393,-3.3481,-3.3726,-3.3993,-3.4269,-3.4513,-3.4889,-3.4876,-3.3999,-3.3954,0.0,0.0,-3.1801,-3.1598,-3.0885,-3.0799,-3.0772,-3.072,-3.0639,-3.0568,-3.0511,-3.0375,-3.0177,-2.9927,-2.9874,-2.9315,-2.8163,-2.8049,-2.717,-2.5421,-2.5384,-2.498,-2.419,-2.419,-2.4303,-2.4495,-2.4495,-2.4685,-2.4994,-2.5005,-2.5118,-2.5292,-2.5293,-2.5322,-2.5514,-2.7198,-2.8371,-2.9102,-2.9121,-3.0217,-3.1545,-3.0698,-3.0398,-3.0398,-3.0417,-3.216,-3.4372,-3.5276,-3.7296,-3.9469,-4.0258,-4.0489,-4.0489,-4.0489,-4.0489,-4.0489,-4.0489,-4.0489,-4.0489,-4.0489,-4.0489,-4.0489,-4.0489,-4.0489,-4.0489,-4.0489,-4.0489,-4.0489,-4.0489,-4.0508,-4.1162,-4.2874,-4.3124,-4.3778,-4.5413,-4.5586,-4.5586,-4.5586,-4.5586,-4.5586,-4.5586,-4.5586,-4.5586,-4.5586,-4.5342,-4.5222,-4.5222,-4.5222,-4.5222,-4.5222,-4.5457,-4.5476,-4.5222,-4.5222,-4.518,0.0,0.0,-3.3393,-3.3393,0.0,0.0,0.0,0.0,-3.3481,-3.3753,-3.4005,-3.4279,-3.4551,-3.4851,-3.498,-3.4729,-3.4405,-3.3971,0.0,-3.2589,-3.173,-3.0905,-3.08,-3.0784,-3.0768,-3.0711,-3.0633,-3.0568,-3.0472,-3.0344,-3.0177,-3.0003,-2.9647,-2.9101,-2.8445,-2.7764,-2.7061,-2.5994,-2.5333,-2.504,-2.4524,-2.4338,-2.4508,-2.4639,-2.4814,-2.5005,-2.5138,-2.5252,-2.5293,-2.5303,-2.563,-2.6217,-2.6813,-2.827,-3.0018,-2.9971,-3.0698,-3.1583,-3.0698,-3.0398,-3.0494,-3.1083,-3.2583,-3.4449,-3.5872,-3.77,-3.9469,-4.0258,-4.0489,-4.0489,-4.0489,-4.0489,-4.0489,-4.0489,-4.0489,-4.0489,-4.0489,-4.0489,-4.0489,-4.0489,-4.0489,-4.0489,-4.0489,-4.0489,-4.0489,-4.0489,-4.0489,-4.1123,-4.2874,-4.3104,-4.3739,-4.5413,-4.5586,-4.5586,-4.5586,-4.5586,-4.5586,-4.555,-4.5531,-4.5438,-4.5282,-4.518,-4.5074,-4.4938,-4.4938,-4.503,-4.5201,-4.5074,-4.5052,-4.5118,-4.4726,-4.465,-3.4927,-3.4138,0.0,-3.3643,-3.3671,0.0,-3.3671,0.0,-3.3661,0.0,-3.4148,-3.4298,-3.4632,-3.487,-3.502,-3.5057,-3.4813,-3.4546,0.0,-3.3048,-3.1899,-3.1322,-3.0995,-3.0784,-3.0768,-3.0724,-3.0667,-3.06,-3.0537,-3.0462,-3.0375,-3.0163,-2.9939,-2.9763,-2.9098,-2.854,-2.8003,-2.7046,-2.6358,-2.5946,-2.5244,-2.4954,-2.503,-2.4927,-2.4956,-2.5111,-2.5233,-2.5293,-2.5322,-2.563,-2.6101,-2.6659,-2.7255,-2.8714,-3.0453,-3.0094,-3.0524,-3.1199,-3.0595,-3.0398,-3.0533,-3.1429,-3.2622,-3.4103,-3.6103,-3.77,-3.9008,-3.9835,-4.0277,-4.0431,-4.0142,-4.0277,-4.0489,-4.0489,-4.0489,-4.0489,-4.0489,-4.0489,-4.0489,-4.0489,-4.0489,-4.0489,-4.0489,-4.0489,-4.0489,-4.0489,-4.0489,-4.1123,-4.2874,-4.3104,-4.3739,-4.5413,-4.5586,-4.5586,-4.5586,-4.5586,-4.5513,-4.5381,-4.5342,-4.5222,-4.4985,-4.4872,-4.4776,-4.465,-4.465,-4.4726,-4.4872,-4.4751,-4.4726,-4.4776,-4.4327,-4.4184]}]]